<?xml version="1.0" encoding="UTF-8" standalone="no" ?>
<gpx xmlns="http://www.topografix.com/GPX/1/1" xmlns:xsi="http://www.w3.org/2001/XMLSchema-instance" xsi:schemaLocation="http://www.topografix.com/GPX/1/1 http://www.topografix.com/GPX/1/1/gpx.xsd" version="1.1" creator="VisuGPX - https://www.visugpx.com">
  <metadata>
    <name>Cime de Rocaillon, huit par Béasse et le col de Porte</name>
    <desc><![CDATA[Grand huit en moyenne Vésubie avec de beaux sentiers.
On peut se contenter de la 1ere boucle pour raccourcir l\'itinéraire.]]></desc>
  </metadata>
  <trk>
    <name><![CDATA[ACTIVE LOG 003]]></name>
    <trkseg>
      <trkpt lat="43.94279" lon="7.2828">
        <ele>282.7650146</ele>
        <time>2012-05-08T07:01:03Z</time>
      </trkpt>
      <trkpt lat="43.94277" lon="7.28299">
        <ele>283.2456055</ele>
        <time>2012-05-08T07:01:35Z</time>
      </trkpt>
      <trkpt lat="43.9428" lon="7.28298">
        <ele>282.7650146</ele>
        <time>2012-05-08T07:02:11Z</time>
      </trkpt>
      <trkpt lat="43.94289" lon="7.28301">
        <ele>282.7650146</ele>
        <time>2012-05-08T07:02:16Z</time>
      </trkpt>
      <trkpt lat="43.94304" lon="7.28299">
        <ele>283.7261963</ele>
        <time>2012-05-08T07:02:21Z</time>
      </trkpt>
      <trkpt lat="43.94313" lon="7.28286">
        <ele>283.2456055</ele>
        <time>2012-05-08T07:02:26Z</time>
      </trkpt>
      <trkpt lat="43.94322" lon="7.28281">
        <ele>289.0135498</ele>
        <time>2012-05-08T07:02:29Z</time>
      </trkpt>
      <trkpt lat="43.94329" lon="7.28282">
        <ele>294.3007813</ele>
        <time>2012-05-08T07:02:31Z</time>
      </trkpt>
      <trkpt lat="43.94339" lon="7.28286">
        <ele>301.5106201</ele>
        <time>2012-05-08T07:02:34Z</time>
      </trkpt>
      <trkpt lat="43.94347" lon="7.28287">
        <ele>306.3172607</ele>
        <time>2012-05-08T07:02:36Z</time>
      </trkpt>
      <trkpt lat="43.94353" lon="7.2829">
        <ele>310.6430664</ele>
        <time>2012-05-08T07:02:38Z</time>
      </trkpt>
      <trkpt lat="43.9436" lon="7.28292">
        <ele>314.0078125</ele>
        <time>2012-05-08T07:02:40Z</time>
      </trkpt>
      <trkpt lat="43.94367" lon="7.28295">
        <ele>317.8530273</ele>
        <time>2012-05-08T07:02:42Z</time>
      </trkpt>
      <trkpt lat="43.94374" lon="7.28298">
        <ele>321.2177734</ele>
        <time>2012-05-08T07:02:44Z</time>
      </trkpt>
      <trkpt lat="43.9438" lon="7.28301">
        <ele>324.5822754</ele>
        <time>2012-05-08T07:02:46Z</time>
      </trkpt>
      <trkpt lat="43.94391" lon="7.28305">
        <ele>328.9083252</ele>
        <time>2012-05-08T07:02:49Z</time>
      </trkpt>
      <trkpt lat="43.94401" lon="7.2831">
        <ele>332.75354</ele>
        <time>2012-05-08T07:02:52Z</time>
      </trkpt>
      <trkpt lat="43.9441" lon="7.28314">
        <ele>336.598877</ele>
        <time>2012-05-08T07:02:55Z</time>
      </trkpt>
      <trkpt lat="43.9442" lon="7.28319">
        <ele>339.9633789</ele>
        <time>2012-05-08T07:02:58Z</time>
      </trkpt>
      <trkpt lat="43.94428" lon="7.28328">
        <ele>342.3666992</ele>
        <time>2012-05-08T07:03:01Z</time>
      </trkpt>
      <trkpt lat="43.9444" lon="7.28334">
        <ele>345.7313232</ele>
        <time>2012-05-08T07:03:05Z</time>
      </trkpt>
      <trkpt lat="43.94453" lon="7.2834">
        <ele>348.6152344</ele>
        <time>2012-05-08T07:03:09Z</time>
      </trkpt>
      <trkpt lat="43.94465" lon="7.28346">
        <ele>351.9798584</ele>
        <time>2012-05-08T07:03:13Z</time>
      </trkpt>
      <trkpt lat="43.94478" lon="7.28352">
        <ele>355.3444824</ele>
        <time>2012-05-08T07:03:17Z</time>
      </trkpt>
      <trkpt lat="43.94498" lon="7.28361">
        <ele>358.2283936</ele>
        <time>2012-05-08T07:03:23Z</time>
      </trkpt>
      <trkpt lat="43.94525" lon="7.28373">
        <ele>361.5931396</ele>
        <time>2012-05-08T07:03:31Z</time>
      </trkpt>
      <trkpt lat="43.94595" lon="7.28406">
        <ele>364.9576416</ele>
        <time>2012-05-08T07:03:53Z</time>
      </trkpt>
      <trkpt lat="43.94668" lon="7.28441">
        <ele>366.3995361</ele>
        <time>2012-05-08T07:04:13Z</time>
      </trkpt>
      <trkpt lat="43.94716" lon="7.28501">
        <ele>368.8029785</ele>
        <time>2012-05-08T07:04:31Z</time>
      </trkpt>
      <trkpt lat="43.9474" lon="7.28575">
        <ele>371.6868896</ele>
        <time>2012-05-08T07:04:48Z</time>
      </trkpt>
      <trkpt lat="43.94765" lon="7.28651">
        <ele>374.5708008</ele>
        <time>2012-05-08T07:05:06Z</time>
      </trkpt>
      <trkpt lat="43.94797" lon="7.28712">
        <ele>378.4161377</ele>
        <time>2012-05-08T07:05:23Z</time>
      </trkpt>
      <trkpt lat="43.94851" lon="7.28748">
        <ele>381.3000488</ele>
        <time>2012-05-08T07:05:42Z</time>
      </trkpt>
      <trkpt lat="43.94903" lon="7.28816">
        <ele>384.184082</ele>
        <time>2012-05-08T07:06:02Z</time>
      </trkpt>
      <trkpt lat="43.94923" lon="7.28896">
        <ele>386.5874023</ele>
        <time>2012-05-08T07:06:20Z</time>
      </trkpt>
      <trkpt lat="43.94936" lon="7.28966">
        <ele>388.9906006</ele>
        <time>2012-05-08T07:06:35Z</time>
      </trkpt>
      <trkpt lat="43.9495" lon="7.29035">
        <ele>392.3553467</ele>
        <time>2012-05-08T07:06:53Z</time>
      </trkpt>
      <trkpt lat="43.94935" lon="7.29095">
        <ele>395.7198486</ele>
        <time>2012-05-08T07:07:11Z</time>
      </trkpt>
      <trkpt lat="43.94934" lon="7.29146">
        <ele>397.1617432</ele>
        <time>2012-05-08T07:07:28Z</time>
      </trkpt>
      <trkpt lat="43.9495" lon="7.29178">
        <ele>399.0843506</ele>
        <time>2012-05-08T07:07:47Z</time>
      </trkpt>
      <trkpt lat="43.94953" lon="7.29182">
        <ele>399.0843506</ele>
        <time>2012-05-08T07:08:09Z</time>
      </trkpt>
      <trkpt lat="43.94955" lon="7.29183">
        <ele>397.6424561</ele>
        <time>2012-05-08T07:08:13Z</time>
      </trkpt>
      <trkpt lat="43.94955" lon="7.29183">
        <ele>395.2391357</ele>
        <time>2012-05-08T07:08:17Z</time>
      </trkpt>
      <trkpt lat="43.94949" lon="7.29196">
        <ele>393.3165283</ele>
        <time>2012-05-08T07:08:22Z</time>
      </trkpt>
      <trkpt lat="43.94946" lon="7.29196">
        <ele>392.3553467</ele>
        <time>2012-05-08T07:08:23Z</time>
      </trkpt>
      <trkpt lat="43.94935" lon="7.29194">
        <ele>389.9519043</ele>
        <time>2012-05-08T07:08:27Z</time>
      </trkpt>
      <trkpt lat="43.94931" lon="7.29195">
        <ele>388.5100098</ele>
        <time>2012-05-08T07:08:29Z</time>
      </trkpt>
      <trkpt lat="43.94927" lon="7.29202">
        <ele>387.548584</ele>
        <time>2012-05-08T07:08:31Z</time>
      </trkpt>
      <trkpt lat="43.94929" lon="7.29204">
        <ele>385.1453857</ele>
        <time>2012-05-08T07:08:33Z</time>
      </trkpt>
      <trkpt lat="43.94931" lon="7.2921">
        <ele>384.184082</ele>
        <time>2012-05-08T07:08:35Z</time>
      </trkpt>
      <trkpt lat="43.9493" lon="7.29225">
        <ele>382.2613525</ele>
        <time>2012-05-08T07:08:39Z</time>
      </trkpt>
      <trkpt lat="43.94926" lon="7.29236">
        <ele>382.7420654</ele>
        <time>2012-05-08T07:08:51Z</time>
      </trkpt>
      <trkpt lat="43.94926" lon="7.29236">
        <ele>384.6647949</ele>
        <time>2012-05-08T07:09:40Z</time>
      </trkpt>
      <trkpt lat="43.94926" lon="7.29236">
        <ele>386.1066895</ele>
        <time>2012-05-08T07:09:48Z</time>
      </trkpt>
      <trkpt lat="43.949" lon="7.29231">
        <ele>389.4711914</ele>
        <time>2012-05-08T07:10:12Z</time>
      </trkpt>
      <trkpt lat="43.94865" lon="7.29207">
        <ele>392.8359375</ele>
        <time>2012-05-08T07:10:38Z</time>
      </trkpt>
      <trkpt lat="43.94857" lon="7.29202">
        <ele>393.7972412</ele>
        <time>2012-05-08T07:10:49Z</time>
      </trkpt>
      <trkpt lat="43.94857" lon="7.29202">
        <ele>397.1617432</ele>
        <time>2012-05-08T07:11:08Z</time>
      </trkpt>
      <trkpt lat="43.94857" lon="7.29202">
        <ele>400.0458984</ele>
        <time>2012-05-08T07:11:24Z</time>
      </trkpt>
      <trkpt lat="43.94857" lon="7.29202">
        <ele>402.9296875</ele>
        <time>2012-05-08T07:11:42Z</time>
      </trkpt>
      <trkpt lat="43.94857" lon="7.29202">
        <ele>406.7749023</ele>
        <time>2012-05-08T07:11:56Z</time>
      </trkpt>
      <trkpt lat="43.94857" lon="7.29202">
        <ele>410.1396484</ele>
        <time>2012-05-08T07:12:12Z</time>
      </trkpt>
      <trkpt lat="43.94857" lon="7.29202">
        <ele>413.5042725</ele>
        <time>2012-05-08T07:12:29Z</time>
      </trkpt>
      <trkpt lat="43.94857" lon="7.29202">
        <ele>417.3496094</ele>
        <time>2012-05-08T07:12:43Z</time>
      </trkpt>
      <trkpt lat="43.94857" lon="7.29202">
        <ele>417.3496094</ele>
        <time>2012-05-08T07:12:44Z</time>
      </trkpt>
      <trkpt lat="43.94857" lon="7.29202">
        <ele>420.2333984</ele>
        <time>2012-05-08T07:13:03Z</time>
      </trkpt>
      <trkpt lat="43.94857" lon="7.29202">
        <ele>423.1174316</ele>
        <time>2012-05-08T07:13:22Z</time>
      </trkpt>
      <trkpt lat="43.94857" lon="7.29202">
        <ele>426.0013428</ele>
        <time>2012-05-08T07:13:40Z</time>
      </trkpt>
      <trkpt lat="43.94857" lon="7.29202">
        <ele>428.4046631</ele>
        <time>2012-05-08T07:13:52Z</time>
      </trkpt>
      <trkpt lat="43.94857" lon="7.29202">
        <ele>431.769165</ele>
        <time>2012-05-08T07:14:08Z</time>
      </trkpt>
      <trkpt lat="43.94857" lon="7.29202">
        <ele>435.1339111</ele>
        <time>2012-05-08T07:14:24Z</time>
      </trkpt>
      <trkpt lat="43.94857" lon="7.29202">
        <ele>438.4985352</ele>
        <time>2012-05-08T07:14:41Z</time>
      </trkpt>
      <trkpt lat="43.94857" lon="7.29202">
        <ele>440.9018555</ele>
        <time>2012-05-08T07:14:56Z</time>
      </trkpt>
      <trkpt lat="43.94807" lon="7.29263">
        <ele>442.8244629</ele>
        <time>2012-05-08T07:15:19Z</time>
      </trkpt>
      <trkpt lat="43.94807" lon="7.29263">
        <ele>442.8244629</ele>
        <time>2012-05-08T07:15:20Z</time>
      </trkpt>
      <trkpt lat="43.94807" lon="7.29263">
        <ele>443.3050537</ele>
        <time>2012-05-08T07:15:22Z</time>
      </trkpt>
      <trkpt lat="43.94807" lon="7.29263">
        <ele>446.6696777</ele>
        <time>2012-05-08T07:15:39Z</time>
      </trkpt>
      <trkpt lat="43.94807" lon="7.29263">
        <ele>450.0344238</ele>
        <time>2012-05-08T07:15:55Z</time>
      </trkpt>
      <trkpt lat="43.94807" lon="7.29263">
        <ele>452.9182129</ele>
        <time>2012-05-08T07:16:09Z</time>
      </trkpt>
      <trkpt lat="43.94807" lon="7.29263">
        <ele>456.282959</ele>
        <time>2012-05-08T07:16:23Z</time>
      </trkpt>
      <trkpt lat="43.94807" lon="7.29263">
        <ele>459.1668701</ele>
        <time>2012-05-08T07:16:39Z</time>
      </trkpt>
      <trkpt lat="43.94807" lon="7.29263">
        <ele>462.0507813</ele>
        <time>2012-05-08T07:16:55Z</time>
      </trkpt>
      <trkpt lat="43.94807" lon="7.29263">
        <ele>464.9348145</ele>
        <time>2012-05-08T07:17:11Z</time>
      </trkpt>
      <trkpt lat="43.94807" lon="7.29263">
        <ele>468.2993164</ele>
        <time>2012-05-08T07:17:25Z</time>
      </trkpt>
      <trkpt lat="43.94823" lon="7.2939">
        <ele>471.1833496</ele>
        <time>2012-05-08T07:17:41Z</time>
      </trkpt>
      <trkpt lat="43.94823" lon="7.2939">
        <ele>472.1446533</ele>
        <time>2012-05-08T07:17:49Z</time>
      </trkpt>
      <trkpt lat="43.94823" lon="7.2939">
        <ele>475.0286865</ele>
        <time>2012-05-08T07:18:05Z</time>
      </trkpt>
      <trkpt lat="43.94823" lon="7.2939">
        <ele>478.3931885</ele>
        <time>2012-05-08T07:18:21Z</time>
      </trkpt>
      <trkpt lat="43.94823" lon="7.2939">
        <ele>480.315918</ele>
        <time>2012-05-08T07:18:35Z</time>
      </trkpt>
      <trkpt lat="43.94823" lon="7.2939">
        <ele>483.1998291</ele>
        <time>2012-05-08T07:18:48Z</time>
      </trkpt>
      <trkpt lat="43.94823" lon="7.2939">
        <ele>486.0837402</ele>
        <time>2012-05-08T07:19:02Z</time>
      </trkpt>
      <trkpt lat="43.94823" lon="7.2939">
        <ele>488.4871826</ele>
        <time>2012-05-08T07:19:18Z</time>
      </trkpt>
      <trkpt lat="43.94823" lon="7.2939">
        <ele>491.8516846</ele>
        <time>2012-05-08T07:19:32Z</time>
      </trkpt>
      <trkpt lat="43.94823" lon="7.2939">
        <ele>494.2550049</ele>
        <time>2012-05-08T07:19:46Z</time>
      </trkpt>
      <trkpt lat="43.94823" lon="7.2939">
        <ele>495.6968994</ele>
        <time>2012-05-08T07:19:49Z</time>
      </trkpt>
      <trkpt lat="43.94823" lon="7.2939">
        <ele>495.2161865</ele>
        <time>2012-05-08T07:19:52Z</time>
      </trkpt>
      <trkpt lat="43.94823" lon="7.2939">
        <ele>498.1003418</ele>
        <time>2012-05-08T07:20:09Z</time>
      </trkpt>
      <trkpt lat="43.94823" lon="7.2939">
        <ele>501.9455566</ele>
        <time>2012-05-08T07:20:24Z</time>
      </trkpt>
      <trkpt lat="43.94823" lon="7.2939">
        <ele>504.8294678</ele>
        <time>2012-05-08T07:20:42Z</time>
      </trkpt>
      <trkpt lat="43.94823" lon="7.2939">
        <ele>508.1940918</ele>
        <time>2012-05-08T07:21:00Z</time>
      </trkpt>
      <trkpt lat="43.94823" lon="7.2939">
        <ele>511.5587158</ele>
        <time>2012-05-08T07:21:14Z</time>
      </trkpt>
      <trkpt lat="43.94807" lon="7.2952">
        <ele>514.442627</ele>
        <time>2012-05-08T07:21:31Z</time>
      </trkpt>
      <trkpt lat="43.94807" lon="7.2952">
        <ele>517.807251</ele>
        <time>2012-05-08T07:21:47Z</time>
      </trkpt>
      <trkpt lat="43.94807" lon="7.2952">
        <ele>520.6912842</ele>
        <time>2012-05-08T07:22:03Z</time>
      </trkpt>
      <trkpt lat="43.94807" lon="7.2952">
        <ele>523.5751953</ele>
        <time>2012-05-08T07:22:21Z</time>
      </trkpt>
      <trkpt lat="43.94807" lon="7.2952">
        <ele>525.0172119</ele>
        <time>2012-05-08T07:22:29Z</time>
      </trkpt>
      <trkpt lat="43.94807" lon="7.29519">
        <ele>526.9398193</ele>
        <time>2012-05-08T07:22:41Z</time>
      </trkpt>
      <trkpt lat="43.94807" lon="7.29519">
        <ele>527.901001</ele>
        <time>2012-05-08T07:22:43Z</time>
      </trkpt>
      <trkpt lat="43.94807" lon="7.29519">
        <ele>530.7851563</ele>
        <time>2012-05-08T07:22:57Z</time>
      </trkpt>
      <trkpt lat="43.94807" lon="7.29519">
        <ele>534.1496582</ele>
        <time>2012-05-08T07:23:13Z</time>
      </trkpt>
      <trkpt lat="43.94807" lon="7.29519">
        <ele>537.5142822</ele>
        <time>2012-05-08T07:23:31Z</time>
      </trkpt>
      <trkpt lat="43.94807" lon="7.29519">
        <ele>540.3983154</ele>
        <time>2012-05-08T07:23:50Z</time>
      </trkpt>
      <trkpt lat="43.94807" lon="7.29519">
        <ele>542.8015137</ele>
        <time>2012-05-08T07:24:03Z</time>
      </trkpt>
      <trkpt lat="43.94807" lon="7.29519">
        <ele>545.6855469</ele>
        <time>2012-05-08T07:24:17Z</time>
      </trkpt>
      <trkpt lat="43.94851" lon="7.29614">
        <ele>549.0500488</ele>
        <time>2012-05-08T07:24:36Z</time>
      </trkpt>
      <trkpt lat="43.94851" lon="7.29614">
        <ele>551.4533691</ele>
        <time>2012-05-08T07:24:49Z</time>
      </trkpt>
      <trkpt lat="43.94851" lon="7.29614">
        <ele>554.8178711</ele>
        <time>2012-05-08T07:25:06Z</time>
      </trkpt>
      <trkpt lat="43.94851" lon="7.29614">
        <ele>557.7021484</ele>
        <time>2012-05-08T07:25:25Z</time>
      </trkpt>
      <trkpt lat="43.94851" lon="7.29614">
        <ele>561.5473633</ele>
        <time>2012-05-08T07:25:45Z</time>
      </trkpt>
      <trkpt lat="43.94851" lon="7.29614">
        <ele>562.9892578</ele>
        <time>2012-05-08T07:26:02Z</time>
      </trkpt>
      <trkpt lat="43.94851" lon="7.29614">
        <ele>563.9504395</ele>
        <time>2012-05-08T07:26:29Z</time>
      </trkpt>
      <trkpt lat="43.94851" lon="7.29614">
        <ele>563.9504395</ele>
        <time>2012-05-08T07:27:27Z</time>
      </trkpt>
      <trkpt lat="43.94899" lon="7.29671">
        <ele>564.4311523</ele>
        <time>2012-05-08T07:27:32Z</time>
      </trkpt>
      <trkpt lat="43.94887" lon="7.29682">
        <ele>566.8344727</ele>
        <time>2012-05-08T07:27:43Z</time>
      </trkpt>
      <trkpt lat="43.94875" lon="7.2969">
        <ele>568.2763672</ele>
        <time>2012-05-08T07:27:50Z</time>
      </trkpt>
      <trkpt lat="43.9486" lon="7.29699">
        <ele>571.6408691</ele>
        <time>2012-05-08T07:28:04Z</time>
      </trkpt>
      <trkpt lat="43.94856" lon="7.29699">
        <ele>572.1218262</ele>
        <time>2012-05-08T07:28:08Z</time>
      </trkpt>
      <trkpt lat="43.94848" lon="7.29695">
        <ele>572.1218262</ele>
        <time>2012-05-08T07:28:13Z</time>
      </trkpt>
      <trkpt lat="43.94841" lon="7.29687">
        <ele>572.1218262</ele>
        <time>2012-05-08T07:28:18Z</time>
      </trkpt>
      <trkpt lat="43.94839" lon="7.29685">
        <ele>572.1218262</ele>
        <time>2012-05-08T07:28:20Z</time>
      </trkpt>
      <trkpt lat="43.94816" lon="7.29662">
        <ele>574.0444336</ele>
        <time>2012-05-08T07:28:34Z</time>
      </trkpt>
      <trkpt lat="43.9479" lon="7.29645">
        <ele>576.4477539</ele>
        <time>2012-05-08T07:28:50Z</time>
      </trkpt>
      <trkpt lat="43.9479" lon="7.29645">
        <ele>576.9284668</ele>
        <time>2012-05-08T07:28:51Z</time>
      </trkpt>
      <trkpt lat="43.94774" lon="7.29631">
        <ele>580.2929688</ele>
        <time>2012-05-08T07:29:05Z</time>
      </trkpt>
      <trkpt lat="43.94764" lon="7.29628">
        <ele>581.2543945</ele>
        <time>2012-05-08T07:29:11Z</time>
      </trkpt>
      <trkpt lat="43.94764" lon="7.29638">
        <ele>581.7348633</ele>
        <time>2012-05-08T07:29:15Z</time>
      </trkpt>
      <trkpt lat="43.94795" lon="7.29666">
        <ele>585.5800781</ele>
        <time>2012-05-08T07:29:39Z</time>
      </trkpt>
      <trkpt lat="43.94813" lon="7.29701">
        <ele>588.4643555</ele>
        <time>2012-05-08T07:30:00Z</time>
      </trkpt>
      <trkpt lat="43.94825" lon="7.29728">
        <ele>591.3481445</ele>
        <time>2012-05-08T07:30:16Z</time>
      </trkpt>
      <trkpt lat="43.94829" lon="7.29739">
        <ele>592.3095703</ele>
        <time>2012-05-08T07:30:22Z</time>
      </trkpt>
      <trkpt lat="43.94825" lon="7.29743">
        <ele>592.7902832</ele>
        <time>2012-05-08T07:30:27Z</time>
      </trkpt>
      <trkpt lat="43.94824" lon="7.29739">
        <ele>592.7902832</ele>
        <time>2012-05-08T07:30:30Z</time>
      </trkpt>
      <trkpt lat="43.94809" lon="7.29718">
        <ele>594.2321777</ele>
        <time>2012-05-08T07:30:48Z</time>
      </trkpt>
      <trkpt lat="43.94791" lon="7.29701">
        <ele>595.6740723</ele>
        <time>2012-05-08T07:31:05Z</time>
      </trkpt>
      <trkpt lat="43.94762" lon="7.29676">
        <ele>597.5966797</ele>
        <time>2012-05-08T07:31:25Z</time>
      </trkpt>
      <trkpt lat="43.94745" lon="7.29676">
        <ele>598.5578613</ele>
        <time>2012-05-08T07:31:35Z</time>
      </trkpt>
      <trkpt lat="43.94763" lon="7.29701">
        <ele>601.4418945</ele>
        <time>2012-05-08T07:31:51Z</time>
      </trkpt>
      <trkpt lat="43.94793" lon="7.29734">
        <ele>604.3261719</ele>
        <time>2012-05-08T07:32:12Z</time>
      </trkpt>
      <trkpt lat="43.94797" lon="7.29788">
        <ele>607.6906738</ele>
        <time>2012-05-08T07:32:33Z</time>
      </trkpt>
      <trkpt lat="43.94807" lon="7.29834">
        <ele>611.0551758</ele>
        <time>2012-05-08T07:32:52Z</time>
      </trkpt>
      <trkpt lat="43.94838" lon="7.29865">
        <ele>614.4196777</ele>
        <time>2012-05-08T07:33:15Z</time>
      </trkpt>
      <trkpt lat="43.94847" lon="7.29869">
        <ele>614.4196777</ele>
        <time>2012-05-08T07:33:20Z</time>
      </trkpt>
      <trkpt lat="43.94874" lon="7.29879">
        <ele>617.7841797</ele>
        <time>2012-05-08T07:33:39Z</time>
      </trkpt>
      <trkpt lat="43.94901" lon="7.29883">
        <ele>619.7070313</ele>
        <time>2012-05-08T07:33:55Z</time>
      </trkpt>
      <trkpt lat="43.94932" lon="7.29878">
        <ele>623.0717773</ele>
        <time>2012-05-08T07:34:12Z</time>
      </trkpt>
      <trkpt lat="43.94961" lon="7.29865">
        <ele>625.9555664</ele>
        <time>2012-05-08T07:34:29Z</time>
      </trkpt>
      <trkpt lat="43.94997" lon="7.29841">
        <ele>629.3200684</ele>
        <time>2012-05-08T07:34:50Z</time>
      </trkpt>
      <trkpt lat="43.94999" lon="7.29841">
        <ele>629.3200684</ele>
        <time>2012-05-08T07:34:51Z</time>
      </trkpt>
      <trkpt lat="43.94999" lon="7.29851">
        <ele>630.2814941</ele>
        <time>2012-05-08T07:34:58Z</time>
      </trkpt>
      <trkpt lat="43.94963" lon="7.29878">
        <ele>631.7233887</ele>
        <time>2012-05-08T07:35:20Z</time>
      </trkpt>
      <trkpt lat="43.94962" lon="7.29878">
        <ele>631.7233887</ele>
        <time>2012-05-08T07:35:21Z</time>
      </trkpt>
      <trkpt lat="43.94934" lon="7.29908">
        <ele>633.6459961</ele>
        <time>2012-05-08T07:35:37Z</time>
      </trkpt>
      <trkpt lat="43.94888" lon="7.29922">
        <ele>636.5302734</ele>
        <time>2012-05-08T07:35:59Z</time>
      </trkpt>
      <trkpt lat="43.94845" lon="7.29925">
        <ele>639.8947754</ele>
        <time>2012-05-08T07:36:20Z</time>
      </trkpt>
      <trkpt lat="43.94819" lon="7.29918">
        <ele>641.8173828</ele>
        <time>2012-05-08T07:36:35Z</time>
      </trkpt>
      <trkpt lat="43.94781" lon="7.29897">
        <ele>644.7011719</ele>
        <time>2012-05-08T07:36:56Z</time>
      </trkpt>
      <trkpt lat="43.94747" lon="7.29875">
        <ele>647.1044922</ele>
        <time>2012-05-08T07:37:15Z</time>
      </trkpt>
      <trkpt lat="43.9471" lon="7.29861">
        <ele>649.9885254</ele>
        <time>2012-05-08T07:37:32Z</time>
      </trkpt>
      <trkpt lat="43.94667" lon="7.29851">
        <ele>652.8725586</ele>
        <time>2012-05-08T07:37:53Z</time>
      </trkpt>
      <trkpt lat="43.94629" lon="7.29825">
        <ele>655.7565918</ele>
        <time>2012-05-08T07:38:13Z</time>
      </trkpt>
      <trkpt lat="43.94601" lon="7.29795">
        <ele>659.6018066</ele>
        <time>2012-05-08T07:38:29Z</time>
      </trkpt>
      <trkpt lat="43.94575" lon="7.2979">
        <ele>658.1599121</ele>
        <time>2012-05-08T07:38:41Z</time>
      </trkpt>
      <trkpt lat="43.94525" lon="7.29803">
        <ele>657.6791992</ele>
        <time>2012-05-08T07:39:00Z</time>
      </trkpt>
      <trkpt lat="43.9451" lon="7.29807">
        <ele>658.1599121</ele>
        <time>2012-05-08T07:39:19Z</time>
      </trkpt>
      <trkpt lat="43.9451" lon="7.29807">
        <ele>657.6791992</ele>
        <time>2012-05-08T07:40:20Z</time>
      </trkpt>
      <trkpt lat="43.94471" lon="7.29833">
        <ele>657.1984863</ele>
        <time>2012-05-08T07:40:40Z</time>
      </trkpt>
      <trkpt lat="43.94421" lon="7.29853">
        <ele>658.6403809</ele>
        <time>2012-05-08T07:41:01Z</time>
      </trkpt>
      <trkpt lat="43.94401" lon="7.29858">
        <ele>659.1210938</ele>
        <time>2012-05-08T07:41:09Z</time>
      </trkpt>
      <trkpt lat="43.94405" lon="7.29868">
        <ele>659.6018066</ele>
        <time>2012-05-08T07:41:14Z</time>
      </trkpt>
      <trkpt lat="43.94427" lon="7.29861">
        <ele>662.4855957</ele>
        <time>2012-05-08T07:41:28Z</time>
      </trkpt>
      <trkpt lat="43.94455" lon="7.29857">
        <ele>665.8503418</ele>
        <time>2012-05-08T07:41:46Z</time>
      </trkpt>
      <trkpt lat="43.94474" lon="7.29851">
        <ele>668.2536621</ele>
        <time>2012-05-08T07:41:57Z</time>
      </trkpt>
      <trkpt lat="43.94504" lon="7.29839">
        <ele>671.6181641</ele>
        <time>2012-05-08T07:42:14Z</time>
      </trkpt>
      <trkpt lat="43.94532" lon="7.29826">
        <ele>674.5021973</ele>
        <time>2012-05-08T07:42:30Z</time>
      </trkpt>
      <trkpt lat="43.94566" lon="7.29814">
        <ele>676.9055176</ele>
        <time>2012-05-08T07:42:49Z</time>
      </trkpt>
      <trkpt lat="43.94562" lon="7.29824">
        <ele>678.828125</ele>
        <time>2012-05-08T07:42:56Z</time>
      </trkpt>
      <trkpt lat="43.94543" lon="7.29836">
        <ele>681.7119141</ele>
        <time>2012-05-08T07:43:10Z</time>
      </trkpt>
      <trkpt lat="43.94518" lon="7.29861">
        <ele>685.0769043</ele>
        <time>2012-05-08T07:43:28Z</time>
      </trkpt>
      <trkpt lat="43.94483" lon="7.29887">
        <ele>688.9221191</ele>
        <time>2012-05-08T07:43:51Z</time>
      </trkpt>
      <trkpt lat="43.9446" lon="7.299">
        <ele>690.3640137</ele>
        <time>2012-05-08T07:44:05Z</time>
      </trkpt>
      <trkpt lat="43.94465" lon="7.29911">
        <ele>692.767334</ele>
        <time>2012-05-08T07:44:15Z</time>
      </trkpt>
      <trkpt lat="43.94498" lon="7.29894">
        <ele>696.1318359</ele>
        <time>2012-05-08T07:44:35Z</time>
      </trkpt>
      <trkpt lat="43.94524" lon="7.29882">
        <ele>699.4963379</ele>
        <time>2012-05-08T07:44:51Z</time>
      </trkpt>
      <trkpt lat="43.9456" lon="7.29876">
        <ele>702.3803711</ele>
        <time>2012-05-08T07:45:12Z</time>
      </trkpt>
      <trkpt lat="43.94588" lon="7.299">
        <ele>705.2644043</ele>
        <time>2012-05-08T07:45:31Z</time>
      </trkpt>
      <trkpt lat="43.94618" lon="7.29933">
        <ele>707.6677246</ele>
        <time>2012-05-08T07:45:51Z</time>
      </trkpt>
      <trkpt lat="43.94654" lon="7.29961">
        <ele>711.0322266</ele>
        <time>2012-05-08T07:46:13Z</time>
      </trkpt>
      <trkpt lat="43.94681" lon="7.29977">
        <ele>713.4355469</ele>
        <time>2012-05-08T07:46:29Z</time>
      </trkpt>
      <trkpt lat="43.94683" lon="7.29983">
        <ele>713.9160156</ele>
        <time>2012-05-08T07:46:33Z</time>
      </trkpt>
      <trkpt lat="43.9468" lon="7.29985">
        <ele>714.8774414</ele>
        <time>2012-05-08T07:46:35Z</time>
      </trkpt>
      <trkpt lat="43.94669" lon="7.2998">
        <ele>715.8388672</ele>
        <time>2012-05-08T07:46:42Z</time>
      </trkpt>
      <trkpt lat="43.94661" lon="7.29976">
        <ele>716.3195801</ele>
        <time>2012-05-08T07:46:47Z</time>
      </trkpt>
      <trkpt lat="43.94631" lon="7.29966">
        <ele>719.2036133</ele>
        <time>2012-05-08T07:47:06Z</time>
      </trkpt>
      <trkpt lat="43.94601" lon="7.29949">
        <ele>722.0874023</ele>
        <time>2012-05-08T07:47:24Z</time>
      </trkpt>
      <trkpt lat="43.9457" lon="7.29929">
        <ele>725.9326172</ele>
        <time>2012-05-08T07:47:45Z</time>
      </trkpt>
      <trkpt lat="43.94552" lon="7.29934">
        <ele>728.8166504</ele>
        <time>2012-05-08T07:47:57Z</time>
      </trkpt>
      <trkpt lat="43.9453" lon="7.29953">
        <ele>729.777832</ele>
        <time>2012-05-08T07:48:12Z</time>
      </trkpt>
      <trkpt lat="43.94506" lon="7.29974">
        <ele>730.7392578</ele>
        <time>2012-05-08T07:48:27Z</time>
      </trkpt>
      <trkpt lat="43.94512" lon="7.29979">
        <ele>731.7004395</ele>
        <time>2012-05-08T07:48:33Z</time>
      </trkpt>
      <trkpt lat="43.94538" lon="7.29956">
        <ele>734.5847168</ele>
        <time>2012-05-08T07:48:52Z</time>
      </trkpt>
      <trkpt lat="43.94569" lon="7.29958">
        <ele>737.9492188</ele>
        <time>2012-05-08T07:49:11Z</time>
      </trkpt>
      <trkpt lat="43.94601" lon="7.29993">
        <ele>741.7944336</ele>
        <time>2012-05-08T07:49:34Z</time>
      </trkpt>
      <trkpt lat="43.94629" lon="7.3002">
        <ele>745.1589355</ele>
        <time>2012-05-08T07:49:53Z</time>
      </trkpt>
      <trkpt lat="43.94658" lon="7.30045">
        <ele>748.5236816</ele>
        <time>2012-05-08T07:50:13Z</time>
      </trkpt>
      <trkpt lat="43.94685" lon="7.3006">
        <ele>751.4077148</ele>
        <time>2012-05-08T07:50:30Z</time>
      </trkpt>
      <trkpt lat="43.9472" lon="7.30093">
        <ele>755.2529297</ele>
        <time>2012-05-08T07:50:55Z</time>
      </trkpt>
      <trkpt lat="43.94751" lon="7.30117">
        <ele>758.1369629</ele>
        <time>2012-05-08T07:51:16Z</time>
      </trkpt>
      <trkpt lat="43.94783" lon="7.30138">
        <ele>761.5014648</ele>
        <time>2012-05-08T07:51:37Z</time>
      </trkpt>
      <trkpt lat="43.94821" lon="7.30156">
        <ele>764.8662109</ele>
        <time>2012-05-08T07:52:00Z</time>
      </trkpt>
      <trkpt lat="43.94848" lon="7.30162">
        <ele>767.75</ele>
        <time>2012-05-08T07:52:16Z</time>
      </trkpt>
      <trkpt lat="43.94874" lon="7.30164">
        <ele>771.1147461</ele>
        <time>2012-05-08T07:52:32Z</time>
      </trkpt>
      <trkpt lat="43.94892" lon="7.30164">
        <ele>772.5566406</ele>
        <time>2012-05-08T07:52:43Z</time>
      </trkpt>
      <trkpt lat="43.94928" lon="7.30168">
        <ele>775.4404297</ele>
        <time>2012-05-08T07:53:04Z</time>
      </trkpt>
      <trkpt lat="43.94961" lon="7.30179">
        <ele>778.3244629</ele>
        <time>2012-05-08T07:53:23Z</time>
      </trkpt>
      <trkpt lat="43.94989" lon="7.30177">
        <ele>780.2473145</ele>
        <time>2012-05-08T07:53:37Z</time>
      </trkpt>
      <trkpt lat="43.9499" lon="7.30185">
        <ele>781.689209</ele>
        <time>2012-05-08T07:53:41Z</time>
      </trkpt>
      <trkpt lat="43.94989" lon="7.30186">
        <ele>782.1699219</ele>
        <time>2012-05-08T07:53:42Z</time>
      </trkpt>
      <trkpt lat="43.9495" lon="7.30192">
        <ele>785.5344238</ele>
        <time>2012-05-08T07:54:03Z</time>
      </trkpt>
      <trkpt lat="43.94945" lon="7.30198">
        <ele>786.0151367</ele>
        <time>2012-05-08T07:54:07Z</time>
      </trkpt>
      <trkpt lat="43.94939" lon="7.3023">
        <ele>787.9377441</ele>
        <time>2012-05-08T07:54:20Z</time>
      </trkpt>
      <trkpt lat="43.94965" lon="7.30284">
        <ele>791.782959</ele>
        <time>2012-05-08T07:54:46Z</time>
      </trkpt>
      <trkpt lat="43.94983" lon="7.30323">
        <ele>795.1474609</ele>
        <time>2012-05-08T07:55:05Z</time>
      </trkpt>
      <trkpt lat="43.94987" lon="7.30338">
        <ele>795.1474609</ele>
        <time>2012-05-08T07:55:11Z</time>
      </trkpt>
      <trkpt lat="43.94993" lon="7.30327">
        <ele>797.0703125</ele>
        <time>2012-05-08T07:55:20Z</time>
      </trkpt>
      <trkpt lat="43.94989" lon="7.30309">
        <ele>798.512207</ele>
        <time>2012-05-08T07:55:41Z</time>
      </trkpt>
      <trkpt lat="43.94989" lon="7.30309">
        <ele>798.9929199</ele>
        <time>2012-05-08T07:56:07Z</time>
      </trkpt>
      <trkpt lat="43.94989" lon="7.30305">
        <ele>798.512207</ele>
        <time>2012-05-08T07:56:10Z</time>
      </trkpt>
      <trkpt lat="43.94991" lon="7.30257">
        <ele>801.8769531</ele>
        <time>2012-05-08T07:56:28Z</time>
      </trkpt>
      <trkpt lat="43.95015" lon="7.30218">
        <ele>803.7995605</ele>
        <time>2012-05-08T07:56:48Z</time>
      </trkpt>
      <trkpt lat="43.9502" lon="7.30218">
        <ele>804.2802734</ele>
        <time>2012-05-08T07:56:51Z</time>
      </trkpt>
      <trkpt lat="43.9502" lon="7.30228">
        <ele>805.722168</ele>
        <time>2012-05-08T07:56:57Z</time>
      </trkpt>
      <trkpt lat="43.95018" lon="7.30231">
        <ele>806.2026367</ele>
        <time>2012-05-08T07:56:59Z</time>
      </trkpt>
      <trkpt lat="43.95014" lon="7.30244">
        <ele>807.1640625</ele>
        <time>2012-05-08T07:57:05Z</time>
      </trkpt>
      <trkpt lat="43.95017" lon="7.30257">
        <ele>808.1254883</ele>
        <time>2012-05-08T07:57:12Z</time>
      </trkpt>
      <trkpt lat="43.95018" lon="7.30263">
        <ele>809.0866699</ele>
        <time>2012-05-08T07:57:15Z</time>
      </trkpt>
      <trkpt lat="43.95023" lon="7.30275">
        <ele>809.0866699</ele>
        <time>2012-05-08T07:57:21Z</time>
      </trkpt>
      <trkpt lat="43.95033" lon="7.30303">
        <ele>811.0092773</ele>
        <time>2012-05-08T07:57:37Z</time>
      </trkpt>
      <trkpt lat="43.95039" lon="7.30335">
        <ele>813.8933105</ele>
        <time>2012-05-08T07:57:52Z</time>
      </trkpt>
      <trkpt lat="43.95045" lon="7.30367">
        <ele>816.2966309</ele>
        <time>2012-05-08T07:58:08Z</time>
      </trkpt>
      <trkpt lat="43.95056" lon="7.30422">
        <ele>819.661377</ele>
        <time>2012-05-08T07:58:34Z</time>
      </trkpt>
      <trkpt lat="43.95057" lon="7.30442">
        <ele>821.5837402</ele>
        <time>2012-05-08T07:58:43Z</time>
      </trkpt>
      <trkpt lat="43.95066" lon="7.30435">
        <ele>823.9870605</ele>
        <time>2012-05-08T07:58:54Z</time>
      </trkpt>
      <trkpt lat="43.95067" lon="7.30384">
        <ele>826.8710938</ele>
        <time>2012-05-08T07:59:17Z</time>
      </trkpt>
      <trkpt lat="43.95087" lon="7.30332">
        <ele>830.2358398</ele>
        <time>2012-05-08T07:59:41Z</time>
      </trkpt>
      <trkpt lat="43.95109" lon="7.30293">
        <ele>833.6003418</ele>
        <time>2012-05-08T08:00:02Z</time>
      </trkpt>
      <trkpt lat="43.95133" lon="7.30277">
        <ele>836.9648438</ele>
        <time>2012-05-08T08:00:18Z</time>
      </trkpt>
      <trkpt lat="43.95164" lon="7.3028">
        <ele>839.3681641</ele>
        <time>2012-05-08T08:00:36Z</time>
      </trkpt>
      <trkpt lat="43.95176" lon="7.30297">
        <ele>841.2907715</ele>
        <time>2012-05-08T08:00:46Z</time>
      </trkpt>
      <trkpt lat="43.95172" lon="7.30306">
        <ele>842.2521973</ele>
        <time>2012-05-08T08:00:51Z</time>
      </trkpt>
      <trkpt lat="43.95166" lon="7.30308">
        <ele>843.6940918</ele>
        <time>2012-05-08T08:00:55Z</time>
      </trkpt>
      <trkpt lat="43.95162" lon="7.30312">
        <ele>843.6940918</ele>
        <time>2012-05-08T08:00:58Z</time>
      </trkpt>
      <trkpt lat="43.95145" lon="7.3035">
        <ele>846.5783691</ele>
        <time>2012-05-08T08:01:19Z</time>
      </trkpt>
      <trkpt lat="43.95148" lon="7.30361">
        <ele>847.5395508</ele>
        <time>2012-05-08T08:01:25Z</time>
      </trkpt>
      <trkpt lat="43.95158" lon="7.3036">
        <ele>849.9428711</ele>
        <time>2012-05-08T08:01:33Z</time>
      </trkpt>
      <trkpt lat="43.95166" lon="7.30359">
        <ele>850.9040527</ele>
        <time>2012-05-08T08:01:39Z</time>
      </trkpt>
      <trkpt lat="43.95198" lon="7.30356">
        <ele>853.307373</ele>
        <time>2012-05-08T08:02:01Z</time>
      </trkpt>
      <trkpt lat="43.95205" lon="7.30365">
        <ele>856.1911621</ele>
        <time>2012-05-08T08:02:07Z</time>
      </trkpt>
      <trkpt lat="43.952" lon="7.30374">
        <ele>857.6333008</ele>
        <time>2012-05-08T08:02:13Z</time>
      </trkpt>
      <trkpt lat="43.95185" lon="7.30385">
        <ele>858.5944824</ele>
        <time>2012-05-08T08:02:24Z</time>
      </trkpt>
      <trkpt lat="43.95193" lon="7.3039">
        <ele>860.0366211</ele>
        <time>2012-05-08T08:02:33Z</time>
      </trkpt>
      <trkpt lat="43.95197" lon="7.30391">
        <ele>861.4787598</ele>
        <time>2012-05-08T08:02:36Z</time>
      </trkpt>
      <trkpt lat="43.9522" lon="7.30402">
        <ele>864.8432617</ele>
        <time>2012-05-08T08:02:53Z</time>
      </trkpt>
      <trkpt lat="43.95236" lon="7.30432">
        <ele>868.2077637</ele>
        <time>2012-05-08T08:03:12Z</time>
      </trkpt>
      <trkpt lat="43.95252" lon="7.30451">
        <ele>871.5722656</ele>
        <time>2012-05-08T08:03:27Z</time>
      </trkpt>
      <trkpt lat="43.95263" lon="7.3046">
        <ele>873.4951172</ele>
        <time>2012-05-08T08:03:35Z</time>
      </trkpt>
      <trkpt lat="43.95267" lon="7.30465">
        <ele>874.4562988</ele>
        <time>2012-05-08T08:03:39Z</time>
      </trkpt>
      <trkpt lat="43.95262" lon="7.30471">
        <ele>875.8981934</ele>
        <time>2012-05-08T08:03:48Z</time>
      </trkpt>
      <trkpt lat="43.95252" lon="7.30467">
        <ele>876.8598633</ele>
        <time>2012-05-08T08:03:56Z</time>
      </trkpt>
      <trkpt lat="43.95242" lon="7.30465">
        <ele>878.3017578</ele>
        <time>2012-05-08T08:04:03Z</time>
      </trkpt>
      <trkpt lat="43.9524" lon="7.30478">
        <ele>879.7436523</ele>
        <time>2012-05-08T08:04:12Z</time>
      </trkpt>
      <trkpt lat="43.95247" lon="7.305">
        <ele>882.6276855</ele>
        <time>2012-05-08T08:04:29Z</time>
      </trkpt>
      <trkpt lat="43.95251" lon="7.30521">
        <ele>885.0310059</ele>
        <time>2012-05-08T08:04:38Z</time>
      </trkpt>
      <trkpt lat="43.95254" lon="7.3053">
        <ele>885.9921875</ele>
        <time>2012-05-08T08:04:42Z</time>
      </trkpt>
      <trkpt lat="43.95256" lon="7.30539">
        <ele>885.9921875</ele>
        <time>2012-05-08T08:04:55Z</time>
      </trkpt>
      <trkpt lat="43.95256" lon="7.30541">
        <ele>886.9533691</ele>
        <time>2012-05-08T08:05:00Z</time>
      </trkpt>
      <trkpt lat="43.9526" lon="7.3055">
        <ele>886.9533691</ele>
        <time>2012-05-08T08:05:05Z</time>
      </trkpt>
      <trkpt lat="43.95263" lon="7.30559">
        <ele>886.9533691</ele>
        <time>2012-05-08T08:05:09Z</time>
      </trkpt>
      <trkpt lat="43.95268" lon="7.30567">
        <ele>887.434082</ele>
        <time>2012-05-08T08:05:24Z</time>
      </trkpt>
      <trkpt lat="43.95271" lon="7.3057">
        <ele>887.434082</ele>
        <time>2012-05-08T08:06:04Z</time>
      </trkpt>
      <trkpt lat="43.95274" lon="7.30589">
        <ele>887.9147949</ele>
        <time>2012-05-08T08:06:11Z</time>
      </trkpt>
      <trkpt lat="43.95271" lon="7.30605">
        <ele>888.8762207</ele>
        <time>2012-05-08T08:06:17Z</time>
      </trkpt>
      <trkpt lat="43.95268" lon="7.30624">
        <ele>890.798584</ele>
        <time>2012-05-08T08:06:28Z</time>
      </trkpt>
      <trkpt lat="43.95263" lon="7.3065">
        <ele>893.6828613</ele>
        <time>2012-05-08T08:06:42Z</time>
      </trkpt>
      <trkpt lat="43.95262" lon="7.30653">
        <ele>894.644043</ele>
        <time>2012-05-08T08:06:44Z</time>
      </trkpt>
      <trkpt lat="43.95261" lon="7.30658">
        <ele>894.644043</ele>
        <time>2012-05-08T08:06:46Z</time>
      </trkpt>
      <trkpt lat="43.95259" lon="7.3067">
        <ele>896.0861816</ele>
        <time>2012-05-08T08:06:52Z</time>
      </trkpt>
      <trkpt lat="43.9525" lon="7.30685">
        <ele>897.5280762</ele>
        <time>2012-05-08T08:07:00Z</time>
      </trkpt>
      <trkpt lat="43.95249" lon="7.30687">
        <ele>898.0087891</ele>
        <time>2012-05-08T08:07:02Z</time>
      </trkpt>
      <trkpt lat="43.95249" lon="7.30691">
        <ele>898.4892578</ele>
        <time>2012-05-08T08:07:04Z</time>
      </trkpt>
      <trkpt lat="43.95239" lon="7.30717">
        <ele>901.8540039</ele>
        <time>2012-05-08T08:07:17Z</time>
      </trkpt>
      <trkpt lat="43.95234" lon="7.30735">
        <ele>903.7766113</ele>
        <time>2012-05-08T08:07:26Z</time>
      </trkpt>
      <trkpt lat="43.95225" lon="7.30763">
        <ele>906.6604004</ele>
        <time>2012-05-08T08:07:40Z</time>
      </trkpt>
      <trkpt lat="43.95212" lon="7.30775">
        <ele>909.5446777</ele>
        <time>2012-05-08T08:07:51Z</time>
      </trkpt>
      <trkpt lat="43.95208" lon="7.30781">
        <ele>910.9865723</ele>
        <time>2012-05-08T08:07:56Z</time>
      </trkpt>
      <trkpt lat="43.95204" lon="7.30785">
        <ele>911.947998</ele>
        <time>2012-05-08T08:07:59Z</time>
      </trkpt>
      <trkpt lat="43.95204" lon="7.3079">
        <ele>912.4284668</ele>
        <time>2012-05-08T08:08:02Z</time>
      </trkpt>
      <trkpt lat="43.95192" lon="7.30805">
        <ele>914.8317871</ele>
        <time>2012-05-08T08:08:14Z</time>
      </trkpt>
      <trkpt lat="43.95178" lon="7.30821">
        <ele>917.7155762</ele>
        <time>2012-05-08T08:08:24Z</time>
      </trkpt>
      <trkpt lat="43.95172" lon="7.30827">
        <ele>918.677002</ele>
        <time>2012-05-08T08:08:29Z</time>
      </trkpt>
      <trkpt lat="43.95167" lon="7.30832">
        <ele>919.1577148</ele>
        <time>2012-05-08T08:08:33Z</time>
      </trkpt>
      <trkpt lat="43.95166" lon="7.30835">
        <ele>919.6384277</ele>
        <time>2012-05-08T08:08:35Z</time>
      </trkpt>
      <trkpt lat="43.95166" lon="7.30867">
        <ele>922.5222168</ele>
        <time>2012-05-08T08:08:53Z</time>
      </trkpt>
      <trkpt lat="43.95181" lon="7.30895">
        <ele>924.9257813</ele>
        <time>2012-05-08T08:09:07Z</time>
      </trkpt>
      <trkpt lat="43.95192" lon="7.30921">
        <ele>927.8095703</ele>
        <time>2012-05-08T08:09:20Z</time>
      </trkpt>
      <trkpt lat="43.95196" lon="7.30953">
        <ele>931.1743164</ele>
        <time>2012-05-08T08:09:36Z</time>
      </trkpt>
      <trkpt lat="43.95198" lon="7.30958">
        <ele>931.6547852</ele>
        <time>2012-05-08T08:09:39Z</time>
      </trkpt>
      <trkpt lat="43.95199" lon="7.30964">
        <ele>932.135498</ele>
        <time>2012-05-08T08:09:42Z</time>
      </trkpt>
      <trkpt lat="43.95197" lon="7.30987">
        <ele>935.0195313</ele>
        <time>2012-05-08T08:09:53Z</time>
      </trkpt>
      <trkpt lat="43.95199" lon="7.31">
        <ele>937.9033203</ele>
        <time>2012-05-08T08:10:03Z</time>
      </trkpt>
      <trkpt lat="43.95201" lon="7.30997">
        <ele>938.3840332</ele>
        <time>2012-05-08T08:10:05Z</time>
      </trkpt>
      <trkpt lat="43.95219" lon="7.30975">
        <ele>941.7487793</ele>
        <time>2012-05-08T08:10:22Z</time>
      </trkpt>
      <trkpt lat="43.95223" lon="7.3097">
        <ele>943.1906738</ele>
        <time>2012-05-08T08:10:26Z</time>
      </trkpt>
      <trkpt lat="43.95236" lon="7.30952">
        <ele>945.5939941</ele>
        <time>2012-05-08T08:10:40Z</time>
      </trkpt>
      <trkpt lat="43.95256" lon="7.30936">
        <ele>949.439209</ele>
        <time>2012-05-08T08:10:57Z</time>
      </trkpt>
      <trkpt lat="43.95261" lon="7.30933">
        <ele>949.9199219</ele>
        <time>2012-05-08T08:11:16Z</time>
      </trkpt>
      <trkpt lat="43.95286" lon="7.30925">
        <ele>953.2844238</ele>
        <time>2012-05-08T08:11:34Z</time>
      </trkpt>
      <trkpt lat="43.95291" lon="7.3092">
        <ele>954.2458496</ele>
        <time>2012-05-08T08:11:38Z</time>
      </trkpt>
      <trkpt lat="43.95298" lon="7.30922">
        <ele>956.168457</ele>
        <time>2012-05-08T08:11:44Z</time>
      </trkpt>
      <trkpt lat="43.95295" lon="7.30927">
        <ele>956.6491699</ele>
        <time>2012-05-08T08:11:47Z</time>
      </trkpt>
      <trkpt lat="43.9528" lon="7.30959">
        <ele>960.4943848</ele>
        <time>2012-05-08T08:12:06Z</time>
      </trkpt>
      <trkpt lat="43.95269" lon="7.30987">
        <ele>963.8588867</ele>
        <time>2012-05-08T08:12:23Z</time>
      </trkpt>
      <trkpt lat="43.95267" lon="7.30995">
        <ele>964.8203125</ele>
        <time>2012-05-08T08:12:27Z</time>
      </trkpt>
      <trkpt lat="43.95264" lon="7.31001">
        <ele>965.3010254</ele>
        <time>2012-05-08T08:12:31Z</time>
      </trkpt>
      <trkpt lat="43.95251" lon="7.31022">
        <ele>967.7041016</ele>
        <time>2012-05-08T08:12:45Z</time>
      </trkpt>
      <trkpt lat="43.95239" lon="7.3105">
        <ele>969.6269531</ele>
        <time>2012-05-08T08:13:01Z</time>
      </trkpt>
      <trkpt lat="43.95245" lon="7.3106">
        <ele>971.5493164</ele>
        <time>2012-05-08T08:13:07Z</time>
      </trkpt>
      <trkpt lat="43.9525" lon="7.31059">
        <ele>972.0302734</ele>
        <time>2012-05-08T08:13:11Z</time>
      </trkpt>
      <trkpt lat="43.95253" lon="7.31059">
        <ele>973.4724121</ele>
        <time>2012-05-08T08:13:14Z</time>
      </trkpt>
      <trkpt lat="43.95259" lon="7.31058">
        <ele>974.4335938</ele>
        <time>2012-05-08T08:13:35Z</time>
      </trkpt>
      <trkpt lat="43.95258" lon="7.31061">
        <ele>973.9528809</ele>
        <time>2012-05-08T08:14:11Z</time>
      </trkpt>
      <trkpt lat="43.95258" lon="7.31062">
        <ele>973.9528809</ele>
        <time>2012-05-08T08:15:20Z</time>
      </trkpt>
      <trkpt lat="43.95258" lon="7.31063">
        <ele>973.9528809</ele>
        <time>2012-05-08T08:16:51Z</time>
      </trkpt>
      <trkpt lat="43.95258" lon="7.31064">
        <ele>973.4724121</ele>
        <time>2012-05-08T08:17:50Z</time>
      </trkpt>
      <trkpt lat="43.95256" lon="7.31065">
        <ele>973.9528809</ele>
        <time>2012-05-08T08:21:56Z</time>
      </trkpt>
      <trkpt lat="43.95248" lon="7.31065">
        <ele>971.5493164</ele>
        <time>2012-05-08T08:22:01Z</time>
      </trkpt>
      <trkpt lat="43.95218" lon="7.31087">
        <ele>966.7429199</ele>
        <time>2012-05-08T08:22:05Z</time>
      </trkpt>
      <trkpt lat="43.9521" lon="7.31101">
        <ele>965.3010254</ele>
        <time>2012-05-08T08:22:07Z</time>
      </trkpt>
      <trkpt lat="43.95198" lon="7.31115">
        <ele>964.3395996</ele>
        <time>2012-05-08T08:22:09Z</time>
      </trkpt>
      <trkpt lat="43.95186" lon="7.31132">
        <ele>962.8977051</ele>
        <time>2012-05-08T08:22:12Z</time>
      </trkpt>
      <trkpt lat="43.95181" lon="7.3114">
        <ele>961.4558105</ele>
        <time>2012-05-08T08:22:13Z</time>
      </trkpt>
      <trkpt lat="43.95162" lon="7.31147">
        <ele>960.4943848</ele>
        <time>2012-05-08T08:22:18Z</time>
      </trkpt>
      <trkpt lat="43.9514" lon="7.31195">
        <ele>958.0913086</ele>
        <time>2012-05-08T08:22:28Z</time>
      </trkpt>
      <trkpt lat="43.95135" lon="7.31209">
        <ele>956.6491699</ele>
        <time>2012-05-08T08:22:30Z</time>
      </trkpt>
      <trkpt lat="43.95132" lon="7.3122">
        <ele>953.7651367</ele>
        <time>2012-05-08T08:22:33Z</time>
      </trkpt>
      <trkpt lat="43.95132" lon="7.3122">
        <ele>951.8425293</ele>
        <time>2012-05-08T08:22:35Z</time>
      </trkpt>
      <trkpt lat="43.95118" lon="7.31237">
        <ele>949.439209</ele>
        <time>2012-05-08T08:22:37Z</time>
      </trkpt>
      <trkpt lat="43.9511" lon="7.31246">
        <ele>947.9973145</ele>
        <time>2012-05-08T08:22:39Z</time>
      </trkpt>
      <trkpt lat="43.95091" lon="7.31274">
        <ele>950.4006348</ele>
        <time>2012-05-08T08:22:46Z</time>
      </trkpt>
      <trkpt lat="43.9508" lon="7.31297">
        <ele>951.8425293</ele>
        <time>2012-05-08T08:22:58Z</time>
      </trkpt>
      <trkpt lat="43.95066" lon="7.31332">
        <ele>951.3618164</ele>
        <time>2012-05-08T08:24:53Z</time>
      </trkpt>
      <trkpt lat="43.95064" lon="7.31336">
        <ele>951.3618164</ele>
        <time>2012-05-08T08:24:54Z</time>
      </trkpt>
      <trkpt lat="43.95058" lon="7.31363">
        <ele>949.9199219</ele>
        <time>2012-05-08T08:24:58Z</time>
      </trkpt>
      <trkpt lat="43.95057" lon="7.31392">
        <ele>947.0358887</ele>
        <time>2012-05-08T08:25:01Z</time>
      </trkpt>
      <trkpt lat="43.95057" lon="7.31412">
        <ele>945.1132813</ele>
        <time>2012-05-08T08:25:03Z</time>
      </trkpt>
      <trkpt lat="43.95057" lon="7.31422">
        <ele>943.6713867</ele>
        <time>2012-05-08T08:25:04Z</time>
      </trkpt>
      <trkpt lat="43.9505" lon="7.31455">
        <ele>939.8259277</ele>
        <time>2012-05-08T08:25:07Z</time>
      </trkpt>
      <trkpt lat="43.95047" lon="7.31464">
        <ele>939.8259277</ele>
        <time>2012-05-08T08:25:08Z</time>
      </trkpt>
      <trkpt lat="43.95039" lon="7.31484">
        <ele>937.4226074</ele>
        <time>2012-05-08T08:25:10Z</time>
      </trkpt>
      <trkpt lat="43.95035" lon="7.31494">
        <ele>934.0581055</ele>
        <time>2012-05-08T08:25:11Z</time>
      </trkpt>
      <trkpt lat="43.95032" lon="7.31503">
        <ele>934.0581055</ele>
        <time>2012-05-08T08:25:12Z</time>
      </trkpt>
      <trkpt lat="43.95025" lon="7.31522">
        <ele>928.7709961</ele>
        <time>2012-05-08T08:25:14Z</time>
      </trkpt>
      <trkpt lat="43.95021" lon="7.31529">
        <ele>928.7709961</ele>
        <time>2012-05-08T08:25:15Z</time>
      </trkpt>
      <trkpt lat="43.95012" lon="7.31545">
        <ele>927.3291016</ele>
        <time>2012-05-08T08:25:17Z</time>
      </trkpt>
      <trkpt lat="43.95004" lon="7.31562">
        <ele>924.9257813</ele>
        <time>2012-05-08T08:25:19Z</time>
      </trkpt>
      <trkpt lat="43.94997" lon="7.31589">
        <ele>921.0803223</ele>
        <time>2012-05-08T08:25:22Z</time>
      </trkpt>
      <trkpt lat="43.94989" lon="7.31609">
        <ele>917.2351074</ele>
        <time>2012-05-08T08:25:24Z</time>
      </trkpt>
      <trkpt lat="43.94985" lon="7.31617">
        <ele>917.2351074</ele>
        <time>2012-05-08T08:25:25Z</time>
      </trkpt>
      <trkpt lat="43.94979" lon="7.31635">
        <ele>913.3898926</ele>
        <time>2012-05-08T08:25:27Z</time>
      </trkpt>
      <trkpt lat="43.94976" lon="7.31643">
        <ele>910.5058594</ele>
        <time>2012-05-08T08:25:28Z</time>
      </trkpt>
      <trkpt lat="43.94973" lon="7.31655">
        <ele>907.6218262</ele>
        <time>2012-05-08T08:25:30Z</time>
      </trkpt>
      <trkpt lat="43.94971" lon="7.31665">
        <ele>907.6218262</ele>
        <time>2012-05-08T08:25:31Z</time>
      </trkpt>
      <trkpt lat="43.94966" lon="7.31688">
        <ele>904.737793</ele>
        <time>2012-05-08T08:25:33Z</time>
      </trkpt>
      <trkpt lat="43.94964" lon="7.31706">
        <ele>901.373291</ele>
        <time>2012-05-08T08:25:35Z</time>
      </trkpt>
      <trkpt lat="43.94957" lon="7.31746">
        <ele>898.4892578</ele>
        <time>2012-05-08T08:25:39Z</time>
      </trkpt>
      <trkpt lat="43.94951" lon="7.31761">
        <ele>896.5668945</ele>
        <time>2012-05-08T08:25:41Z</time>
      </trkpt>
      <trkpt lat="43.94938" lon="7.31781">
        <ele>892.2409668</ele>
        <time>2012-05-08T08:25:44Z</time>
      </trkpt>
      <trkpt lat="43.94929" lon="7.31802">
        <ele>891.2792969</ele>
        <time>2012-05-08T08:25:47Z</time>
      </trkpt>
      <trkpt lat="43.94924" lon="7.31817">
        <ele>887.9147949</ele>
        <time>2012-05-08T08:25:49Z</time>
      </trkpt>
      <trkpt lat="43.94923" lon="7.31833">
        <ele>884.550293</ele>
        <time>2012-05-08T08:25:51Z</time>
      </trkpt>
      <trkpt lat="43.94912" lon="7.31854">
        <ele>883.1081543</ele>
        <time>2012-05-08T08:25:54Z</time>
      </trkpt>
      <trkpt lat="43.94909" lon="7.31865">
        <ele>881.185791</ele>
        <time>2012-05-08T08:25:56Z</time>
      </trkpt>
      <trkpt lat="43.94912" lon="7.31876">
        <ele>877.3405762</ele>
        <time>2012-05-08T08:25:58Z</time>
      </trkpt>
      <trkpt lat="43.94922" lon="7.31903">
        <ele>875.8981934</ele>
        <time>2012-05-08T08:26:01Z</time>
      </trkpt>
      <trkpt lat="43.94927" lon="7.31912">
        <ele>873.9755859</ele>
        <time>2012-05-08T08:26:02Z</time>
      </trkpt>
      <trkpt lat="43.94941" lon="7.3194">
        <ele>870.611084</ele>
        <time>2012-05-08T08:26:05Z</time>
      </trkpt>
      <trkpt lat="43.94948" lon="7.31954">
        <ele>868.6884766</ele>
        <time>2012-05-08T08:26:07Z</time>
      </trkpt>
      <trkpt lat="43.94954" lon="7.31969">
        <ele>867.246582</ele>
        <time>2012-05-08T08:26:10Z</time>
      </trkpt>
      <trkpt lat="43.94955" lon="7.31971">
        <ele>864.8432617</ele>
        <time>2012-05-08T08:26:13Z</time>
      </trkpt>
      <trkpt lat="43.94958" lon="7.32003">
        <ele>864.8432617</ele>
        <time>2012-05-08T08:27:42Z</time>
      </trkpt>
      <trkpt lat="43.94958" lon="7.32025">
        <ele>865.3239746</ele>
        <time>2012-05-08T08:27:45Z</time>
      </trkpt>
      <trkpt lat="43.94965" lon="7.32047">
        <ele>865.3239746</ele>
        <time>2012-05-08T08:27:49Z</time>
      </trkpt>
      <trkpt lat="43.94959" lon="7.32081">
        <ele>865.3239746</ele>
        <time>2012-05-08T08:27:56Z</time>
      </trkpt>
      <trkpt lat="43.94966" lon="7.32099">
        <ele>865.3239746</ele>
        <time>2012-05-08T08:27:59Z</time>
      </trkpt>
      <trkpt lat="43.94965" lon="7.3212">
        <ele>865.3239746</ele>
        <time>2012-05-08T08:28:03Z</time>
      </trkpt>
      <trkpt lat="43.94959" lon="7.32141">
        <ele>866.2851563</ele>
        <time>2012-05-08T08:28:08Z</time>
      </trkpt>
      <trkpt lat="43.94951" lon="7.32147">
        <ele>866.2851563</ele>
        <time>2012-05-08T08:28:10Z</time>
      </trkpt>
      <trkpt lat="43.94937" lon="7.32164">
        <ele>866.2851563</ele>
        <time>2012-05-08T08:28:14Z</time>
      </trkpt>
      <trkpt lat="43.94923" lon="7.3219">
        <ele>866.2851563</ele>
        <time>2012-05-08T08:28:19Z</time>
      </trkpt>
      <trkpt lat="43.94913" lon="7.32201">
        <ele>866.2851563</ele>
        <time>2012-05-08T08:28:22Z</time>
      </trkpt>
      <trkpt lat="43.94906" lon="7.32223">
        <ele>866.7658691</ele>
        <time>2012-05-08T08:28:26Z</time>
      </trkpt>
      <trkpt lat="43.94904" lon="7.32234">
        <ele>866.7658691</ele>
        <time>2012-05-08T08:28:28Z</time>
      </trkpt>
      <trkpt lat="43.94902" lon="7.32259">
        <ele>867.246582</ele>
        <time>2012-05-08T08:28:32Z</time>
      </trkpt>
      <trkpt lat="43.94898" lon="7.32277">
        <ele>866.7658691</ele>
        <time>2012-05-08T08:28:36Z</time>
      </trkpt>
      <trkpt lat="43.94896" lon="7.323">
        <ele>867.246582</ele>
        <time>2012-05-08T08:28:41Z</time>
      </trkpt>
      <trkpt lat="43.94895" lon="7.32307">
        <ele>866.7658691</ele>
        <time>2012-05-08T08:28:43Z</time>
      </trkpt>
      <trkpt lat="43.94886" lon="7.32328">
        <ele>867.246582</ele>
        <time>2012-05-08T08:28:58Z</time>
      </trkpt>
      <trkpt lat="43.94886" lon="7.32328">
        <ele>867.7270508</ele>
        <time>2012-05-08T08:29:04Z</time>
      </trkpt>
      <trkpt lat="43.94888" lon="7.32347">
        <ele>867.7270508</ele>
        <time>2012-05-08T08:29:08Z</time>
      </trkpt>
      <trkpt lat="43.94886" lon="7.32356">
        <ele>867.246582</ele>
        <time>2012-05-08T08:29:11Z</time>
      </trkpt>
      <trkpt lat="43.94896" lon="7.32363">
        <ele>868.2077637</ele>
        <time>2012-05-08T08:29:18Z</time>
      </trkpt>
      <trkpt lat="43.94931" lon="7.32384">
        <ele>867.7270508</ele>
        <time>2012-05-08T08:29:35Z</time>
      </trkpt>
      <trkpt lat="43.94969" lon="7.32405">
        <ele>867.246582</ele>
        <time>2012-05-08T08:29:50Z</time>
      </trkpt>
      <trkpt lat="43.94974" lon="7.32435">
        <ele>867.7270508</ele>
        <time>2012-05-08T08:29:59Z</time>
      </trkpt>
      <trkpt lat="43.94968" lon="7.32459">
        <ele>867.246582</ele>
        <time>2012-05-08T08:30:05Z</time>
      </trkpt>
      <trkpt lat="43.94944" lon="7.32487">
        <ele>867.7270508</ele>
        <time>2012-05-08T08:30:13Z</time>
      </trkpt>
      <trkpt lat="43.94941" lon="7.32499">
        <ele>867.7270508</ele>
        <time>2012-05-08T08:30:16Z</time>
      </trkpt>
      <trkpt lat="43.94941" lon="7.32523">
        <ele>868.6884766</ele>
        <time>2012-05-08T08:30:22Z</time>
      </trkpt>
      <trkpt lat="43.94943" lon="7.3254">
        <ele>867.7270508</ele>
        <time>2012-05-08T08:30:26Z</time>
      </trkpt>
      <trkpt lat="43.94945" lon="7.32549">
        <ele>867.7270508</ele>
        <time>2012-05-08T08:30:28Z</time>
      </trkpt>
      <trkpt lat="43.94952" lon="7.32557">
        <ele>867.7270508</ele>
        <time>2012-05-08T08:30:31Z</time>
      </trkpt>
      <trkpt lat="43.94954" lon="7.32578">
        <ele>868.2077637</ele>
        <time>2012-05-08T08:30:36Z</time>
      </trkpt>
      <trkpt lat="43.94949" lon="7.32597">
        <ele>868.2077637</ele>
        <time>2012-05-08T08:30:41Z</time>
      </trkpt>
      <trkpt lat="43.94963" lon="7.32633">
        <ele>868.6884766</ele>
        <time>2012-05-08T08:30:52Z</time>
      </trkpt>
      <trkpt lat="43.94963" lon="7.32637">
        <ele>868.6884766</ele>
        <time>2012-05-08T08:30:53Z</time>
      </trkpt>
      <trkpt lat="43.94971" lon="7.32644">
        <ele>868.6884766</ele>
        <time>2012-05-08T08:30:57Z</time>
      </trkpt>
      <trkpt lat="43.9498" lon="7.32653">
        <ele>868.6884766</ele>
        <time>2012-05-08T08:31:01Z</time>
      </trkpt>
      <trkpt lat="43.95009" lon="7.32676">
        <ele>868.6884766</ele>
        <time>2012-05-08T08:31:12Z</time>
      </trkpt>
      <trkpt lat="43.95013" lon="7.32714">
        <ele>868.6884766</ele>
        <time>2012-05-08T08:31:20Z</time>
      </trkpt>
      <trkpt lat="43.95014" lon="7.32743">
        <ele>868.2077637</ele>
        <time>2012-05-08T08:31:25Z</time>
      </trkpt>
      <trkpt lat="43.95034" lon="7.32773">
        <ele>869.1691895</ele>
        <time>2012-05-08T08:31:34Z</time>
      </trkpt>
      <trkpt lat="43.95036" lon="7.32835">
        <ele>869.6499023</ele>
        <time>2012-05-08T08:31:46Z</time>
      </trkpt>
      <trkpt lat="43.95026" lon="7.32849">
        <ele>870.1303711</ele>
        <time>2012-05-08T08:31:50Z</time>
      </trkpt>
      <trkpt lat="43.95021" lon="7.32852">
        <ele>870.1303711</ele>
        <time>2012-05-08T08:31:52Z</time>
      </trkpt>
      <trkpt lat="43.94987" lon="7.32875">
        <ele>869.6499023</ele>
        <time>2012-05-08T08:32:02Z</time>
      </trkpt>
      <trkpt lat="43.94957" lon="7.32918">
        <ele>870.611084</ele>
        <time>2012-05-08T08:32:13Z</time>
      </trkpt>
      <trkpt lat="43.94953" lon="7.32925">
        <ele>870.611084</ele>
        <time>2012-05-08T08:32:15Z</time>
      </trkpt>
      <trkpt lat="43.94939" lon="7.32941">
        <ele>871.0917969</ele>
        <time>2012-05-08T08:32:27Z</time>
      </trkpt>
      <trkpt lat="43.94902" lon="7.32982">
        <ele>874.4562988</ele>
        <time>2012-05-08T08:32:41Z</time>
      </trkpt>
      <trkpt lat="43.94896" lon="7.3301">
        <ele>876.3791504</ele>
        <time>2012-05-08T08:32:54Z</time>
      </trkpt>
      <trkpt lat="43.94893" lon="7.33023">
        <ele>878.7824707</ele>
        <time>2012-05-08T08:33:00Z</time>
      </trkpt>
      <trkpt lat="43.94887" lon="7.3304">
        <ele>880.7050781</ele>
        <time>2012-05-08T08:33:08Z</time>
      </trkpt>
      <trkpt lat="43.94861" lon="7.33063">
        <ele>882.6276855</ele>
        <time>2012-05-08T08:33:25Z</time>
      </trkpt>
      <trkpt lat="43.94854" lon="7.33066">
        <ele>882.6276855</ele>
        <time>2012-05-08T08:33:29Z</time>
      </trkpt>
      <trkpt lat="43.94845" lon="7.33077">
        <ele>882.6276855</ele>
        <time>2012-05-08T08:33:34Z</time>
      </trkpt>
      <trkpt lat="43.9483" lon="7.33093">
        <ele>884.550293</ele>
        <time>2012-05-08T08:33:42Z</time>
      </trkpt>
      <trkpt lat="43.9483" lon="7.33095">
        <ele>885.0310059</ele>
        <time>2012-05-08T08:33:43Z</time>
      </trkpt>
      <trkpt lat="43.94829" lon="7.331">
        <ele>885.5114746</ele>
        <time>2012-05-08T08:33:45Z</time>
      </trkpt>
      <trkpt lat="43.94821" lon="7.33122">
        <ele>888.3955078</ele>
        <time>2012-05-08T08:33:57Z</time>
      </trkpt>
      <trkpt lat="43.94814" lon="7.33137">
        <ele>888.3955078</ele>
        <time>2012-05-08T08:34:04Z</time>
      </trkpt>
      <trkpt lat="43.948" lon="7.33168">
        <ele>889.8374023</ele>
        <time>2012-05-08T08:34:19Z</time>
      </trkpt>
      <trkpt lat="43.94794" lon="7.33174">
        <ele>891.7600098</ele>
        <time>2012-05-08T08:34:25Z</time>
      </trkpt>
      <trkpt lat="43.94792" lon="7.33194">
        <ele>893.2021484</ele>
        <time>2012-05-08T08:34:32Z</time>
      </trkpt>
      <trkpt lat="43.94792" lon="7.33194">
        <ele>894.1635742</ele>
        <time>2012-05-08T08:36:11Z</time>
      </trkpt>
      <trkpt lat="43.94788" lon="7.33188">
        <ele>893.2021484</ele>
        <time>2012-05-08T08:36:14Z</time>
      </trkpt>
      <trkpt lat="43.94787" lon="7.33185">
        <ele>891.2792969</ele>
        <time>2012-05-08T08:36:17Z</time>
      </trkpt>
      <trkpt lat="43.94781" lon="7.33212">
        <ele>888.3955078</ele>
        <time>2012-05-08T08:36:22Z</time>
      </trkpt>
      <trkpt lat="43.94782" lon="7.33217">
        <ele>886.4729004</ele>
        <time>2012-05-08T08:36:23Z</time>
      </trkpt>
      <trkpt lat="43.94789" lon="7.33238">
        <ele>884.550293</ele>
        <time>2012-05-08T08:36:26Z</time>
      </trkpt>
      <trkpt lat="43.94792" lon="7.3325">
        <ele>882.1469727</ele>
        <time>2012-05-08T08:36:28Z</time>
      </trkpt>
      <trkpt lat="43.94794" lon="7.33268">
        <ele>877.3405762</ele>
        <time>2012-05-08T08:36:31Z</time>
      </trkpt>
      <trkpt lat="43.94795" lon="7.33275">
        <ele>875.8981934</ele>
        <time>2012-05-08T08:36:32Z</time>
      </trkpt>
      <trkpt lat="43.94795" lon="7.33291">
        <ele>874.4562988</ele>
        <time>2012-05-08T08:36:34Z</time>
      </trkpt>
      <trkpt lat="43.94805" lon="7.33314">
        <ele>872.5336914</ele>
        <time>2012-05-08T08:36:38Z</time>
      </trkpt>
      <trkpt lat="43.94811" lon="7.33327">
        <ele>872.0529785</ele>
        <time>2012-05-08T08:36:40Z</time>
      </trkpt>
      <trkpt lat="43.94812" lon="7.33335">
        <ele>870.611084</ele>
        <time>2012-05-08T08:36:42Z</time>
      </trkpt>
      <trkpt lat="43.94809" lon="7.33338">
        <ele>870.611084</ele>
        <time>2012-05-08T08:36:44Z</time>
      </trkpt>
      <trkpt lat="43.94803" lon="7.33345">
        <ele>869.6499023</ele>
        <time>2012-05-08T08:36:56Z</time>
      </trkpt>
      <trkpt lat="43.94803" lon="7.33346">
        <ele>870.1303711</ele>
        <time>2012-05-08T08:37:35Z</time>
      </trkpt>
      <trkpt lat="43.94803" lon="7.33365">
        <ele>868.2077637</ele>
        <time>2012-05-08T08:37:38Z</time>
      </trkpt>
      <trkpt lat="43.94806" lon="7.33372">
        <ele>866.7658691</ele>
        <time>2012-05-08T08:37:39Z</time>
      </trkpt>
      <trkpt lat="43.94814" lon="7.33386">
        <ele>864.8432617</ele>
        <time>2012-05-08T08:37:41Z</time>
      </trkpt>
      <trkpt lat="43.94814" lon="7.33397">
        <ele>863.8818359</ele>
        <time>2012-05-08T08:37:43Z</time>
      </trkpt>
      <trkpt lat="43.94814" lon="7.33406">
        <ele>863.4013672</ele>
        <time>2012-05-08T08:37:45Z</time>
      </trkpt>
      <trkpt lat="43.94806" lon="7.33407">
        <ele>864.3625488</ele>
        <time>2012-05-08T08:37:50Z</time>
      </trkpt>
      <trkpt lat="43.948" lon="7.33405">
        <ele>865.3239746</ele>
        <time>2012-05-08T08:37:53Z</time>
      </trkpt>
      <trkpt lat="43.94787" lon="7.3341">
        <ele>866.2851563</ele>
        <time>2012-05-08T08:37:58Z</time>
      </trkpt>
      <trkpt lat="43.9475" lon="7.33394">
        <ele>868.6884766</ele>
        <time>2012-05-08T08:38:13Z</time>
      </trkpt>
      <trkpt lat="43.94707" lon="7.33382">
        <ele>870.1303711</ele>
        <time>2012-05-08T08:38:32Z</time>
      </trkpt>
      <trkpt lat="43.94699" lon="7.33393">
        <ele>868.2077637</ele>
        <time>2012-05-08T08:38:36Z</time>
      </trkpt>
      <trkpt lat="43.94696" lon="7.33399">
        <ele>868.2077637</ele>
        <time>2012-05-08T08:38:43Z</time>
      </trkpt>
      <trkpt lat="43.94681" lon="7.33406">
        <ele>867.246582</ele>
        <time>2012-05-08T08:38:47Z</time>
      </trkpt>
      <trkpt lat="43.94663" lon="7.33413">
        <ele>865.8046875</ele>
        <time>2012-05-08T08:38:52Z</time>
      </trkpt>
      <trkpt lat="43.94661" lon="7.33418">
        <ele>865.3239746</ele>
        <time>2012-05-08T08:38:53Z</time>
      </trkpt>
      <trkpt lat="43.94663" lon="7.3343">
        <ele>862.9206543</ele>
        <time>2012-05-08T08:38:57Z</time>
      </trkpt>
      <trkpt lat="43.94669" lon="7.3344">
        <ele>860.9980469</ele>
        <time>2012-05-08T08:38:59Z</time>
      </trkpt>
      <trkpt lat="43.94672" lon="7.33446">
        <ele>859.5559082</ele>
        <time>2012-05-08T08:39:00Z</time>
      </trkpt>
      <trkpt lat="43.94689" lon="7.33464">
        <ele>858.1140137</ele>
        <time>2012-05-08T08:39:04Z</time>
      </trkpt>
      <trkpt lat="43.94701" lon="7.33496">
        <ele>856.1911621</ele>
        <time>2012-05-08T08:39:12Z</time>
      </trkpt>
      <trkpt lat="43.94702" lon="7.33506">
        <ele>855.2299805</ele>
        <time>2012-05-08T08:39:14Z</time>
      </trkpt>
      <trkpt lat="43.94695" lon="7.33524">
        <ele>851.8654785</ele>
        <time>2012-05-08T08:39:19Z</time>
      </trkpt>
      <trkpt lat="43.94689" lon="7.33536">
        <ele>851.3847656</ele>
        <time>2012-05-08T08:39:22Z</time>
      </trkpt>
      <trkpt lat="43.94664" lon="7.33531">
        <ele>855.7106934</ele>
        <time>2012-05-08T08:39:30Z</time>
      </trkpt>
      <trkpt lat="43.94664" lon="7.33531">
        <ele>855.7106934</ele>
        <time>2012-05-08T08:39:31Z</time>
      </trkpt>
      <trkpt lat="43.94664" lon="7.33531">
        <ele>856.1911621</ele>
        <time>2012-05-08T08:39:40Z</time>
      </trkpt>
      <trkpt lat="43.94659" lon="7.33532">
        <ele>855.7106934</ele>
        <time>2012-05-08T08:39:44Z</time>
      </trkpt>
      <trkpt lat="43.94652" lon="7.33545">
        <ele>853.7880859</ele>
        <time>2012-05-08T08:39:48Z</time>
      </trkpt>
      <trkpt lat="43.94646" lon="7.3356">
        <ele>850.9040527</ele>
        <time>2012-05-08T08:39:52Z</time>
      </trkpt>
      <trkpt lat="43.94645" lon="7.33578">
        <ele>848.5007324</ele>
        <time>2012-05-08T08:39:55Z</time>
      </trkpt>
      <trkpt lat="43.94647" lon="7.33583">
        <ele>848.5007324</ele>
        <time>2012-05-08T08:39:56Z</time>
      </trkpt>
      <trkpt lat="43.94646" lon="7.33603">
        <ele>847.5395508</ele>
        <time>2012-05-08T08:40:00Z</time>
      </trkpt>
      <trkpt lat="43.94641" lon="7.33607">
        <ele>847.0588379</ele>
        <time>2012-05-08T08:40:02Z</time>
      </trkpt>
      <trkpt lat="43.94629" lon="7.33605">
        <ele>850.423584</ele>
        <time>2012-05-08T08:40:11Z</time>
      </trkpt>
      <trkpt lat="43.9462" lon="7.33598">
        <ele>852.3459473</ele>
        <time>2012-05-08T08:40:16Z</time>
      </trkpt>
      <trkpt lat="43.94615" lon="7.33597">
        <ele>853.307373</ele>
        <time>2012-05-08T08:40:18Z</time>
      </trkpt>
      <trkpt lat="43.94593" lon="7.33579">
        <ele>852.3459473</ele>
        <time>2012-05-08T08:40:29Z</time>
      </trkpt>
      <trkpt lat="43.94574" lon="7.33562">
        <ele>854.2687988</ele>
        <time>2012-05-08T08:40:40Z</time>
      </trkpt>
      <trkpt lat="43.94561" lon="7.33559">
        <ele>855.2299805</ele>
        <time>2012-05-08T08:40:47Z</time>
      </trkpt>
      <trkpt lat="43.94557" lon="7.33558">
        <ele>854.7492676</ele>
        <time>2012-05-08T08:40:50Z</time>
      </trkpt>
      <trkpt lat="43.94549" lon="7.33582">
        <ele>856.671875</ele>
        <time>2012-05-08T08:40:53Z</time>
      </trkpt>
      <trkpt lat="43.94545" lon="7.33586">
        <ele>857.1525879</ele>
        <time>2012-05-08T08:40:57Z</time>
      </trkpt>
      <trkpt lat="43.94543" lon="7.33588">
        <ele>857.6333008</ele>
        <time>2012-05-08T08:40:59Z</time>
      </trkpt>
      <trkpt lat="43.94541" lon="7.33591">
        <ele>857.6333008</ele>
        <time>2012-05-08T08:41:28Z</time>
      </trkpt>
      <trkpt lat="43.94523" lon="7.33604">
        <ele>854.2687988</ele>
        <time>2012-05-08T08:42:21Z</time>
      </trkpt>
      <trkpt lat="43.94521" lon="7.33606">
        <ele>853.7880859</ele>
        <time>2012-05-08T08:42:22Z</time>
      </trkpt>
      <trkpt lat="43.94517" lon="7.33609">
        <ele>852.3459473</ele>
        <time>2012-05-08T08:42:25Z</time>
      </trkpt>
      <trkpt lat="43.94515" lon="7.33611">
        <ele>851.8654785</ele>
        <time>2012-05-08T08:42:27Z</time>
      </trkpt>
      <trkpt lat="43.94512" lon="7.33607">
        <ele>848.5007324</ele>
        <time>2012-05-08T08:42:34Z</time>
      </trkpt>
      <trkpt lat="43.94508" lon="7.3361">
        <ele>848.0202637</ele>
        <time>2012-05-08T08:42:37Z</time>
      </trkpt>
      <trkpt lat="43.94505" lon="7.33616">
        <ele>847.5395508</ele>
        <time>2012-05-08T08:42:39Z</time>
      </trkpt>
      <trkpt lat="43.94502" lon="7.33623">
        <ele>846.0976563</ele>
        <time>2012-05-08T08:42:44Z</time>
      </trkpt>
      <trkpt lat="43.94501" lon="7.33619">
        <ele>847.0588379</ele>
        <time>2012-05-08T08:43:19Z</time>
      </trkpt>
      <trkpt lat="43.94494" lon="7.33602">
        <ele>845.6169434</ele>
        <time>2012-05-08T08:43:27Z</time>
      </trkpt>
      <trkpt lat="43.94488" lon="7.33579">
        <ele>845.1362305</ele>
        <time>2012-05-08T08:43:33Z</time>
      </trkpt>
      <trkpt lat="43.9447" lon="7.33539">
        <ele>846.5783691</ele>
        <time>2012-05-08T08:43:43Z</time>
      </trkpt>
      <trkpt lat="43.94462" lon="7.33516">
        <ele>846.5783691</ele>
        <time>2012-05-08T08:43:57Z</time>
      </trkpt>
      <trkpt lat="43.94461" lon="7.33514">
        <ele>846.5783691</ele>
        <time>2012-05-08T08:44:14Z</time>
      </trkpt>
      <trkpt lat="43.94433" lon="7.33499">
        <ele>845.6169434</ele>
        <time>2012-05-08T08:44:27Z</time>
      </trkpt>
      <trkpt lat="43.9443" lon="7.33497">
        <ele>845.6169434</ele>
        <time>2012-05-08T08:44:28Z</time>
      </trkpt>
      <trkpt lat="43.94418" lon="7.33478">
        <ele>846.0976563</ele>
        <time>2012-05-08T08:44:34Z</time>
      </trkpt>
      <trkpt lat="43.94409" lon="7.33442">
        <ele>848.0202637</ele>
        <time>2012-05-08T08:44:43Z</time>
      </trkpt>
      <trkpt lat="43.94401" lon="7.33434">
        <ele>849.4621582</ele>
        <time>2012-05-08T08:44:48Z</time>
      </trkpt>
      <trkpt lat="43.94392" lon="7.33432">
        <ele>850.9040527</ele>
        <time>2012-05-08T08:44:54Z</time>
      </trkpt>
      <trkpt lat="43.9437" lon="7.33429">
        <ele>854.2687988</ele>
        <time>2012-05-08T08:45:08Z</time>
      </trkpt>
      <trkpt lat="43.94369" lon="7.33429">
        <ele>854.2687988</ele>
        <time>2012-05-08T08:45:09Z</time>
      </trkpt>
      <trkpt lat="43.94358" lon="7.33436">
        <ele>855.7106934</ele>
        <time>2012-05-08T08:45:34Z</time>
      </trkpt>
      <trkpt lat="43.94343" lon="7.33446">
        <ele>854.2687988</ele>
        <time>2012-05-08T08:45:40Z</time>
      </trkpt>
      <trkpt lat="43.9433" lon="7.33446">
        <ele>853.7880859</ele>
        <time>2012-05-08T08:45:43Z</time>
      </trkpt>
      <trkpt lat="43.94319" lon="7.33458">
        <ele>853.7880859</ele>
        <time>2012-05-08T08:45:46Z</time>
      </trkpt>
      <trkpt lat="43.94302" lon="7.33464">
        <ele>853.307373</ele>
        <time>2012-05-08T08:45:50Z</time>
      </trkpt>
      <trkpt lat="43.94289" lon="7.33489">
        <ele>851.3847656</ele>
        <time>2012-05-08T08:45:54Z</time>
      </trkpt>
      <trkpt lat="43.94269" lon="7.33503">
        <ele>850.9040527</ele>
        <time>2012-05-08T08:46:00Z</time>
      </trkpt>
      <trkpt lat="43.94255" lon="7.33513">
        <ele>850.9040527</ele>
        <time>2012-05-08T08:46:03Z</time>
      </trkpt>
      <trkpt lat="43.94243" lon="7.33522">
        <ele>850.423584</ele>
        <time>2012-05-08T08:46:07Z</time>
      </trkpt>
      <trkpt lat="43.94229" lon="7.3352">
        <ele>849.9428711</ele>
        <time>2012-05-08T08:46:10Z</time>
      </trkpt>
      <trkpt lat="43.94207" lon="7.33544">
        <ele>848.0202637</ele>
        <time>2012-05-08T08:46:16Z</time>
      </trkpt>
      <trkpt lat="43.94188" lon="7.33569">
        <ele>848.0202637</ele>
        <time>2012-05-08T08:46:22Z</time>
      </trkpt>
      <trkpt lat="43.94175" lon="7.33574">
        <ele>846.5783691</ele>
        <time>2012-05-08T08:46:25Z</time>
      </trkpt>
      <trkpt lat="43.94169" lon="7.33589">
        <ele>845.1362305</ele>
        <time>2012-05-08T08:46:28Z</time>
      </trkpt>
      <trkpt lat="43.94165" lon="7.33603">
        <ele>843.6940918</ele>
        <time>2012-05-08T08:46:30Z</time>
      </trkpt>
      <trkpt lat="43.94161" lon="7.33615">
        <ele>843.6940918</ele>
        <time>2012-05-08T08:46:32Z</time>
      </trkpt>
      <trkpt lat="43.94158" lon="7.3363">
        <ele>842.2521973</ele>
        <time>2012-05-08T08:46:35Z</time>
      </trkpt>
      <trkpt lat="43.94157" lon="7.33635">
        <ele>842.7329102</ele>
        <time>2012-05-08T08:46:36Z</time>
      </trkpt>
      <trkpt lat="43.94156" lon="7.33647">
        <ele>842.2521973</ele>
        <time>2012-05-08T08:46:38Z</time>
      </trkpt>
      <trkpt lat="43.94162" lon="7.33694">
        <ele>838.4069824</ele>
        <time>2012-05-08T08:46:49Z</time>
      </trkpt>
      <trkpt lat="43.94169" lon="7.33704">
        <ele>837.4455566</ele>
        <time>2012-05-08T08:46:51Z</time>
      </trkpt>
      <trkpt lat="43.94181" lon="7.3372">
        <ele>835.0424805</ele>
        <time>2012-05-08T08:46:54Z</time>
      </trkpt>
      <trkpt lat="43.94179" lon="7.33742">
        <ele>834.5617676</ele>
        <time>2012-05-08T08:46:58Z</time>
      </trkpt>
      <trkpt lat="43.9417" lon="7.33767">
        <ele>834.5617676</ele>
        <time>2012-05-08T08:47:03Z</time>
      </trkpt>
      <trkpt lat="43.94165" lon="7.3379">
        <ele>832.1584473</ele>
        <time>2012-05-08T08:47:06Z</time>
      </trkpt>
      <trkpt lat="43.94161" lon="7.33802">
        <ele>831.6777344</ele>
        <time>2012-05-08T08:47:08Z</time>
      </trkpt>
      <trkpt lat="43.94155" lon="7.3381">
        <ele>831.1972656</ele>
        <time>2012-05-08T08:47:10Z</time>
      </trkpt>
      <trkpt lat="43.94144" lon="7.33821">
        <ele>831.6777344</ele>
        <time>2012-05-08T08:47:14Z</time>
      </trkpt>
      <trkpt lat="43.94108" lon="7.33824">
        <ele>834.5617676</ele>
        <time>2012-05-08T08:47:30Z</time>
      </trkpt>
      <trkpt lat="43.9409" lon="7.33823">
        <ele>834.0810547</ele>
        <time>2012-05-08T08:47:35Z</time>
      </trkpt>
      <trkpt lat="43.94077" lon="7.33829">
        <ele>832.6391602</ele>
        <time>2012-05-08T08:47:38Z</time>
      </trkpt>
      <trkpt lat="43.9407" lon="7.33839">
        <ele>831.1972656</ele>
        <time>2012-05-08T08:47:40Z</time>
      </trkpt>
      <trkpt lat="43.94068" lon="7.33862">
        <ele>829.755127</ele>
        <time>2012-05-08T08:47:44Z</time>
      </trkpt>
      <trkpt lat="43.94073" lon="7.33885">
        <ele>827.8322754</ele>
        <time>2012-05-08T08:47:47Z</time>
      </trkpt>
      <trkpt lat="43.94077" lon="7.33892">
        <ele>826.8710938</ele>
        <time>2012-05-08T08:47:48Z</time>
      </trkpt>
      <trkpt lat="43.94082" lon="7.33911">
        <ele>824.4677734</ele>
        <time>2012-05-08T08:47:52Z</time>
      </trkpt>
      <trkpt lat="43.94083" lon="7.3393">
        <ele>821.1032715</ele>
        <time>2012-05-08T08:47:55Z</time>
      </trkpt>
      <trkpt lat="43.94083" lon="7.33938">
        <ele>821.1032715</ele>
        <time>2012-05-08T08:47:56Z</time>
      </trkpt>
      <trkpt lat="43.94084" lon="7.33953">
        <ele>818.2192383</ele>
        <time>2012-05-08T08:47:59Z</time>
      </trkpt>
      <trkpt lat="43.94083" lon="7.33954">
        <ele>817.7385254</ele>
        <time>2012-05-08T08:48:00Z</time>
      </trkpt>
      <trkpt lat="43.94082" lon="7.33957">
        <ele>817.7385254</ele>
        <time>2012-05-08T08:48:10Z</time>
      </trkpt>
      <trkpt lat="43.94082" lon="7.33957">
        <ele>818.2192383</ele>
        <time>2012-05-08T08:48:14Z</time>
      </trkpt>
      <trkpt lat="43.94068" lon="7.33955">
        <ele>820.1418457</ele>
        <time>2012-05-08T08:48:27Z</time>
      </trkpt>
      <trkpt lat="43.94068" lon="7.33955">
        <ele>821.1032715</ele>
        <time>2012-05-08T08:48:34Z</time>
      </trkpt>
      <trkpt lat="43.94054" lon="7.33952">
        <ele>821.1032715</ele>
        <time>2012-05-08T08:48:36Z</time>
      </trkpt>
      <trkpt lat="43.94054" lon="7.33952">
        <ele>822.0644531</ele>
        <time>2012-05-08T08:48:39Z</time>
      </trkpt>
      <trkpt lat="43.94048" lon="7.33955">
        <ele>823.0258789</ele>
        <time>2012-05-08T08:48:49Z</time>
      </trkpt>
      <trkpt lat="43.9404" lon="7.33962">
        <ele>824.4677734</ele>
        <time>2012-05-08T08:48:59Z</time>
      </trkpt>
      <trkpt lat="43.94032" lon="7.33958">
        <ele>825.4289551</ele>
        <time>2012-05-08T08:49:03Z</time>
      </trkpt>
      <trkpt lat="43.94027" lon="7.33954">
        <ele>825.909668</ele>
        <time>2012-05-08T08:49:05Z</time>
      </trkpt>
      <trkpt lat="43.94013" lon="7.33947">
        <ele>827.3518066</ele>
        <time>2012-05-08T08:49:22Z</time>
      </trkpt>
      <trkpt lat="43.93996" lon="7.33935">
        <ele>829.755127</ele>
        <time>2012-05-08T08:49:37Z</time>
      </trkpt>
      <trkpt lat="43.93979" lon="7.33927">
        <ele>833.1196289</ele>
        <time>2012-05-08T08:49:51Z</time>
      </trkpt>
      <trkpt lat="43.93964" lon="7.33923">
        <ele>836.484375</ele>
        <time>2012-05-08T08:50:02Z</time>
      </trkpt>
      <trkpt lat="43.93941" lon="7.33907">
        <ele>837.4455566</ele>
        <time>2012-05-08T08:50:17Z</time>
      </trkpt>
      <trkpt lat="43.93916" lon="7.3391">
        <ele>839.848877</ele>
        <time>2012-05-08T08:50:35Z</time>
      </trkpt>
      <trkpt lat="43.939" lon="7.33942">
        <ele>838.4069824</ele>
        <time>2012-05-08T08:50:46Z</time>
      </trkpt>
      <trkpt lat="43.93895" lon="7.33951">
        <ele>837.9262695</ele>
        <time>2012-05-08T08:50:48Z</time>
      </trkpt>
      <trkpt lat="43.9389" lon="7.33958">
        <ele>837.4455566</ele>
        <time>2012-05-08T08:50:50Z</time>
      </trkpt>
      <trkpt lat="43.93877" lon="7.33978">
        <ele>837.4455566</ele>
        <time>2012-05-08T08:50:55Z</time>
      </trkpt>
      <trkpt lat="43.93868" lon="7.34">
        <ele>836.484375</ele>
        <time>2012-05-08T08:51:00Z</time>
      </trkpt>
      <trkpt lat="43.93863" lon="7.34004">
        <ele>836.9648438</ele>
        <time>2012-05-08T08:51:02Z</time>
      </trkpt>
      <trkpt lat="43.93859" lon="7.34024">
        <ele>836.484375</ele>
        <time>2012-05-08T08:51:06Z</time>
      </trkpt>
      <trkpt lat="43.93851" lon="7.34039">
        <ele>836.0036621</ele>
        <time>2012-05-08T08:51:10Z</time>
      </trkpt>
      <trkpt lat="43.93844" lon="7.34048">
        <ele>836.484375</ele>
        <time>2012-05-08T08:51:13Z</time>
      </trkpt>
      <trkpt lat="43.93818" lon="7.34075">
        <ele>836.0036621</ele>
        <time>2012-05-08T08:51:21Z</time>
      </trkpt>
      <trkpt lat="43.93814" lon="7.34093">
        <ele>835.5229492</ele>
        <time>2012-05-08T08:51:24Z</time>
      </trkpt>
      <trkpt lat="43.93817" lon="7.34122">
        <ele>835.5229492</ele>
        <time>2012-05-08T08:51:28Z</time>
      </trkpt>
      <trkpt lat="43.93815" lon="7.34144">
        <ele>835.0424805</ele>
        <time>2012-05-08T08:51:32Z</time>
      </trkpt>
      <trkpt lat="43.93809" lon="7.34158">
        <ele>835.5229492</ele>
        <time>2012-05-08T08:51:35Z</time>
      </trkpt>
      <trkpt lat="43.93794" lon="7.34164">
        <ele>835.0424805</ele>
        <time>2012-05-08T08:51:38Z</time>
      </trkpt>
      <trkpt lat="43.9377" lon="7.34211">
        <ele>831.1972656</ele>
        <time>2012-05-08T08:51:46Z</time>
      </trkpt>
      <trkpt lat="43.93765" lon="7.34226">
        <ele>830.2358398</ele>
        <time>2012-05-08T08:51:48Z</time>
      </trkpt>
      <trkpt lat="43.93756" lon="7.34234">
        <ele>828.3132324</ele>
        <time>2012-05-08T08:51:52Z</time>
      </trkpt>
      <trkpt lat="43.9375" lon="7.34231">
        <ele>826.8710938</ele>
        <time>2012-05-08T08:51:55Z</time>
      </trkpt>
      <trkpt lat="43.93748" lon="7.34229">
        <ele>826.8710938</ele>
        <time>2012-05-08T08:51:59Z</time>
      </trkpt>
      <trkpt lat="43.93743" lon="7.34225">
        <ele>825.4289551</ele>
        <time>2012-05-08T08:52:02Z</time>
      </trkpt>
      <trkpt lat="43.93743" lon="7.34225">
        <ele>825.4289551</ele>
        <time>2012-05-08T08:52:03Z</time>
      </trkpt>
      <trkpt lat="43.93739" lon="7.34223">
        <ele>823.9870605</ele>
        <time>2012-05-08T08:52:21Z</time>
      </trkpt>
      <trkpt lat="43.93739" lon="7.34223">
        <ele>824.4677734</ele>
        <time>2012-05-08T08:53:45Z</time>
      </trkpt>
      <trkpt lat="43.93733" lon="7.34219">
        <ele>821.1032715</ele>
        <time>2012-05-08T08:54:01Z</time>
      </trkpt>
      <trkpt lat="43.93733" lon="7.34219">
        <ele>819.661377</ele>
        <time>2012-05-08T08:54:18Z</time>
      </trkpt>
      <trkpt lat="43.93733" lon="7.34219">
        <ele>819.661377</ele>
        <time>2012-05-08T08:54:30Z</time>
      </trkpt>
      <trkpt lat="43.93733" lon="7.34219">
        <ele>819.1806641</ele>
        <time>2012-05-08T08:54:31Z</time>
      </trkpt>
      <trkpt lat="43.93733" lon="7.34219">
        <ele>819.661377</ele>
        <time>2012-05-08T08:54:39Z</time>
      </trkpt>
      <trkpt lat="43.93712" lon="7.34205">
        <ele>821.5837402</ele>
        <time>2012-05-08T08:54:48Z</time>
      </trkpt>
      <trkpt lat="43.93712" lon="7.34205">
        <ele>822.0644531</ele>
        <time>2012-05-08T08:55:03Z</time>
      </trkpt>
      <trkpt lat="43.93712" lon="7.34205">
        <ele>821.5837402</ele>
        <time>2012-05-08T08:56:27Z</time>
      </trkpt>
      <trkpt lat="43.93696" lon="7.34183">
        <ele>820.1418457</ele>
        <time>2012-05-08T08:56:33Z</time>
      </trkpt>
      <trkpt lat="43.93694" lon="7.3417">
        <ele>821.1032715</ele>
        <time>2012-05-08T08:56:37Z</time>
      </trkpt>
      <trkpt lat="43.93695" lon="7.34164">
        <ele>823.0258789</ele>
        <time>2012-05-08T08:56:40Z</time>
      </trkpt>
      <trkpt lat="43.93695" lon="7.34162">
        <ele>824.4677734</ele>
        <time>2012-05-08T08:56:42Z</time>
      </trkpt>
      <trkpt lat="43.93697" lon="7.34146">
        <ele>824.9484863</ele>
        <time>2012-05-08T08:56:47Z</time>
      </trkpt>
      <trkpt lat="43.93697" lon="7.3412">
        <ele>826.8710938</ele>
        <time>2012-05-08T08:56:55Z</time>
      </trkpt>
      <trkpt lat="43.93695" lon="7.34099">
        <ele>826.8710938</ele>
        <time>2012-05-08T08:57:02Z</time>
      </trkpt>
      <trkpt lat="43.93693" lon="7.3409">
        <ele>828.3132324</ele>
        <time>2012-05-08T08:57:07Z</time>
      </trkpt>
      <trkpt lat="43.93683" lon="7.34067">
        <ele>832.1584473</ele>
        <time>2012-05-08T08:57:20Z</time>
      </trkpt>
      <trkpt lat="43.93667" lon="7.34057">
        <ele>833.6003418</ele>
        <time>2012-05-08T08:57:31Z</time>
      </trkpt>
      <trkpt lat="43.9365" lon="7.34048">
        <ele>835.0424805</ele>
        <time>2012-05-08T08:57:43Z</time>
      </trkpt>
      <trkpt lat="43.93644" lon="7.34046">
        <ele>835.5229492</ele>
        <time>2012-05-08T08:57:53Z</time>
      </trkpt>
      <trkpt lat="43.93644" lon="7.34046">
        <ele>835.5229492</ele>
        <time>2012-05-08T08:57:55Z</time>
      </trkpt>
      <trkpt lat="43.93634" lon="7.34036">
        <ele>836.0036621</ele>
        <time>2012-05-08T08:57:59Z</time>
      </trkpt>
      <trkpt lat="43.93631" lon="7.3403">
        <ele>836.484375</ele>
        <time>2012-05-08T08:58:05Z</time>
      </trkpt>
      <trkpt lat="43.93634" lon="7.34022">
        <ele>837.4455566</ele>
        <time>2012-05-08T08:58:14Z</time>
      </trkpt>
      <trkpt lat="43.93636" lon="7.34018">
        <ele>838.8876953</ele>
        <time>2012-05-08T08:58:21Z</time>
      </trkpt>
      <trkpt lat="43.93642" lon="7.33995">
        <ele>841.7714844</ele>
        <time>2012-05-08T08:58:39Z</time>
      </trkpt>
      <trkpt lat="43.93643" lon="7.33988">
        <ele>843.6940918</ele>
        <time>2012-05-08T08:58:45Z</time>
      </trkpt>
      <trkpt lat="43.93649" lon="7.33974">
        <ele>846.5783691</ele>
        <time>2012-05-08T08:59:02Z</time>
      </trkpt>
      <trkpt lat="43.93655" lon="7.33958">
        <ele>849.9428711</ele>
        <time>2012-05-08T08:59:21Z</time>
      </trkpt>
      <trkpt lat="43.93655" lon="7.33946">
        <ele>853.307373</ele>
        <time>2012-05-08T08:59:37Z</time>
      </trkpt>
      <trkpt lat="43.93655" lon="7.33929">
        <ele>856.671875</ele>
        <time>2012-05-08T08:59:58Z</time>
      </trkpt>
      <trkpt lat="43.93655" lon="7.33912">
        <ele>858.5944824</ele>
        <time>2012-05-08T09:00:12Z</time>
      </trkpt>
      <trkpt lat="43.93657" lon="7.33892">
        <ele>861.4787598</ele>
        <time>2012-05-08T09:00:28Z</time>
      </trkpt>
      <trkpt lat="43.93653" lon="7.33876">
        <ele>863.8818359</ele>
        <time>2012-05-08T09:00:45Z</time>
      </trkpt>
      <trkpt lat="43.93646" lon="7.33878">
        <ele>865.8046875</ele>
        <time>2012-05-08T09:00:58Z</time>
      </trkpt>
      <trkpt lat="43.93641" lon="7.33885">
        <ele>867.7270508</ele>
        <time>2012-05-08T09:01:09Z</time>
      </trkpt>
      <trkpt lat="43.93639" lon="7.33889">
        <ele>868.2077637</ele>
        <time>2012-05-08T09:01:13Z</time>
      </trkpt>
      <trkpt lat="43.93636" lon="7.33893">
        <ele>868.6884766</ele>
        <time>2012-05-08T09:01:17Z</time>
      </trkpt>
      <trkpt lat="43.93628" lon="7.33908">
        <ele>872.0529785</ele>
        <time>2012-05-08T09:01:35Z</time>
      </trkpt>
      <trkpt lat="43.93619" lon="7.33912">
        <ele>875.4174805</ele>
        <time>2012-05-08T09:01:53Z</time>
      </trkpt>
      <trkpt lat="43.93618" lon="7.33906">
        <ele>877.3405762</ele>
        <time>2012-05-08T09:02:08Z</time>
      </trkpt>
      <trkpt lat="43.9361" lon="7.33904">
        <ele>880.7050781</ele>
        <time>2012-05-08T09:02:23Z</time>
      </trkpt>
      <trkpt lat="43.93608" lon="7.33892">
        <ele>883.5888672</ele>
        <time>2012-05-08T09:02:40Z</time>
      </trkpt>
      <trkpt lat="43.93598" lon="7.33896">
        <ele>886.9533691</ele>
        <time>2012-05-08T09:03:00Z</time>
      </trkpt>
      <trkpt lat="43.93587" lon="7.33904">
        <ele>888.8762207</ele>
        <time>2012-05-08T09:03:20Z</time>
      </trkpt>
      <trkpt lat="43.93581" lon="7.33914">
        <ele>892.2409668</ele>
        <time>2012-05-08T09:03:35Z</time>
      </trkpt>
      <trkpt lat="43.93568" lon="7.33909">
        <ele>894.1635742</ele>
        <time>2012-05-08T09:03:53Z</time>
      </trkpt>
      <trkpt lat="43.93552" lon="7.33905">
        <ele>897.5280762</ele>
        <time>2012-05-08T09:04:12Z</time>
      </trkpt>
      <trkpt lat="43.93536" lon="7.33894">
        <ele>900.4121094</ele>
        <time>2012-05-08T09:04:24Z</time>
      </trkpt>
      <trkpt lat="43.93527" lon="7.3389">
        <ele>901.373291</ele>
        <time>2012-05-08T09:04:30Z</time>
      </trkpt>
      <trkpt lat="43.93512" lon="7.33871">
        <ele>901.373291</ele>
        <time>2012-05-08T09:04:44Z</time>
      </trkpt>
      <trkpt lat="43.93504" lon="7.33851">
        <ele>902.8151855</ele>
        <time>2012-05-08T09:04:52Z</time>
      </trkpt>
      <trkpt lat="43.93507" lon="7.3384">
        <ele>903.2958984</ele>
        <time>2012-05-08T09:04:57Z</time>
      </trkpt>
      <trkpt lat="43.93501" lon="7.33816">
        <ele>905.6992188</ele>
        <time>2012-05-08T09:05:11Z</time>
      </trkpt>
      <trkpt lat="43.93499" lon="7.33808">
        <ele>907.1411133</ele>
        <time>2012-05-08T09:05:15Z</time>
      </trkpt>
      <trkpt lat="43.93497" lon="7.33805">
        <ele>907.6218262</ele>
        <time>2012-05-08T09:05:18Z</time>
      </trkpt>
      <trkpt lat="43.93493" lon="7.33801">
        <ele>909.0639648</ele>
        <time>2012-05-08T09:05:23Z</time>
      </trkpt>
      <trkpt lat="43.93488" lon="7.33799">
        <ele>909.5446777</ele>
        <time>2012-05-08T09:05:27Z</time>
      </trkpt>
      <trkpt lat="43.93463" lon="7.33802">
        <ele>910.5058594</ele>
        <time>2012-05-08T09:05:44Z</time>
      </trkpt>
      <trkpt lat="43.93459" lon="7.33802">
        <ele>911.4672852</ele>
        <time>2012-05-08T09:05:47Z</time>
      </trkpt>
      <trkpt lat="43.93456" lon="7.33804">
        <ele>911.947998</ele>
        <time>2012-05-08T09:05:49Z</time>
      </trkpt>
      <trkpt lat="43.93449" lon="7.33788">
        <ele>911.947998</ele>
        <time>2012-05-08T09:06:00Z</time>
      </trkpt>
      <trkpt lat="43.93449" lon="7.33763">
        <ele>913.8703613</ele>
        <time>2012-05-08T09:06:09Z</time>
      </trkpt>
      <trkpt lat="43.93444" lon="7.33758">
        <ele>914.3510742</ele>
        <time>2012-05-08T09:06:13Z</time>
      </trkpt>
      <trkpt lat="43.93423" lon="7.33765">
        <ele>917.7155762</ele>
        <time>2012-05-08T09:06:31Z</time>
      </trkpt>
      <trkpt lat="43.9342" lon="7.33766">
        <ele>917.7155762</ele>
        <time>2012-05-08T09:06:34Z</time>
      </trkpt>
      <trkpt lat="43.93409" lon="7.33748">
        <ele>919.6384277</ele>
        <time>2012-05-08T09:06:46Z</time>
      </trkpt>
      <trkpt lat="43.93395" lon="7.33746">
        <ele>921.560791</ele>
        <time>2012-05-08T09:06:59Z</time>
      </trkpt>
      <trkpt lat="43.93389" lon="7.33742">
        <ele>923.0029297</ele>
        <time>2012-05-08T09:07:05Z</time>
      </trkpt>
      <trkpt lat="43.93388" lon="7.33742">
        <ele>923.4836426</ele>
        <time>2012-05-08T09:07:06Z</time>
      </trkpt>
      <trkpt lat="43.93369" lon="7.33736">
        <ele>926.3676758</ele>
        <time>2012-05-08T09:07:22Z</time>
      </trkpt>
      <trkpt lat="43.93353" lon="7.33724">
        <ele>928.7709961</ele>
        <time>2012-05-08T09:07:39Z</time>
      </trkpt>
      <trkpt lat="43.93353" lon="7.33723">
        <ele>929.2514648</ele>
        <time>2012-05-08T09:07:40Z</time>
      </trkpt>
      <trkpt lat="43.93346" lon="7.33712">
        <ele>931.6547852</ele>
        <time>2012-05-08T09:07:49Z</time>
      </trkpt>
      <trkpt lat="43.93336" lon="7.337">
        <ele>933.0966797</ele>
        <time>2012-05-08T09:08:04Z</time>
      </trkpt>
      <trkpt lat="43.93333" lon="7.33692">
        <ele>933.5773926</ele>
        <time>2012-05-08T09:08:14Z</time>
      </trkpt>
      <trkpt lat="43.93333" lon="7.33681">
        <ele>934.0581055</ele>
        <time>2012-05-08T09:08:21Z</time>
      </trkpt>
      <trkpt lat="43.93336" lon="7.33661">
        <ele>935.0195313</ele>
        <time>2012-05-08T09:08:31Z</time>
      </trkpt>
      <trkpt lat="43.93338" lon="7.33657">
        <ele>935.5</ele>
        <time>2012-05-08T09:08:33Z</time>
      </trkpt>
      <trkpt lat="43.93334" lon="7.33644">
        <ele>936.4614258</ele>
        <time>2012-05-08T09:08:40Z</time>
      </trkpt>
      <trkpt lat="43.93335" lon="7.33611">
        <ele>938.8647461</ele>
        <time>2012-05-08T09:08:58Z</time>
      </trkpt>
      <trkpt lat="43.93331" lon="7.33604">
        <ele>939.8259277</ele>
        <time>2012-05-08T09:09:03Z</time>
      </trkpt>
      <trkpt lat="43.93326" lon="7.33585">
        <ele>941.2680664</ele>
        <time>2012-05-08T09:09:13Z</time>
      </trkpt>
      <trkpt lat="43.93324" lon="7.33582">
        <ele>942.2294922</ele>
        <time>2012-05-08T09:09:15Z</time>
      </trkpt>
      <trkpt lat="43.93322" lon="7.33577">
        <ele>941.7487793</ele>
        <time>2012-05-08T09:09:20Z</time>
      </trkpt>
      <trkpt lat="43.93319" lon="7.3357">
        <ele>941.2680664</ele>
        <time>2012-05-08T09:09:36Z</time>
      </trkpt>
      <trkpt lat="43.93318" lon="7.33569">
        <ele>941.7487793</ele>
        <time>2012-05-08T09:10:40Z</time>
      </trkpt>
      <trkpt lat="43.93319" lon="7.33566">
        <ele>942.2294922</ele>
        <time>2012-05-08T09:11:21Z</time>
      </trkpt>
      <trkpt lat="43.9332" lon="7.3356">
        <ele>942.2294922</ele>
        <time>2012-05-08T09:11:44Z</time>
      </trkpt>
      <trkpt lat="43.93319" lon="7.33558">
        <ele>942.2294922</ele>
        <time>2012-05-08T09:14:10Z</time>
      </trkpt>
      <trkpt lat="43.93317" lon="7.33547">
        <ele>943.1906738</ele>
        <time>2012-05-08T09:14:31Z</time>
      </trkpt>
      <trkpt lat="43.93305" lon="7.3353">
        <ele>939.8259277</ele>
        <time>2012-05-08T09:14:38Z</time>
      </trkpt>
      <trkpt lat="43.93301" lon="7.33526">
        <ele>939.8259277</ele>
        <time>2012-05-08T09:14:39Z</time>
      </trkpt>
      <trkpt lat="43.93297" lon="7.33497">
        <ele>937.9033203</ele>
        <time>2012-05-08T09:14:43Z</time>
      </trkpt>
      <trkpt lat="43.93297" lon="7.33495">
        <ele>937.4226074</ele>
        <time>2012-05-08T09:14:44Z</time>
      </trkpt>
      <trkpt lat="43.9329" lon="7.33489">
        <ele>935.9807129</ele>
        <time>2012-05-08T09:14:46Z</time>
      </trkpt>
      <trkpt lat="43.93285" lon="7.33479">
        <ele>935.0195313</ele>
        <time>2012-05-08T09:14:48Z</time>
      </trkpt>
      <trkpt lat="43.93279" lon="7.33471">
        <ele>935.0195313</ele>
        <time>2012-05-08T09:14:50Z</time>
      </trkpt>
      <trkpt lat="43.9327" lon="7.33468">
        <ele>933.5773926</ele>
        <time>2012-05-08T09:14:52Z</time>
      </trkpt>
      <trkpt lat="43.93252" lon="7.33468">
        <ele>932.135498</ele>
        <time>2012-05-08T09:14:56Z</time>
      </trkpt>
      <trkpt lat="43.93241" lon="7.33461">
        <ele>933.0966797</ele>
        <time>2012-05-08T09:14:59Z</time>
      </trkpt>
      <trkpt lat="43.93224" lon="7.33459">
        <ele>931.6547852</ele>
        <time>2012-05-08T09:15:02Z</time>
      </trkpt>
      <trkpt lat="43.93213" lon="7.33467">
        <ele>930.2128906</ele>
        <time>2012-05-08T09:15:04Z</time>
      </trkpt>
      <trkpt lat="43.93196" lon="7.33481">
        <ele>927.3291016</ele>
        <time>2012-05-08T09:15:07Z</time>
      </trkpt>
      <trkpt lat="43.93185" lon="7.33487">
        <ele>925.8869629</ele>
        <time>2012-05-08T09:15:09Z</time>
      </trkpt>
      <trkpt lat="43.9318" lon="7.3349">
        <ele>923.9641113</ele>
        <time>2012-05-08T09:15:10Z</time>
      </trkpt>
      <trkpt lat="43.93167" lon="7.33494">
        <ele>922.0415039</ele>
        <time>2012-05-08T09:15:13Z</time>
      </trkpt>
      <trkpt lat="43.93163" lon="7.33495">
        <ele>920.5996094</ele>
        <time>2012-05-08T09:15:14Z</time>
      </trkpt>
      <trkpt lat="43.93156" lon="7.33501">
        <ele>919.1577148</ele>
        <time>2012-05-08T09:15:16Z</time>
      </trkpt>
      <trkpt lat="43.93152" lon="7.33505">
        <ele>917.2351074</ele>
        <time>2012-05-08T09:15:18Z</time>
      </trkpt>
      <trkpt lat="43.93147" lon="7.33505">
        <ele>915.7932129</ele>
        <time>2012-05-08T09:15:19Z</time>
      </trkpt>
      <trkpt lat="43.93141" lon="7.33523">
        <ele>913.3898926</ele>
        <time>2012-05-08T09:15:23Z</time>
      </trkpt>
      <trkpt lat="43.93149" lon="7.33533">
        <ele>911.947998</ele>
        <time>2012-05-08T09:15:25Z</time>
      </trkpt>
      <trkpt lat="43.93154" lon="7.33539">
        <ele>910.0251465</ele>
        <time>2012-05-08T09:15:27Z</time>
      </trkpt>
      <trkpt lat="43.9314" lon="7.33553">
        <ele>905.6992188</ele>
        <time>2012-05-08T09:15:31Z</time>
      </trkpt>
      <trkpt lat="43.93115" lon="7.33545">
        <ele>904.737793</ele>
        <time>2012-05-08T09:15:36Z</time>
      </trkpt>
      <trkpt lat="43.93101" lon="7.33529">
        <ele>903.7766113</ele>
        <time>2012-05-08T09:15:40Z</time>
      </trkpt>
      <trkpt lat="43.93094" lon="7.33511">
        <ele>903.2958984</ele>
        <time>2012-05-08T09:15:43Z</time>
      </trkpt>
      <trkpt lat="43.93082" lon="7.33495">
        <ele>902.8151855</ele>
        <time>2012-05-08T09:15:47Z</time>
      </trkpt>
      <trkpt lat="43.9306" lon="7.33488">
        <ele>901.8540039</ele>
        <time>2012-05-08T09:15:52Z</time>
      </trkpt>
      <trkpt lat="43.93046" lon="7.33498">
        <ele>899.9313965</ele>
        <time>2012-05-08T09:15:56Z</time>
      </trkpt>
      <trkpt lat="43.93042" lon="7.3351">
        <ele>896.0861816</ele>
        <time>2012-05-08T09:15:59Z</time>
      </trkpt>
      <trkpt lat="43.93039" lon="7.33514">
        <ele>896.0861816</ele>
        <time>2012-05-08T09:16:00Z</time>
      </trkpt>
      <trkpt lat="43.93033" lon="7.33526">
        <ele>893.6828613</ele>
        <time>2012-05-08T09:16:02Z</time>
      </trkpt>
      <trkpt lat="43.93021" lon="7.33537">
        <ele>891.7600098</ele>
        <time>2012-05-08T09:16:04Z</time>
      </trkpt>
      <trkpt lat="43.93008" lon="7.33542">
        <ele>890.3181152</ele>
        <time>2012-05-08T09:16:06Z</time>
      </trkpt>
      <trkpt lat="43.92977" lon="7.33555">
        <ele>886.9533691</ele>
        <time>2012-05-08T09:16:14Z</time>
      </trkpt>
      <trkpt lat="43.92971" lon="7.33558">
        <ele>885.5114746</ele>
        <time>2012-05-08T09:16:16Z</time>
      </trkpt>
      <trkpt lat="43.92948" lon="7.33565">
        <ele>881.185791</ele>
        <time>2012-05-08T09:16:22Z</time>
      </trkpt>
      <trkpt lat="43.92945" lon="7.33565">
        <ele>881.185791</ele>
        <time>2012-05-08T09:16:23Z</time>
      </trkpt>
      <trkpt lat="43.92938" lon="7.33566">
        <ele>879.7436523</ele>
        <time>2012-05-08T09:16:25Z</time>
      </trkpt>
      <trkpt lat="43.92923" lon="7.33572">
        <ele>876.3791504</ele>
        <time>2012-05-08T09:16:29Z</time>
      </trkpt>
      <trkpt lat="43.9292" lon="7.33574">
        <ele>876.3791504</ele>
        <time>2012-05-08T09:16:30Z</time>
      </trkpt>
      <trkpt lat="43.92904" lon="7.33582">
        <ele>873.4951172</ele>
        <time>2012-05-08T09:16:35Z</time>
      </trkpt>
      <trkpt lat="43.92901" lon="7.33585">
        <ele>871.0917969</ele>
        <time>2012-05-08T09:16:36Z</time>
      </trkpt>
      <trkpt lat="43.92904" lon="7.3361">
        <ele>869.1691895</ele>
        <time>2012-05-08T09:16:41Z</time>
      </trkpt>
      <trkpt lat="43.92918" lon="7.33629">
        <ele>866.2851563</ele>
        <time>2012-05-08T09:16:46Z</time>
      </trkpt>
      <trkpt lat="43.92924" lon="7.33638">
        <ele>864.8432617</ele>
        <time>2012-05-08T09:16:48Z</time>
      </trkpt>
      <trkpt lat="43.92932" lon="7.33647">
        <ele>863.4013672</ele>
        <time>2012-05-08T09:16:50Z</time>
      </trkpt>
      <trkpt lat="43.92966" lon="7.33662">
        <ele>860.517334</ele>
        <time>2012-05-08T09:16:57Z</time>
      </trkpt>
      <trkpt lat="43.92972" lon="7.33666">
        <ele>859.5559082</ele>
        <time>2012-05-08T09:16:58Z</time>
      </trkpt>
      <trkpt lat="43.92982" lon="7.33682">
        <ele>859.0751953</ele>
        <time>2012-05-08T09:17:02Z</time>
      </trkpt>
      <trkpt lat="43.92978" lon="7.33694">
        <ele>859.5559082</ele>
        <time>2012-05-08T09:17:06Z</time>
      </trkpt>
      <trkpt lat="43.92974" lon="7.33705">
        <ele>860.0366211</ele>
        <time>2012-05-08T09:17:10Z</time>
      </trkpt>
      <trkpt lat="43.92972" lon="7.33711">
        <ele>860.9980469</ele>
        <time>2012-05-08T09:17:14Z</time>
      </trkpt>
      <trkpt lat="43.92977" lon="7.33759">
        <ele>863.4013672</ele>
        <time>2012-05-08T09:17:31Z</time>
      </trkpt>
      <trkpt lat="43.93003" lon="7.33791">
        <ele>863.8818359</ele>
        <time>2012-05-08T09:17:43Z</time>
      </trkpt>
      <trkpt lat="43.93003" lon="7.33798">
        <ele>864.8432617</ele>
        <time>2012-05-08T09:17:50Z</time>
      </trkpt>
      <trkpt lat="43.93003" lon="7.33798">
        <ele>864.8432617</ele>
        <time>2012-05-08T09:17:52Z</time>
      </trkpt>
      <trkpt lat="43.92996" lon="7.33803">
        <ele>865.3239746</ele>
        <time>2012-05-08T09:17:59Z</time>
      </trkpt>
      <trkpt lat="43.92965" lon="7.33799">
        <ele>865.8046875</ele>
        <time>2012-05-08T09:18:14Z</time>
      </trkpt>
      <trkpt lat="43.9295" lon="7.33799">
        <ele>866.7658691</ele>
        <time>2012-05-08T09:18:22Z</time>
      </trkpt>
      <trkpt lat="43.92943" lon="7.33799">
        <ele>866.2851563</ele>
        <time>2012-05-08T09:18:26Z</time>
      </trkpt>
      <trkpt lat="43.92926" lon="7.33844">
        <ele>866.7658691</ele>
        <time>2012-05-08T09:18:40Z</time>
      </trkpt>
      <trkpt lat="43.92928" lon="7.33861">
        <ele>867.7270508</ele>
        <time>2012-05-08T09:18:46Z</time>
      </trkpt>
      <trkpt lat="43.92933" lon="7.33903">
        <ele>871.5722656</ele>
        <time>2012-05-08T09:19:01Z</time>
      </trkpt>
      <trkpt lat="43.92934" lon="7.33909">
        <ele>871.5722656</ele>
        <time>2012-05-08T09:19:03Z</time>
      </trkpt>
      <trkpt lat="43.92943" lon="7.33935">
        <ele>872.0529785</ele>
        <time>2012-05-08T09:19:15Z</time>
      </trkpt>
      <trkpt lat="43.92957" lon="7.3397">
        <ele>869.6499023</ele>
        <time>2012-05-08T09:19:25Z</time>
      </trkpt>
      <trkpt lat="43.92931" lon="7.34004">
        <ele>870.611084</ele>
        <time>2012-05-08T09:19:36Z</time>
      </trkpt>
      <trkpt lat="43.92915" lon="7.34016">
        <ele>869.6499023</ele>
        <time>2012-05-08T09:19:44Z</time>
      </trkpt>
      <trkpt lat="43.92911" lon="7.34034">
        <ele>870.1303711</ele>
        <time>2012-05-08T09:19:47Z</time>
      </trkpt>
      <trkpt lat="43.92903" lon="7.34055">
        <ele>870.1303711</ele>
        <time>2012-05-08T09:19:51Z</time>
      </trkpt>
      <trkpt lat="43.92904" lon="7.34063">
        <ele>870.611084</ele>
        <time>2012-05-08T09:19:53Z</time>
      </trkpt>
      <trkpt lat="43.92882" lon="7.3409">
        <ele>872.0529785</ele>
        <time>2012-05-08T09:20:02Z</time>
      </trkpt>
      <trkpt lat="43.92863" lon="7.3411">
        <ele>872.5336914</ele>
        <time>2012-05-08T09:20:10Z</time>
      </trkpt>
      <trkpt lat="43.92857" lon="7.34122">
        <ele>873.4951172</ele>
        <time>2012-05-08T09:20:15Z</time>
      </trkpt>
      <trkpt lat="43.92847" lon="7.34158">
        <ele>875.4174805</ele>
        <time>2012-05-08T09:20:29Z</time>
      </trkpt>
      <trkpt lat="43.92865" lon="7.342">
        <ele>877.8210449</ele>
        <time>2012-05-08T09:20:45Z</time>
      </trkpt>
      <trkpt lat="43.92854" lon="7.34219">
        <ele>877.8210449</ele>
        <time>2012-05-08T09:20:52Z</time>
      </trkpt>
      <trkpt lat="43.92846" lon="7.34219">
        <ele>877.8210449</ele>
        <time>2012-05-08T09:20:57Z</time>
      </trkpt>
      <trkpt lat="43.92833" lon="7.34218">
        <ele>879.2629395</ele>
        <time>2012-05-08T09:21:02Z</time>
      </trkpt>
      <trkpt lat="43.92825" lon="7.34227">
        <ele>879.7436523</ele>
        <time>2012-05-08T09:21:08Z</time>
      </trkpt>
      <trkpt lat="43.9281" lon="7.34262">
        <ele>881.185791</ele>
        <time>2012-05-08T09:21:24Z</time>
      </trkpt>
      <trkpt lat="43.92808" lon="7.34268">
        <ele>881.185791</ele>
        <time>2012-05-08T09:21:26Z</time>
      </trkpt>
      <trkpt lat="43.92795" lon="7.34308">
        <ele>880.7050781</ele>
        <time>2012-05-08T09:21:38Z</time>
      </trkpt>
      <trkpt lat="43.9277" lon="7.34324">
        <ele>878.7824707</ele>
        <time>2012-05-08T09:21:45Z</time>
      </trkpt>
      <trkpt lat="43.92758" lon="7.34341">
        <ele>877.3405762</ele>
        <time>2012-05-08T09:21:58Z</time>
      </trkpt>
      <trkpt lat="43.92757" lon="7.34343">
        <ele>876.8598633</ele>
        <time>2012-05-08T09:22:29Z</time>
      </trkpt>
      <trkpt lat="43.92752" lon="7.34347">
        <ele>876.8598633</ele>
        <time>2012-05-08T09:24:01Z</time>
      </trkpt>
      <trkpt lat="43.92752" lon="7.34353">
        <ele>877.3405762</ele>
        <time>2012-05-08T09:24:36Z</time>
      </trkpt>
      <trkpt lat="43.92744" lon="7.34356">
        <ele>877.8210449</ele>
        <time>2012-05-08T09:24:54Z</time>
      </trkpt>
      <trkpt lat="43.92741" lon="7.34354">
        <ele>877.3405762</ele>
        <time>2012-05-08T09:25:19Z</time>
      </trkpt>
      <trkpt lat="43.92741" lon="7.34348">
        <ele>879.2629395</ele>
        <time>2012-05-08T09:25:26Z</time>
      </trkpt>
      <trkpt lat="43.9274" lon="7.34345">
        <ele>879.2629395</ele>
        <time>2012-05-08T09:25:29Z</time>
      </trkpt>
      <trkpt lat="43.92741" lon="7.34332">
        <ele>880.2243652</ele>
        <time>2012-05-08T09:25:41Z</time>
      </trkpt>
      <trkpt lat="43.92741" lon="7.34328">
        <ele>880.7050781</ele>
        <time>2012-05-08T09:25:45Z</time>
      </trkpt>
      <trkpt lat="43.92744" lon="7.34323">
        <ele>881.6662598</ele>
        <time>2012-05-08T09:25:48Z</time>
      </trkpt>
      <trkpt lat="43.92751" lon="7.34289">
        <ele>883.5888672</ele>
        <time>2012-05-08T09:26:02Z</time>
      </trkpt>
      <trkpt lat="43.92754" lon="7.34279">
        <ele>884.550293</ele>
        <time>2012-05-08T09:26:08Z</time>
      </trkpt>
      <trkpt lat="43.92755" lon="7.34273">
        <ele>884.550293</ele>
        <time>2012-05-08T09:26:11Z</time>
      </trkpt>
      <trkpt lat="43.92743" lon="7.34258">
        <ele>885.0310059</ele>
        <time>2012-05-08T09:26:24Z</time>
      </trkpt>
      <trkpt lat="43.92747" lon="7.34252">
        <ele>885.5114746</ele>
        <time>2012-05-08T09:26:36Z</time>
      </trkpt>
      <trkpt lat="43.92748" lon="7.34251">
        <ele>885.5114746</ele>
        <time>2012-05-08T09:27:29Z</time>
      </trkpt>
      <trkpt lat="43.92748" lon="7.34248">
        <ele>885.9921875</ele>
        <time>2012-05-08T09:27:33Z</time>
      </trkpt>
      <trkpt lat="43.92744" lon="7.34236">
        <ele>887.434082</ele>
        <time>2012-05-08T09:27:38Z</time>
      </trkpt>
      <trkpt lat="43.92742" lon="7.34218">
        <ele>889.3566895</ele>
        <time>2012-05-08T09:27:46Z</time>
      </trkpt>
      <trkpt lat="43.92744" lon="7.34208">
        <ele>890.3181152</ele>
        <time>2012-05-08T09:27:53Z</time>
      </trkpt>
      <trkpt lat="43.92745" lon="7.34204">
        <ele>890.3181152</ele>
        <time>2012-05-08T09:27:55Z</time>
      </trkpt>
      <trkpt lat="43.92743" lon="7.34202">
        <ele>891.2792969</ele>
        <time>2012-05-08T09:27:58Z</time>
      </trkpt>
      <trkpt lat="43.92741" lon="7.34181">
        <ele>892.2409668</ele>
        <time>2012-05-08T09:28:07Z</time>
      </trkpt>
      <trkpt lat="43.9274" lon="7.34174">
        <ele>894.1635742</ele>
        <time>2012-05-08T09:28:12Z</time>
      </trkpt>
      <trkpt lat="43.92738" lon="7.34148">
        <ele>895.6054688</ele>
        <time>2012-05-08T09:28:29Z</time>
      </trkpt>
      <trkpt lat="43.92738" lon="7.34145">
        <ele>895.6054688</ele>
        <time>2012-05-08T09:28:49Z</time>
      </trkpt>
      <trkpt lat="43.92734" lon="7.34144">
        <ele>896.5668945</ele>
        <time>2012-05-08T09:30:14Z</time>
      </trkpt>
      <trkpt lat="43.92736" lon="7.34132">
        <ele>897.0473633</ele>
        <time>2012-05-08T09:30:28Z</time>
      </trkpt>
      <trkpt lat="43.92737" lon="7.34118">
        <ele>898.0087891</ele>
        <time>2012-05-08T09:30:35Z</time>
      </trkpt>
      <trkpt lat="43.92736" lon="7.34115">
        <ele>898.0087891</ele>
        <time>2012-05-08T09:30:37Z</time>
      </trkpt>
      <trkpt lat="43.92736" lon="7.34106">
        <ele>898.4892578</ele>
        <time>2012-05-08T09:30:40Z</time>
      </trkpt>
      <trkpt lat="43.92737" lon="7.34102">
        <ele>898.4892578</ele>
        <time>2012-05-08T09:30:42Z</time>
      </trkpt>
      <trkpt lat="43.92729" lon="7.3408">
        <ele>898.4892578</ele>
        <time>2012-05-08T09:30:52Z</time>
      </trkpt>
      <trkpt lat="43.92721" lon="7.34047">
        <ele>898.4892578</ele>
        <time>2012-05-08T09:31:04Z</time>
      </trkpt>
      <trkpt lat="43.92713" lon="7.34017">
        <ele>898.4892578</ele>
        <time>2012-05-08T09:31:12Z</time>
      </trkpt>
      <trkpt lat="43.92709" lon="7.34003">
        <ele>899.9313965</ele>
        <time>2012-05-08T09:31:17Z</time>
      </trkpt>
      <trkpt lat="43.92703" lon="7.3397">
        <ele>899.9313965</ele>
        <time>2012-05-08T09:31:28Z</time>
      </trkpt>
      <trkpt lat="43.92699" lon="7.33962">
        <ele>900.4121094</ele>
        <time>2012-05-08T09:31:31Z</time>
      </trkpt>
      <trkpt lat="43.92689" lon="7.33948">
        <ele>901.373291</ele>
        <time>2012-05-08T09:31:46Z</time>
      </trkpt>
      <trkpt lat="43.92683" lon="7.33945">
        <ele>901.373291</ele>
        <time>2012-05-08T09:32:12Z</time>
      </trkpt>
      <trkpt lat="43.92681" lon="7.33947">
        <ele>902.3344727</ele>
        <time>2012-05-08T09:34:14Z</time>
      </trkpt>
      <trkpt lat="43.9268" lon="7.33944">
        <ele>902.8151855</ele>
        <time>2012-05-08T09:34:16Z</time>
      </trkpt>
      <trkpt lat="43.9267" lon="7.33932">
        <ele>901.8540039</ele>
        <time>2012-05-08T09:34:23Z</time>
      </trkpt>
      <trkpt lat="43.92646" lon="7.33895">
        <ele>902.3344727</ele>
        <time>2012-05-08T09:34:36Z</time>
      </trkpt>
      <trkpt lat="43.92644" lon="7.33892">
        <ele>902.8151855</ele>
        <time>2012-05-08T09:34:37Z</time>
      </trkpt>
      <trkpt lat="43.92632" lon="7.33883">
        <ele>904.2573242</ele>
        <time>2012-05-08T09:34:42Z</time>
      </trkpt>
      <trkpt lat="43.92615" lon="7.33865">
        <ele>905.2185059</ele>
        <time>2012-05-08T09:34:49Z</time>
      </trkpt>
      <trkpt lat="43.92588" lon="7.33845">
        <ele>906.1796875</ele>
        <time>2012-05-08T09:35:01Z</time>
      </trkpt>
      <trkpt lat="43.92586" lon="7.33838">
        <ele>906.1796875</ele>
        <time>2012-05-08T09:35:03Z</time>
      </trkpt>
      <trkpt lat="43.92581" lon="7.33832">
        <ele>906.6604004</ele>
        <time>2012-05-08T09:35:06Z</time>
      </trkpt>
      <trkpt lat="43.9258" lon="7.33813">
        <ele>906.6604004</ele>
        <time>2012-05-08T09:35:12Z</time>
      </trkpt>
      <trkpt lat="43.9258" lon="7.3378">
        <ele>907.6218262</ele>
        <time>2012-05-08T09:35:21Z</time>
      </trkpt>
      <trkpt lat="43.92575" lon="7.33767">
        <ele>909.0639648</ele>
        <time>2012-05-08T09:35:25Z</time>
      </trkpt>
      <trkpt lat="43.92575" lon="7.33756">
        <ele>909.5446777</ele>
        <time>2012-05-08T09:35:29Z</time>
      </trkpt>
      <trkpt lat="43.92572" lon="7.3374">
        <ele>910.0251465</ele>
        <time>2012-05-08T09:35:34Z</time>
      </trkpt>
      <trkpt lat="43.92566" lon="7.33733">
        <ele>910.9865723</ele>
        <time>2012-05-08T09:35:37Z</time>
      </trkpt>
      <trkpt lat="43.92564" lon="7.33732">
        <ele>910.9865723</ele>
        <time>2012-05-08T09:35:39Z</time>
      </trkpt>
      <trkpt lat="43.92536" lon="7.33727">
        <ele>912.4284668</ele>
        <time>2012-05-08T09:35:53Z</time>
      </trkpt>
      <trkpt lat="43.92527" lon="7.33728">
        <ele>911.947998</ele>
        <time>2012-05-08T09:35:55Z</time>
      </trkpt>
      <trkpt lat="43.92492" lon="7.33711">
        <ele>912.9091797</ele>
        <time>2012-05-08T09:36:05Z</time>
      </trkpt>
      <trkpt lat="43.92488" lon="7.33707">
        <ele>912.9091797</ele>
        <time>2012-05-08T09:36:07Z</time>
      </trkpt>
      <trkpt lat="43.92469" lon="7.33694">
        <ele>915.7932129</ele>
        <time>2012-05-08T09:36:23Z</time>
      </trkpt>
      <trkpt lat="43.92469" lon="7.33694">
        <ele>916.2736816</ele>
        <time>2012-05-08T09:38:16Z</time>
      </trkpt>
      <trkpt lat="43.92461" lon="7.33692">
        <ele>915.7932129</ele>
        <time>2012-05-08T09:38:20Z</time>
      </trkpt>
      <trkpt lat="43.92431" lon="7.33705">
        <ele>913.3898926</ele>
        <time>2012-05-08T09:38:27Z</time>
      </trkpt>
      <trkpt lat="43.92412" lon="7.33706">
        <ele>913.3898926</ele>
        <time>2012-05-08T09:38:32Z</time>
      </trkpt>
      <trkpt lat="43.92396" lon="7.33709">
        <ele>914.3510742</ele>
        <time>2012-05-08T09:38:37Z</time>
      </trkpt>
      <trkpt lat="43.92393" lon="7.33714">
        <ele>915.7932129</ele>
        <time>2012-05-08T09:38:39Z</time>
      </trkpt>
      <trkpt lat="43.92388" lon="7.33722">
        <ele>915.7932129</ele>
        <time>2012-05-08T09:38:41Z</time>
      </trkpt>
      <trkpt lat="43.92383" lon="7.3373">
        <ele>913.8703613</ele>
        <time>2012-05-08T09:38:43Z</time>
      </trkpt>
      <trkpt lat="43.9237" lon="7.33752">
        <ele>914.8317871</ele>
        <time>2012-05-08T09:38:50Z</time>
      </trkpt>
      <trkpt lat="43.92362" lon="7.33812">
        <ele>914.8317871</ele>
        <time>2012-05-08T09:39:01Z</time>
      </trkpt>
      <trkpt lat="43.92362" lon="7.33821">
        <ele>914.8317871</ele>
        <time>2012-05-08T09:39:03Z</time>
      </trkpt>
      <trkpt lat="43.92343" lon="7.33827">
        <ele>917.2351074</ele>
        <time>2012-05-08T09:39:16Z</time>
      </trkpt>
      <trkpt lat="43.92343" lon="7.33827">
        <ele>917.2351074</ele>
        <time>2012-05-08T09:39:26Z</time>
      </trkpt>
      <trkpt lat="43.92334" lon="7.33829">
        <ele>916.7543945</ele>
        <time>2012-05-08T09:39:36Z</time>
      </trkpt>
      <trkpt lat="43.92321" lon="7.33833">
        <ele>919.1577148</ele>
        <time>2012-05-08T09:39:44Z</time>
      </trkpt>
      <trkpt lat="43.92318" lon="7.33834">
        <ele>918.1962891</ele>
        <time>2012-05-08T09:39:46Z</time>
      </trkpt>
      <trkpt lat="43.92289" lon="7.33852">
        <ele>921.560791</ele>
        <time>2012-05-08T09:40:01Z</time>
      </trkpt>
      <trkpt lat="43.92284" lon="7.3387">
        <ele>922.5222168</ele>
        <time>2012-05-08T09:40:09Z</time>
      </trkpt>
      <trkpt lat="43.92271" lon="7.33909">
        <ele>923.4836426</ele>
        <time>2012-05-08T09:40:24Z</time>
      </trkpt>
      <trkpt lat="43.92259" lon="7.33932">
        <ele>924.9257813</ele>
        <time>2012-05-08T09:40:34Z</time>
      </trkpt>
      <trkpt lat="43.9224" lon="7.33968">
        <ele>924.9257813</ele>
        <time>2012-05-08T09:40:49Z</time>
      </trkpt>
      <trkpt lat="43.9224" lon="7.33974">
        <ele>924.4450684</ele>
        <time>2012-05-08T09:40:51Z</time>
      </trkpt>
      <trkpt lat="43.92237" lon="7.33981">
        <ele>923.0029297</ele>
        <time>2012-05-08T09:40:54Z</time>
      </trkpt>
      <trkpt lat="43.92235" lon="7.3399">
        <ele>920.1188965</ele>
        <time>2012-05-08T09:40:57Z</time>
      </trkpt>
      <trkpt lat="43.92234" lon="7.33994">
        <ele>920.1188965</ele>
        <time>2012-05-08T09:40:58Z</time>
      </trkpt>
      <trkpt lat="43.92234" lon="7.33999">
        <ele>918.677002</ele>
        <time>2012-05-08T09:40:59Z</time>
      </trkpt>
      <trkpt lat="43.92231" lon="7.34011">
        <ele>917.7155762</ele>
        <time>2012-05-08T09:41:02Z</time>
      </trkpt>
      <trkpt lat="43.92226" lon="7.3402">
        <ele>916.7543945</ele>
        <time>2012-05-08T09:41:06Z</time>
      </trkpt>
      <trkpt lat="43.92219" lon="7.3403">
        <ele>915.7932129</ele>
        <time>2012-05-08T09:41:11Z</time>
      </trkpt>
      <trkpt lat="43.92205" lon="7.34053">
        <ele>914.8317871</ele>
        <time>2012-05-08T09:41:22Z</time>
      </trkpt>
      <trkpt lat="43.92186" lon="7.34077">
        <ele>914.8317871</ele>
        <time>2012-05-08T09:41:34Z</time>
      </trkpt>
      <trkpt lat="43.92156" lon="7.34102">
        <ele>912.9091797</ele>
        <time>2012-05-08T09:41:40Z</time>
      </trkpt>
      <trkpt lat="43.92138" lon="7.3411">
        <ele>912.4284668</ele>
        <time>2012-05-08T09:41:43Z</time>
      </trkpt>
      <trkpt lat="43.92125" lon="7.34098">
        <ele>910.5058594</ele>
        <time>2012-05-08T09:41:47Z</time>
      </trkpt>
      <trkpt lat="43.92128" lon="7.34112">
        <ele>909.5446777</ele>
        <time>2012-05-08T09:41:49Z</time>
      </trkpt>
      <trkpt lat="43.92113" lon="7.34114">
        <ele>908.583252</ele>
        <time>2012-05-08T09:41:53Z</time>
      </trkpt>
      <trkpt lat="43.92107" lon="7.34114">
        <ele>906.1796875</ele>
        <time>2012-05-08T09:41:56Z</time>
      </trkpt>
      <trkpt lat="43.92101" lon="7.34114">
        <ele>905.6992188</ele>
        <time>2012-05-08T09:42:02Z</time>
      </trkpt>
      <trkpt lat="43.92077" lon="7.34113">
        <ele>904.737793</ele>
        <time>2012-05-08T09:42:09Z</time>
      </trkpt>
      <trkpt lat="43.92048" lon="7.34141">
        <ele>902.3344727</ele>
        <time>2012-05-08T09:42:14Z</time>
      </trkpt>
      <trkpt lat="43.92041" lon="7.34156">
        <ele>900.8925781</ele>
        <time>2012-05-08T09:42:16Z</time>
      </trkpt>
      <trkpt lat="43.9203" lon="7.3418">
        <ele>898.4892578</ele>
        <time>2012-05-08T09:42:19Z</time>
      </trkpt>
      <trkpt lat="43.92023" lon="7.34193">
        <ele>898.4892578</ele>
        <time>2012-05-08T09:42:21Z</time>
      </trkpt>
      <trkpt lat="43.92017" lon="7.34202">
        <ele>896.0861816</ele>
        <time>2012-05-08T09:42:23Z</time>
      </trkpt>
      <trkpt lat="43.92016" lon="7.34205">
        <ele>898.0087891</ele>
        <time>2012-05-08T09:42:25Z</time>
      </trkpt>
      <trkpt lat="43.92016" lon="7.34205">
        <ele>897.5280762</ele>
        <time>2012-05-08T09:42:40Z</time>
      </trkpt>
      <trkpt lat="43.92016" lon="7.34205">
        <ele>898.4892578</ele>
        <time>2012-05-08T09:43:09Z</time>
      </trkpt>
      <trkpt lat="43.92016" lon="7.34205">
        <ele>900.4121094</ele>
        <time>2012-05-08T09:43:58Z</time>
      </trkpt>
      <trkpt lat="43.91997" lon="7.34176">
        <ele>901.373291</ele>
        <time>2012-05-08T09:44:05Z</time>
      </trkpt>
      <trkpt lat="43.91997" lon="7.34168">
        <ele>902.3344727</ele>
        <time>2012-05-08T09:44:10Z</time>
      </trkpt>
      <trkpt lat="43.92001" lon="7.34126">
        <ele>904.737793</ele>
        <time>2012-05-08T09:44:29Z</time>
      </trkpt>
      <trkpt lat="43.92001" lon="7.34123">
        <ele>904.737793</ele>
        <time>2012-05-08T09:44:30Z</time>
      </trkpt>
      <trkpt lat="43.92001" lon="7.34113">
        <ele>906.1796875</ele>
        <time>2012-05-08T09:44:37Z</time>
      </trkpt>
      <trkpt lat="43.92001" lon="7.34113">
        <ele>906.1796875</ele>
        <time>2012-05-08T09:44:39Z</time>
      </trkpt>
      <trkpt lat="43.91998" lon="7.341">
        <ele>906.6604004</ele>
        <time>2012-05-08T09:44:42Z</time>
      </trkpt>
      <trkpt lat="43.91993" lon="7.34082">
        <ele>907.6218262</ele>
        <time>2012-05-08T09:44:49Z</time>
      </trkpt>
      <trkpt lat="43.9199" lon="7.34068">
        <ele>910.0251465</ele>
        <time>2012-05-08T09:44:55Z</time>
      </trkpt>
      <trkpt lat="43.91986" lon="7.34058">
        <ele>910.9865723</ele>
        <time>2012-05-08T09:45:01Z</time>
      </trkpt>
      <trkpt lat="43.91983" lon="7.34051">
        <ele>911.4672852</ele>
        <time>2012-05-08T09:45:05Z</time>
      </trkpt>
      <trkpt lat="43.9198" lon="7.34045">
        <ele>911.4672852</ele>
        <time>2012-05-08T09:45:09Z</time>
      </trkpt>
      <trkpt lat="43.91978" lon="7.34041">
        <ele>912.4284668</ele>
        <time>2012-05-08T09:45:14Z</time>
      </trkpt>
      <trkpt lat="43.91974" lon="7.34033">
        <ele>911.947998</ele>
        <time>2012-05-08T09:45:17Z</time>
      </trkpt>
      <trkpt lat="43.91969" lon="7.34014">
        <ele>913.3898926</ele>
        <time>2012-05-08T09:45:28Z</time>
      </trkpt>
      <trkpt lat="43.91962" lon="7.33999">
        <ele>913.8703613</ele>
        <time>2012-05-08T09:45:36Z</time>
      </trkpt>
      <trkpt lat="43.91961" lon="7.33993">
        <ele>914.8317871</ele>
        <time>2012-05-08T09:45:39Z</time>
      </trkpt>
      <trkpt lat="43.91961" lon="7.3399">
        <ele>916.7543945</ele>
        <time>2012-05-08T09:45:46Z</time>
      </trkpt>
      <trkpt lat="43.91959" lon="7.33975">
        <ele>917.2351074</ele>
        <time>2012-05-08T09:45:50Z</time>
      </trkpt>
      <trkpt lat="43.91957" lon="7.3396">
        <ele>917.7155762</ele>
        <time>2012-05-08T09:45:56Z</time>
      </trkpt>
      <trkpt lat="43.91956" lon="7.33956">
        <ele>918.1962891</ele>
        <time>2012-05-08T09:45:58Z</time>
      </trkpt>
      <trkpt lat="43.91954" lon="7.33941">
        <ele>918.1962891</ele>
        <time>2012-05-08T09:46:04Z</time>
      </trkpt>
      <trkpt lat="43.91953" lon="7.33936">
        <ele>919.1577148</ele>
        <time>2012-05-08T09:46:08Z</time>
      </trkpt>
      <trkpt lat="43.91949" lon="7.33921">
        <ele>919.6384277</ele>
        <time>2012-05-08T09:46:14Z</time>
      </trkpt>
      <trkpt lat="43.91941" lon="7.33898">
        <ele>920.5996094</ele>
        <time>2012-05-08T09:46:25Z</time>
      </trkpt>
      <trkpt lat="43.91939" lon="7.33893">
        <ele>921.0803223</ele>
        <time>2012-05-08T09:46:27Z</time>
      </trkpt>
      <trkpt lat="43.91928" lon="7.33871">
        <ele>923.0029297</ele>
        <time>2012-05-08T09:46:39Z</time>
      </trkpt>
      <trkpt lat="43.91923" lon="7.33865">
        <ele>923.9641113</ele>
        <time>2012-05-08T09:46:43Z</time>
      </trkpt>
      <trkpt lat="43.91922" lon="7.33864">
        <ele>923.9641113</ele>
        <time>2012-05-08T09:46:44Z</time>
      </trkpt>
      <trkpt lat="43.91918" lon="7.33859">
        <ele>924.4450684</ele>
        <time>2012-05-08T09:46:48Z</time>
      </trkpt>
      <trkpt lat="43.91913" lon="7.33851">
        <ele>924.9257813</ele>
        <time>2012-05-08T09:46:52Z</time>
      </trkpt>
      <trkpt lat="43.91905" lon="7.33839">
        <ele>925.8869629</ele>
        <time>2012-05-08T09:46:59Z</time>
      </trkpt>
      <trkpt lat="43.91901" lon="7.33828">
        <ele>925.8869629</ele>
        <time>2012-05-08T09:47:04Z</time>
      </trkpt>
      <trkpt lat="43.91884" lon="7.33814">
        <ele>927.3291016</ele>
        <time>2012-05-08T09:47:21Z</time>
      </trkpt>
      <trkpt lat="43.91879" lon="7.33815">
        <ele>927.3291016</ele>
        <time>2012-05-08T09:48:00Z</time>
      </trkpt>
      <trkpt lat="43.91864" lon="7.33818">
        <ele>926.8483887</ele>
        <time>2012-05-08T09:48:06Z</time>
      </trkpt>
      <trkpt lat="43.91853" lon="7.33827">
        <ele>925.40625</ele>
        <time>2012-05-08T09:48:09Z</time>
      </trkpt>
      <trkpt lat="43.91835" lon="7.33832">
        <ele>925.40625</ele>
        <time>2012-05-08T09:48:13Z</time>
      </trkpt>
      <trkpt lat="43.91776" lon="7.33828">
        <ele>923.0029297</ele>
        <time>2012-05-08T09:48:26Z</time>
      </trkpt>
      <trkpt lat="43.91763" lon="7.33832">
        <ele>923.4836426</ele>
        <time>2012-05-08T09:48:30Z</time>
      </trkpt>
      <trkpt lat="43.91754" lon="7.33842">
        <ele>923.9641113</ele>
        <time>2012-05-08T09:48:33Z</time>
      </trkpt>
      <trkpt lat="43.91729" lon="7.33851">
        <ele>921.560791</ele>
        <time>2012-05-08T09:48:40Z</time>
      </trkpt>
      <trkpt lat="43.91722" lon="7.33852">
        <ele>923.0029297</ele>
        <time>2012-05-08T09:48:50Z</time>
      </trkpt>
      <trkpt lat="43.91722" lon="7.33852">
        <ele>922.5222168</ele>
        <time>2012-05-08T09:49:16Z</time>
      </trkpt>
      <trkpt lat="43.91722" lon="7.33852">
        <ele>922.5222168</ele>
        <time>2012-05-08T09:50:23Z</time>
      </trkpt>
      <trkpt lat="43.91722" lon="7.33852">
        <ele>922.5222168</ele>
        <time>2012-05-08T09:50:25Z</time>
      </trkpt>
      <trkpt lat="43.91722" lon="7.33852">
        <ele>922.0415039</ele>
        <time>2012-05-08T09:50:41Z</time>
      </trkpt>
      <trkpt lat="43.91722" lon="7.33852">
        <ele>922.0415039</ele>
        <time>2012-05-08T09:51:10Z</time>
      </trkpt>
      <trkpt lat="43.91722" lon="7.33852">
        <ele>922.5222168</ele>
        <time>2012-05-08T09:52:22Z</time>
      </trkpt>
      <trkpt lat="43.91722" lon="7.33852">
        <ele>922.0415039</ele>
        <time>2012-05-08T09:53:15Z</time>
      </trkpt>
      <trkpt lat="43.91722" lon="7.33852">
        <ele>922.0415039</ele>
        <time>2012-05-08T09:53:20Z</time>
      </trkpt>
      <trkpt lat="43.91705" lon="7.33873">
        <ele>923.4836426</ele>
        <time>2012-05-08T09:53:34Z</time>
      </trkpt>
      <trkpt lat="43.91683" lon="7.33902">
        <ele>926.3676758</ele>
        <time>2012-05-08T09:53:47Z</time>
      </trkpt>
      <trkpt lat="43.9168" lon="7.33907">
        <ele>927.3291016</ele>
        <time>2012-05-08T09:53:49Z</time>
      </trkpt>
      <trkpt lat="43.91655" lon="7.33935">
        <ele>931.1743164</ele>
        <time>2012-05-08T09:54:06Z</time>
      </trkpt>
      <trkpt lat="43.91622" lon="7.33938">
        <ele>934.5388184</ele>
        <time>2012-05-08T09:54:23Z</time>
      </trkpt>
      <trkpt lat="43.9162" lon="7.33938">
        <ele>934.5388184</ele>
        <time>2012-05-08T09:54:24Z</time>
      </trkpt>
      <trkpt lat="43.91616" lon="7.33936">
        <ele>934.0581055</ele>
        <time>2012-05-08T09:54:26Z</time>
      </trkpt>
      <trkpt lat="43.91586" lon="7.33966">
        <ele>937.4226074</ele>
        <time>2012-05-08T09:54:46Z</time>
      </trkpt>
      <trkpt lat="43.91577" lon="7.33978">
        <ele>937.4226074</ele>
        <time>2012-05-08T09:54:51Z</time>
      </trkpt>
      <trkpt lat="43.91559" lon="7.33984">
        <ele>937.4226074</ele>
        <time>2012-05-08T09:54:56Z</time>
      </trkpt>
      <trkpt lat="43.91539" lon="7.33927">
        <ele>937.9033203</ele>
        <time>2012-05-08T09:55:10Z</time>
      </trkpt>
      <trkpt lat="43.91547" lon="7.33875">
        <ele>941.7487793</ele>
        <time>2012-05-08T09:55:25Z</time>
      </trkpt>
      <trkpt lat="43.91555" lon="7.33829">
        <ele>944.6325684</ele>
        <time>2012-05-08T09:55:41Z</time>
      </trkpt>
      <trkpt lat="43.91557" lon="7.33808">
        <ele>945.1132813</ele>
        <time>2012-05-08T09:55:49Z</time>
      </trkpt>
      <trkpt lat="43.91541" lon="7.33768">
        <ele>949.439209</ele>
        <time>2012-05-08T09:56:07Z</time>
      </trkpt>
      <trkpt lat="43.91524" lon="7.3373">
        <ele>951.8425293</ele>
        <time>2012-05-08T09:56:21Z</time>
      </trkpt>
      <trkpt lat="43.91501" lon="7.33702">
        <ele>954.2458496</ele>
        <time>2012-05-08T09:56:37Z</time>
      </trkpt>
      <trkpt lat="43.91492" lon="7.3369">
        <ele>955.6877441</ele>
        <time>2012-05-08T09:56:44Z</time>
      </trkpt>
      <trkpt lat="43.91489" lon="7.33686">
        <ele>955.6877441</ele>
        <time>2012-05-08T09:56:46Z</time>
      </trkpt>
      <trkpt lat="43.9147" lon="7.33661">
        <ele>957.6105957</ele>
        <time>2012-05-08T09:56:59Z</time>
      </trkpt>
      <trkpt lat="43.91466" lon="7.33655">
        <ele>958.5717773</ele>
        <time>2012-05-08T09:57:02Z</time>
      </trkpt>
      <trkpt lat="43.9145" lon="7.33623">
        <ele>960.4943848</ele>
        <time>2012-05-08T09:57:17Z</time>
      </trkpt>
      <trkpt lat="43.91444" lon="7.3361">
        <ele>961.4558105</ele>
        <time>2012-05-08T09:57:23Z</time>
      </trkpt>
      <trkpt lat="43.91439" lon="7.33601">
        <ele>962.8977051</ele>
        <time>2012-05-08T09:57:28Z</time>
      </trkpt>
      <trkpt lat="43.91419" lon="7.33551">
        <ele>966.262207</ele>
        <time>2012-05-08T09:57:51Z</time>
      </trkpt>
      <trkpt lat="43.91405" lon="7.33526">
        <ele>968.6655273</ele>
        <time>2012-05-08T09:58:06Z</time>
      </trkpt>
      <trkpt lat="43.91388" lon="7.33496">
        <ele>971.5493164</ele>
        <time>2012-05-08T09:58:20Z</time>
      </trkpt>
      <trkpt lat="43.91374" lon="7.3348">
        <ele>972.5109863</ele>
        <time>2012-05-08T09:58:30Z</time>
      </trkpt>
      <trkpt lat="43.91364" lon="7.33484">
        <ele>972.9916992</ele>
        <time>2012-05-08T09:58:36Z</time>
      </trkpt>
      <trkpt lat="43.91376" lon="7.33517">
        <ele>975.3947754</ele>
        <time>2012-05-08T09:58:46Z</time>
      </trkpt>
      <trkpt lat="43.91398" lon="7.3355">
        <ele>976.3562012</ele>
        <time>2012-05-08T09:59:04Z</time>
      </trkpt>
      <trkpt lat="43.9141" lon="7.33585">
        <ele>977.317627</ele>
        <time>2012-05-08T09:59:18Z</time>
      </trkpt>
      <trkpt lat="43.91393" lon="7.33583">
        <ele>978.7595215</ele>
        <time>2012-05-08T09:59:27Z</time>
      </trkpt>
      <trkpt lat="43.91387" lon="7.33566">
        <ele>980.201416</ele>
        <time>2012-05-08T09:59:34Z</time>
      </trkpt>
      <trkpt lat="43.91383" lon="7.33555">
        <ele>980.201416</ele>
        <time>2012-05-08T09:59:39Z</time>
      </trkpt>
      <trkpt lat="43.91375" lon="7.3354">
        <ele>981.1628418</ele>
        <time>2012-05-08T09:59:45Z</time>
      </trkpt>
      <trkpt lat="43.91372" lon="7.33536">
        <ele>981.6433105</ele>
        <time>2012-05-08T09:59:47Z</time>
      </trkpt>
      <trkpt lat="43.91362" lon="7.33527">
        <ele>982.6047363</ele>
        <time>2012-05-08T09:59:54Z</time>
      </trkpt>
      <trkpt lat="43.91349" lon="7.33521">
        <ele>984.0466309</ele>
        <time>2012-05-08T10:00:03Z</time>
      </trkpt>
      <trkpt lat="43.91344" lon="7.33519">
        <ele>985.0080566</ele>
        <time>2012-05-08T10:00:05Z</time>
      </trkpt>
      <trkpt lat="43.91338" lon="7.33513">
        <ele>985.0080566</ele>
        <time>2012-05-08T10:00:09Z</time>
      </trkpt>
      <trkpt lat="43.91328" lon="7.33489">
        <ele>986.9304199</ele>
        <time>2012-05-08T10:00:18Z</time>
      </trkpt>
      <trkpt lat="43.91324" lon="7.33486">
        <ele>987.8918457</ele>
        <time>2012-05-08T10:00:22Z</time>
      </trkpt>
      <trkpt lat="43.9129" lon="7.3349">
        <ele>991.7373047</ele>
        <time>2012-05-08T10:00:42Z</time>
      </trkpt>
      <trkpt lat="43.91283" lon="7.3349">
        <ele>991.7373047</ele>
        <time>2012-05-08T10:00:46Z</time>
      </trkpt>
      <trkpt lat="43.91277" lon="7.33489">
        <ele>992.2180176</ele>
        <time>2012-05-08T10:00:49Z</time>
      </trkpt>
      <trkpt lat="43.91269" lon="7.33445">
        <ele>995.1018066</ele>
        <time>2012-05-08T10:01:05Z</time>
      </trkpt>
      <trkpt lat="43.91273" lon="7.33413">
        <ele>998.4663086</ele>
        <time>2012-05-08T10:01:21Z</time>
      </trkpt>
      <trkpt lat="43.91256" lon="7.33404">
        <ele>1000.8696289</ele>
        <time>2012-05-08T10:01:38Z</time>
      </trkpt>
      <trkpt lat="43.91226" lon="7.33435">
        <ele>1003.7536621</ele>
        <time>2012-05-08T10:01:59Z</time>
      </trkpt>
      <trkpt lat="43.91188" lon="7.33444">
        <ele>1006.1569824</ele>
        <time>2012-05-08T10:02:20Z</time>
      </trkpt>
      <trkpt lat="43.91172" lon="7.3344">
        <ele>1008.079834</ele>
        <time>2012-05-08T10:02:31Z</time>
      </trkpt>
      <trkpt lat="43.91164" lon="7.3344">
        <ele>1009.0410156</ele>
        <time>2012-05-08T10:02:36Z</time>
      </trkpt>
      <trkpt lat="43.91156" lon="7.33438">
        <ele>1009.5217285</ele>
        <time>2012-05-08T10:02:41Z</time>
      </trkpt>
      <trkpt lat="43.91128" lon="7.33443">
        <ele>1013.3669434</ele>
        <time>2012-05-08T10:02:59Z</time>
      </trkpt>
      <trkpt lat="43.91118" lon="7.33443">
        <ele>1014.8088379</ele>
        <time>2012-05-08T10:03:05Z</time>
      </trkpt>
      <trkpt lat="43.91114" lon="7.33441">
        <ele>1014.328125</ele>
        <time>2012-05-08T10:03:07Z</time>
      </trkpt>
      <trkpt lat="43.91107" lon="7.33399">
        <ele>1016.2507324</ele>
        <time>2012-05-08T10:03:22Z</time>
      </trkpt>
      <trkpt lat="43.91113" lon="7.33386">
        <ele>1017.2121582</ele>
        <time>2012-05-08T10:03:28Z</time>
      </trkpt>
      <trkpt lat="43.91124" lon="7.33338">
        <ele>1020.0961914</ele>
        <time>2012-05-08T10:03:52Z</time>
      </trkpt>
      <trkpt lat="43.91124" lon="7.3333">
        <ele>1020.5769043</ele>
        <time>2012-05-08T10:03:56Z</time>
      </trkpt>
      <trkpt lat="43.91122" lon="7.33316">
        <ele>1021.5380859</ele>
        <time>2012-05-08T10:03:59Z</time>
      </trkpt>
      <trkpt lat="43.91119" lon="7.33305">
        <ele>1021.0576172</ele>
        <time>2012-05-08T10:04:03Z</time>
      </trkpt>
      <trkpt lat="43.91118" lon="7.33299">
        <ele>1022.0187988</ele>
        <time>2012-05-08T10:04:05Z</time>
      </trkpt>
      <trkpt lat="43.9111" lon="7.33288">
        <ele>1023.9414063</ele>
        <time>2012-05-08T10:04:12Z</time>
      </trkpt>
      <trkpt lat="43.91098" lon="7.33281">
        <ele>1024.4221191</ele>
        <time>2012-05-08T10:04:19Z</time>
      </trkpt>
      <trkpt lat="43.91074" lon="7.33277">
        <ele>1026.3447266</ele>
        <time>2012-05-08T10:04:33Z</time>
      </trkpt>
      <trkpt lat="43.91067" lon="7.33278">
        <ele>1027.3061523</ele>
        <time>2012-05-08T10:04:39Z</time>
      </trkpt>
      <trkpt lat="43.91039" lon="7.33301">
        <ele>1030.6706543</ele>
        <time>2012-05-08T10:04:57Z</time>
      </trkpt>
      <trkpt lat="43.91035" lon="7.33302">
        <ele>1031.1513672</ele>
        <time>2012-05-08T10:05:00Z</time>
      </trkpt>
      <trkpt lat="43.91024" lon="7.33324">
        <ele>1032.5932617</ele>
        <time>2012-05-08T10:05:11Z</time>
      </trkpt>
      <trkpt lat="43.91022" lon="7.33346">
        <ele>1034.0351563</ele>
        <time>2012-05-08T10:05:20Z</time>
      </trkpt>
      <trkpt lat="43.91018" lon="7.33366">
        <ele>1036.4387207</ele>
        <time>2012-05-08T10:05:28Z</time>
      </trkpt>
      <trkpt lat="43.90989" lon="7.33376">
        <ele>1037.8806152</ele>
        <time>2012-05-08T10:05:47Z</time>
      </trkpt>
      <trkpt lat="43.90941" lon="7.3338">
        <ele>1040.7644043</ele>
        <time>2012-05-08T10:06:13Z</time>
      </trkpt>
      <trkpt lat="43.90916" lon="7.3338">
        <ele>1043.6484375</ele>
        <time>2012-05-08T10:06:27Z</time>
      </trkpt>
      <trkpt lat="43.90902" lon="7.33394">
        <ele>1044.6096191</ele>
        <time>2012-05-08T10:06:36Z</time>
      </trkpt>
      <trkpt lat="43.9087" lon="7.33396">
        <ele>1047.4936523</ele>
        <time>2012-05-08T10:06:54Z</time>
      </trkpt>
      <trkpt lat="43.90837" lon="7.334">
        <ele>1049.8969727</ele>
        <time>2012-05-08T10:07:11Z</time>
      </trkpt>
      <trkpt lat="43.9082" lon="7.33366">
        <ele>1051.8195801</ele>
        <time>2012-05-08T10:07:27Z</time>
      </trkpt>
      <trkpt lat="43.90791" lon="7.3334">
        <ele>1053.2617188</ele>
        <time>2012-05-08T10:07:47Z</time>
      </trkpt>
      <trkpt lat="43.90764" lon="7.33348">
        <ele>1054.2231445</ele>
        <time>2012-05-08T10:08:01Z</time>
      </trkpt>
      <trkpt lat="43.9076" lon="7.33353">
        <ele>1054.7036133</ele>
        <time>2012-05-08T10:08:17Z</time>
      </trkpt>
      <trkpt lat="43.9076" lon="7.33353">
        <ele>1054.2231445</ele>
        <time>2012-05-08T10:08:57Z</time>
      </trkpt>
      <trkpt lat="43.9076" lon="7.33353">
        <ele>1054.7036133</ele>
        <time>2012-05-08T10:10:31Z</time>
      </trkpt>
      <trkpt lat="43.90755" lon="7.33343">
        <ele>1055.1843262</ele>
        <time>2012-05-08T10:10:43Z</time>
      </trkpt>
      <trkpt lat="43.90747" lon="7.33345">
        <ele>1052.7810059</ele>
        <time>2012-05-08T10:10:48Z</time>
      </trkpt>
      <trkpt lat="43.90744" lon="7.33349">
        <ele>1051.3388672</ele>
        <time>2012-05-08T10:10:50Z</time>
      </trkpt>
      <trkpt lat="43.9074" lon="7.33354">
        <ele>1049.4162598</ele>
        <time>2012-05-08T10:10:52Z</time>
      </trkpt>
      <trkpt lat="43.90734" lon="7.33363">
        <ele>1047.9743652</ele>
        <time>2012-05-08T10:10:56Z</time>
      </trkpt>
      <trkpt lat="43.90711" lon="7.33358">
        <ele>1047.4936523</ele>
        <time>2012-05-08T10:11:05Z</time>
      </trkpt>
      <trkpt lat="43.90689" lon="7.33349">
        <ele>1046.0517578</ele>
        <time>2012-05-08T10:11:14Z</time>
      </trkpt>
      <trkpt lat="43.90655" lon="7.33366">
        <ele>1042.6872559</ele>
        <time>2012-05-08T10:11:24Z</time>
      </trkpt>
      <trkpt lat="43.90652" lon="7.33369">
        <ele>1042.6872559</ele>
        <time>2012-05-08T10:11:25Z</time>
      </trkpt>
      <trkpt lat="43.90647" lon="7.33374">
        <ele>1041.2451172</ele>
        <time>2012-05-08T10:11:27Z</time>
      </trkpt>
      <trkpt lat="43.90641" lon="7.33379">
        <ele>1039.3225098</ele>
        <time>2012-05-08T10:11:30Z</time>
      </trkpt>
      <trkpt lat="43.90636" lon="7.3338">
        <ele>1038.3613281</ele>
        <time>2012-05-08T10:11:32Z</time>
      </trkpt>
      <trkpt lat="43.9063" lon="7.33382">
        <ele>1035.9577637</ele>
        <time>2012-05-08T10:11:36Z</time>
      </trkpt>
      <trkpt lat="43.9063" lon="7.33382">
        <ele>1034.996582</ele>
        <time>2012-05-08T10:11:37Z</time>
      </trkpt>
      <trkpt lat="43.90626" lon="7.33382">
        <ele>1034.5158691</ele>
        <time>2012-05-08T10:11:39Z</time>
      </trkpt>
      <trkpt lat="43.9062" lon="7.33382">
        <ele>1033.0737305</ele>
        <time>2012-05-08T10:11:41Z</time>
      </trkpt>
      <trkpt lat="43.90617" lon="7.33381">
        <ele>1031.6318359</ele>
        <time>2012-05-08T10:11:42Z</time>
      </trkpt>
      <trkpt lat="43.90609" lon="7.3338">
        <ele>1028.7480469</ele>
        <time>2012-05-08T10:11:47Z</time>
      </trkpt>
      <trkpt lat="43.90603" lon="7.33386">
        <ele>1027.3061523</ele>
        <time>2012-05-08T10:11:50Z</time>
      </trkpt>
      <trkpt lat="43.90598" lon="7.33389">
        <ele>1025.8640137</ele>
        <time>2012-05-08T10:11:52Z</time>
      </trkpt>
      <trkpt lat="43.90593" lon="7.33394">
        <ele>1022.4995117</ele>
        <time>2012-05-08T10:11:54Z</time>
      </trkpt>
      <trkpt lat="43.9059" lon="7.33397">
        <ele>1022.4995117</ele>
        <time>2012-05-08T10:11:55Z</time>
      </trkpt>
      <trkpt lat="43.90583" lon="7.33404">
        <ele>1020.0961914</ele>
        <time>2012-05-08T10:11:57Z</time>
      </trkpt>
      <trkpt lat="43.90581" lon="7.33406">
        <ele>1019.6154785</ele>
        <time>2012-05-08T10:11:58Z</time>
      </trkpt>
      <trkpt lat="43.90572" lon="7.33414">
        <ele>1018.1733398</ele>
        <time>2012-05-08T10:12:02Z</time>
      </trkpt>
      <trkpt lat="43.90564" lon="7.33417">
        <ele>1016.2507324</ele>
        <time>2012-05-08T10:12:05Z</time>
      </trkpt>
      <trkpt lat="43.90536" lon="7.33436">
        <ele>1014.328125</ele>
        <time>2012-05-08T10:12:14Z</time>
      </trkpt>
      <trkpt lat="43.90516" lon="7.33462">
        <ele>1010.0021973</ele>
        <time>2012-05-08T10:12:22Z</time>
      </trkpt>
      <trkpt lat="43.9051" lon="7.33469">
        <ele>1008.079834</ele>
        <time>2012-05-08T10:12:25Z</time>
      </trkpt>
      <trkpt lat="43.90502" lon="7.33473">
        <ele>1006.1569824</ele>
        <time>2012-05-08T10:12:29Z</time>
      </trkpt>
      <trkpt lat="43.90502" lon="7.33473">
        <ele>1005.1958008</ele>
        <time>2012-05-08T10:12:42Z</time>
      </trkpt>
      <trkpt lat="43.90498" lon="7.33473">
        <ele>1003.2729492</ele>
        <time>2012-05-08T10:12:54Z</time>
      </trkpt>
      <trkpt lat="43.90492" lon="7.33467">
        <ele>1001.8310547</ele>
        <time>2012-05-08T10:12:57Z</time>
      </trkpt>
      <trkpt lat="43.90488" lon="7.33466">
        <ele>999.9084473</ele>
        <time>2012-05-08T10:13:00Z</time>
      </trkpt>
      <trkpt lat="43.90486" lon="7.33465">
        <ele>998.9470215</ele>
        <time>2012-05-08T10:13:02Z</time>
      </trkpt>
      <trkpt lat="43.90484" lon="7.33463">
        <ele>997.505127</ele>
        <time>2012-05-08T10:13:04Z</time>
      </trkpt>
      <trkpt lat="43.9048" lon="7.33463">
        <ele>995.1018066</ele>
        <time>2012-05-08T10:13:06Z</time>
      </trkpt>
      <trkpt lat="43.90473" lon="7.33468">
        <ele>993.1791992</ele>
        <time>2012-05-08T10:13:10Z</time>
      </trkpt>
      <trkpt lat="43.90466" lon="7.33467">
        <ele>990.7758789</ele>
        <time>2012-05-08T10:13:15Z</time>
      </trkpt>
      <trkpt lat="43.9046" lon="7.33466">
        <ele>987.4111328</ele>
        <time>2012-05-08T10:13:45Z</time>
      </trkpt>
      <trkpt lat="43.90459" lon="7.33466">
        <ele>987.4111328</ele>
        <time>2012-05-08T10:13:46Z</time>
      </trkpt>
      <trkpt lat="43.90454" lon="7.33463">
        <ele>985.9692383</ele>
        <time>2012-05-08T10:13:55Z</time>
      </trkpt>
      <trkpt lat="43.90453" lon="7.33462">
        <ele>985.0080566</ele>
        <time>2012-05-08T10:13:56Z</time>
      </trkpt>
      <trkpt lat="43.90451" lon="7.33453">
        <ele>981.1628418</ele>
        <time>2012-05-08T10:14:10Z</time>
      </trkpt>
      <trkpt lat="43.90446" lon="7.33448">
        <ele>977.7980957</ele>
        <time>2012-05-08T10:14:22Z</time>
      </trkpt>
      <trkpt lat="43.90451" lon="7.3344">
        <ele>975.3947754</ele>
        <time>2012-05-08T10:14:35Z</time>
      </trkpt>
      <trkpt lat="43.90454" lon="7.33435">
        <ele>973.4724121</ele>
        <time>2012-05-08T10:14:44Z</time>
      </trkpt>
      <trkpt lat="43.90455" lon="7.33431">
        <ele>971.5493164</ele>
        <time>2012-05-08T10:14:46Z</time>
      </trkpt>
      <trkpt lat="43.90455" lon="7.33431">
        <ele>970.5881348</ele>
        <time>2012-05-08T10:15:41Z</time>
      </trkpt>
      <trkpt lat="43.90455" lon="7.33431">
        <ele>970.5881348</ele>
        <time>2012-05-08T10:15:53Z</time>
      </trkpt>
      <trkpt lat="43.90449" lon="7.33431">
        <ele>969.1462402</ele>
        <time>2012-05-08T10:15:57Z</time>
      </trkpt>
      <trkpt lat="43.9044" lon="7.33435">
        <ele>969.1462402</ele>
        <time>2012-05-08T10:16:06Z</time>
      </trkpt>
      <trkpt lat="43.90415" lon="7.33451">
        <ele>967.2236328</ele>
        <time>2012-05-08T10:16:17Z</time>
      </trkpt>
      <trkpt lat="43.9041" lon="7.3346">
        <ele>966.262207</ele>
        <time>2012-05-08T10:16:19Z</time>
      </trkpt>
      <trkpt lat="43.90407" lon="7.3348">
        <ele>965.7817383</ele>
        <time>2012-05-08T10:16:24Z</time>
      </trkpt>
      <trkpt lat="43.90396" lon="7.33506">
        <ele>963.378418</ele>
        <time>2012-05-08T10:16:30Z</time>
      </trkpt>
      <trkpt lat="43.90391" lon="7.33515">
        <ele>965.7817383</ele>
        <time>2012-05-08T10:16:40Z</time>
      </trkpt>
      <trkpt lat="43.90386" lon="7.33529">
        <ele>967.2236328</ele>
        <time>2012-05-08T10:16:55Z</time>
      </trkpt>
      <trkpt lat="43.90386" lon="7.33529">
        <ele>967.2236328</ele>
        <time>2012-05-08T10:17:15Z</time>
      </trkpt>
      <trkpt lat="43.90393" lon="7.3355">
        <ele>967.2236328</ele>
        <time>2012-05-08T10:17:18Z</time>
      </trkpt>
      <trkpt lat="43.90401" lon="7.33559">
        <ele>968.1848145</ele>
        <time>2012-05-08T10:17:23Z</time>
      </trkpt>
      <trkpt lat="43.90407" lon="7.33563">
        <ele>970.1074219</ele>
        <time>2012-05-08T10:17:27Z</time>
      </trkpt>
      <trkpt lat="43.90415" lon="7.33568">
        <ele>970.5881348</ele>
        <time>2012-05-08T10:17:33Z</time>
      </trkpt>
      <trkpt lat="43.90424" lon="7.33575">
        <ele>972.0302734</ele>
        <time>2012-05-08T10:17:39Z</time>
      </trkpt>
      <trkpt lat="43.90431" lon="7.33586">
        <ele>973.4724121</ele>
        <time>2012-05-08T10:17:46Z</time>
      </trkpt>
      <trkpt lat="43.90437" lon="7.33591">
        <ele>972.5109863</ele>
        <time>2012-05-08T10:17:51Z</time>
      </trkpt>
      <trkpt lat="43.90443" lon="7.33595">
        <ele>971.0688477</ele>
        <time>2012-05-08T10:17:54Z</time>
      </trkpt>
      <trkpt lat="43.90461" lon="7.33605">
        <ele>968.1848145</ele>
        <time>2012-05-08T10:18:01Z</time>
      </trkpt>
      <trkpt lat="43.90463" lon="7.33605">
        <ele>967.7041016</ele>
        <time>2012-05-08T10:18:02Z</time>
      </trkpt>
      <trkpt lat="43.90468" lon="7.33606">
        <ele>966.7429199</ele>
        <time>2012-05-08T10:18:06Z</time>
      </trkpt>
      <trkpt lat="43.90464" lon="7.33615">
        <ele>966.7429199</ele>
        <time>2012-05-08T10:18:11Z</time>
      </trkpt>
      <trkpt lat="43.90454" lon="7.33624">
        <ele>966.7429199</ele>
        <time>2012-05-08T10:18:17Z</time>
      </trkpt>
      <trkpt lat="43.90445" lon="7.33638">
        <ele>966.262207</ele>
        <time>2012-05-08T10:18:34Z</time>
      </trkpt>
      <trkpt lat="43.90444" lon="7.33639">
        <ele>966.262207</ele>
        <time>2012-05-08T10:18:36Z</time>
      </trkpt>
      <trkpt lat="43.90437" lon="7.33636">
        <ele>966.7429199</ele>
        <time>2012-05-08T10:18:40Z</time>
      </trkpt>
      <trkpt lat="43.90429" lon="7.33633">
        <ele>967.7041016</ele>
        <time>2012-05-08T10:18:52Z</time>
      </trkpt>
      <trkpt lat="43.9042" lon="7.33634">
        <ele>969.1462402</ele>
        <time>2012-05-08T10:18:59Z</time>
      </trkpt>
      <trkpt lat="43.90418" lon="7.33643">
        <ele>968.6655273</ele>
        <time>2012-05-08T10:19:03Z</time>
      </trkpt>
      <trkpt lat="43.90416" lon="7.33653">
        <ele>966.262207</ele>
        <time>2012-05-08T10:19:08Z</time>
      </trkpt>
      <trkpt lat="43.90411" lon="7.33654">
        <ele>966.262207</ele>
        <time>2012-05-08T10:19:13Z</time>
      </trkpt>
      <trkpt lat="43.90409" lon="7.33654">
        <ele>966.262207</ele>
        <time>2012-05-08T10:19:15Z</time>
      </trkpt>
      <trkpt lat="43.90396" lon="7.33638">
        <ele>967.7041016</ele>
        <time>2012-05-08T10:19:26Z</time>
      </trkpt>
      <trkpt lat="43.90391" lon="7.33629">
        <ele>969.1462402</ele>
        <time>2012-05-08T10:19:34Z</time>
      </trkpt>
      <trkpt lat="43.90383" lon="7.3362">
        <ele>971.5493164</ele>
        <time>2012-05-08T10:19:48Z</time>
      </trkpt>
      <trkpt lat="43.90377" lon="7.33614">
        <ele>973.4724121</ele>
        <time>2012-05-08T10:20:03Z</time>
      </trkpt>
      <trkpt lat="43.90362" lon="7.33603">
        <ele>974.9143066</ele>
        <time>2012-05-08T10:20:17Z</time>
      </trkpt>
      <trkpt lat="43.90345" lon="7.33592">
        <ele>977.317627</ele>
        <time>2012-05-08T10:20:34Z</time>
      </trkpt>
      <trkpt lat="43.90342" lon="7.33591">
        <ele>977.7980957</ele>
        <time>2012-05-08T10:20:36Z</time>
      </trkpt>
      <trkpt lat="43.90338" lon="7.33588">
        <ele>979.2399902</ele>
        <time>2012-05-08T10:20:44Z</time>
      </trkpt>
      <trkpt lat="43.90322" lon="7.3358">
        <ele>982.6047363</ele>
        <time>2012-05-08T10:21:03Z</time>
      </trkpt>
      <trkpt lat="43.90316" lon="7.33571">
        <ele>984.5273438</ele>
        <time>2012-05-08T10:21:18Z</time>
      </trkpt>
      <trkpt lat="43.90307" lon="7.33558">
        <ele>987.8918457</ele>
        <time>2012-05-08T10:21:35Z</time>
      </trkpt>
      <trkpt lat="43.90296" lon="7.33556">
        <ele>990.2954102</ele>
        <time>2012-05-08T10:22:03Z</time>
      </trkpt>
      <trkpt lat="43.90295" lon="7.33557">
        <ele>990.2954102</ele>
        <time>2012-05-08T10:23:47Z</time>
      </trkpt>
      <trkpt lat="43.90294" lon="7.33561">
        <ele>990.2954102</ele>
        <time>2012-05-08T10:24:17Z</time>
      </trkpt>
      <trkpt lat="43.90294" lon="7.33561">
        <ele>991.2565918</ele>
        <time>2012-05-08T10:29:19Z</time>
      </trkpt>
      <trkpt lat="43.90285" lon="7.3357">
        <ele>989.8146973</ele>
        <time>2012-05-08T10:29:23Z</time>
      </trkpt>
      <trkpt lat="43.90256" lon="7.33565">
        <ele>988.3728027</ele>
        <time>2012-05-08T10:29:26Z</time>
      </trkpt>
      <trkpt lat="43.90272" lon="7.33583">
        <ele>987.8918457</ele>
        <time>2012-05-08T10:29:28Z</time>
      </trkpt>
      <trkpt lat="43.90268" lon="7.33585">
        <ele>989.3339844</ele>
        <time>2012-05-08T10:29:31Z</time>
      </trkpt>
      <trkpt lat="43.90266" lon="7.33584">
        <ele>990.2954102</ele>
        <time>2012-05-08T10:29:32Z</time>
      </trkpt>
      <trkpt lat="43.90256" lon="7.33592">
        <ele>992.6987305</ele>
        <time>2012-05-08T10:29:40Z</time>
      </trkpt>
      <trkpt lat="43.90253" lon="7.33594">
        <ele>994.140625</ele>
        <time>2012-05-08T10:29:42Z</time>
      </trkpt>
      <trkpt lat="43.90251" lon="7.33595">
        <ele>994.140625</ele>
        <time>2012-05-08T10:29:43Z</time>
      </trkpt>
      <trkpt lat="43.90244" lon="7.33607">
        <ele>996.5439453</ele>
        <time>2012-05-08T10:29:58Z</time>
      </trkpt>
      <trkpt lat="43.90238" lon="7.33614">
        <ele>998.9470215</ele>
        <time>2012-05-08T10:30:08Z</time>
      </trkpt>
      <trkpt lat="43.90229" lon="7.33621">
        <ele>1000.3891602</ele>
        <time>2012-05-08T10:30:18Z</time>
      </trkpt>
      <trkpt lat="43.90212" lon="7.33628">
        <ele>1003.2729492</ele>
        <time>2012-05-08T10:30:36Z</time>
      </trkpt>
      <trkpt lat="43.90211" lon="7.33628">
        <ele>1003.2729492</ele>
        <time>2012-05-08T10:30:37Z</time>
      </trkpt>
      <trkpt lat="43.9021" lon="7.33627">
        <ele>1003.7536621</ele>
        <time>2012-05-08T10:30:40Z</time>
      </trkpt>
      <trkpt lat="43.90204" lon="7.33629">
        <ele>1003.7536621</ele>
        <time>2012-05-08T10:30:46Z</time>
      </trkpt>
      <trkpt lat="43.90197" lon="7.33634">
        <ele>1005.1958008</ele>
        <time>2012-05-08T10:30:55Z</time>
      </trkpt>
      <trkpt lat="43.90186" lon="7.33642">
        <ele>1006.6376953</ele>
        <time>2012-05-08T10:31:05Z</time>
      </trkpt>
      <trkpt lat="43.90181" lon="7.33647">
        <ele>1007.5991211</ele>
        <time>2012-05-08T10:31:10Z</time>
      </trkpt>
      <trkpt lat="43.90175" lon="7.33645">
        <ele>1007.5991211</ele>
        <time>2012-05-08T10:31:23Z</time>
      </trkpt>
      <trkpt lat="43.90185" lon="7.33662">
        <ele>1007.1184082</ele>
        <time>2012-05-08T10:31:32Z</time>
      </trkpt>
      <trkpt lat="43.90203" lon="7.33698">
        <ele>1008.5603027</ele>
        <time>2012-05-08T10:31:54Z</time>
      </trkpt>
      <trkpt lat="43.90208" lon="7.33718">
        <ele>1010.963623</ele>
        <time>2012-05-08T10:32:10Z</time>
      </trkpt>
      <trkpt lat="43.9021" lon="7.33731">
        <ele>1014.328125</ele>
        <time>2012-05-08T10:32:23Z</time>
      </trkpt>
      <trkpt lat="43.90212" lon="7.3375">
        <ele>1018.1733398</ele>
        <time>2012-05-08T10:32:41Z</time>
      </trkpt>
      <trkpt lat="43.90209" lon="7.33758">
        <ele>1020.0961914</ele>
        <time>2012-05-08T10:32:52Z</time>
      </trkpt>
      <trkpt lat="43.90202" lon="7.3377">
        <ele>1023.4609375</ele>
        <time>2012-05-08T10:33:13Z</time>
      </trkpt>
      <trkpt lat="43.90191" lon="7.33782">
        <ele>1026.3447266</ele>
        <time>2012-05-08T10:33:32Z</time>
      </trkpt>
      <trkpt lat="43.9019" lon="7.33784">
        <ele>1027.3061523</ele>
        <time>2012-05-08T10:33:34Z</time>
      </trkpt>
      <trkpt lat="43.9018" lon="7.33797">
        <ele>1030.1899414</ele>
        <time>2012-05-08T10:33:53Z</time>
      </trkpt>
      <trkpt lat="43.9018" lon="7.33799">
        <ele>1030.1899414</ele>
        <time>2012-05-08T10:33:59Z</time>
      </trkpt>
      <trkpt lat="43.90169" lon="7.33804">
        <ele>1030.1899414</ele>
        <time>2012-05-08T10:34:06Z</time>
      </trkpt>
      <trkpt lat="43.90133" lon="7.33821">
        <ele>1027.7866211</ele>
        <time>2012-05-08T10:34:21Z</time>
      </trkpt>
      <trkpt lat="43.9012" lon="7.33833">
        <ele>1026.3447266</ele>
        <time>2012-05-08T10:34:25Z</time>
      </trkpt>
      <trkpt lat="43.90108" lon="7.33851">
        <ele>1025.8640137</ele>
        <time>2012-05-08T10:34:29Z</time>
      </trkpt>
      <trkpt lat="43.90106" lon="7.33864">
        <ele>1024.4221191</ele>
        <time>2012-05-08T10:34:31Z</time>
      </trkpt>
      <trkpt lat="43.90103" lon="7.33892">
        <ele>1023.4609375</ele>
        <time>2012-05-08T10:34:35Z</time>
      </trkpt>
      <trkpt lat="43.90096" lon="7.33919">
        <ele>1022.0187988</ele>
        <time>2012-05-08T10:34:39Z</time>
      </trkpt>
      <trkpt lat="43.90092" lon="7.33924">
        <ele>1021.5380859</ele>
        <time>2012-05-08T10:34:40Z</time>
      </trkpt>
      <trkpt lat="43.90083" lon="7.33934">
        <ele>1021.5380859</ele>
        <time>2012-05-08T10:34:42Z</time>
      </trkpt>
      <trkpt lat="43.90073" lon="7.3396">
        <ele>1020.0961914</ele>
        <time>2012-05-08T10:34:46Z</time>
      </trkpt>
      <trkpt lat="43.90077" lon="7.33977">
        <ele>1019.1347656</ele>
        <time>2012-05-08T10:34:48Z</time>
      </trkpt>
      <trkpt lat="43.90086" lon="7.34048">
        <ele>1016.2507324</ele>
        <time>2012-05-08T10:34:55Z</time>
      </trkpt>
      <trkpt lat="43.9009" lon="7.34117">
        <ele>1013.3669434</ele>
        <time>2012-05-08T10:35:01Z</time>
      </trkpt>
      <trkpt lat="43.90075" lon="7.34162">
        <ele>1011.4443359</ele>
        <time>2012-05-08T10:35:06Z</time>
      </trkpt>
      <trkpt lat="43.90051" lon="7.34164">
        <ele>1010.0021973</ele>
        <time>2012-05-08T10:35:09Z</time>
      </trkpt>
      <trkpt lat="43.90035" lon="7.34157">
        <ele>1008.5603027</ele>
        <time>2012-05-08T10:35:11Z</time>
      </trkpt>
      <trkpt lat="43.90017" lon="7.34147">
        <ele>1007.1184082</ele>
        <time>2012-05-08T10:35:13Z</time>
      </trkpt>
      <trkpt lat="43.89988" lon="7.34131">
        <ele>1005.1958008</ele>
        <time>2012-05-08T10:35:16Z</time>
      </trkpt>
      <trkpt lat="43.89969" lon="7.34121">
        <ele>1003.2729492</ele>
        <time>2012-05-08T10:35:18Z</time>
      </trkpt>
      <trkpt lat="43.89947" lon="7.34113">
        <ele>1001.8310547</ele>
        <time>2012-05-08T10:35:20Z</time>
      </trkpt>
      <trkpt lat="43.89926" lon="7.34101">
        <ele>997.0244141</ele>
        <time>2012-05-08T10:35:22Z</time>
      </trkpt>
      <trkpt lat="43.89915" lon="7.34096">
        <ele>997.0244141</ele>
        <time>2012-05-08T10:35:23Z</time>
      </trkpt>
      <trkpt lat="43.89866" lon="7.34069">
        <ele>996.0632324</ele>
        <time>2012-05-08T10:35:28Z</time>
      </trkpt>
      <trkpt lat="43.89842" lon="7.34055">
        <ele>996.0632324</ele>
        <time>2012-05-08T10:35:31Z</time>
      </trkpt>
      <trkpt lat="43.89817" lon="7.34028">
        <ele>996.0632324</ele>
        <time>2012-05-08T10:35:36Z</time>
      </trkpt>
      <trkpt lat="43.89776" lon="7.34049">
        <ele>995.1018066</ele>
        <time>2012-05-08T10:35:45Z</time>
      </trkpt>
      <trkpt lat="43.89737" lon="7.3404">
        <ele>996.0632324</ele>
        <time>2012-05-08T10:35:54Z</time>
      </trkpt>
      <trkpt lat="43.89725" lon="7.34008">
        <ele>997.0244141</ele>
        <time>2012-05-08T10:36:00Z</time>
      </trkpt>
      <trkpt lat="43.89728" lon="7.33971">
        <ele>996.5439453</ele>
        <time>2012-05-08T10:36:06Z</time>
      </trkpt>
      <trkpt lat="43.89731" lon="7.33959">
        <ele>996.5439453</ele>
        <time>2012-05-08T10:36:08Z</time>
      </trkpt>
      <trkpt lat="43.89707" lon="7.33931">
        <ele>996.0632324</ele>
        <time>2012-05-08T10:36:18Z</time>
      </trkpt>
      <trkpt lat="43.89677" lon="7.3396">
        <ele>996.0632324</ele>
        <time>2012-05-08T10:36:28Z</time>
      </trkpt>
      <trkpt lat="43.89651" lon="7.33989">
        <ele>995.1018066</ele>
        <time>2012-05-08T10:36:35Z</time>
      </trkpt>
      <trkpt lat="43.89635" lon="7.3399">
        <ele>994.140625</ele>
        <time>2012-05-08T10:36:38Z</time>
      </trkpt>
      <trkpt lat="43.89613" lon="7.33976">
        <ele>993.6599121</ele>
        <time>2012-05-08T10:36:42Z</time>
      </trkpt>
      <trkpt lat="43.89599" lon="7.33931">
        <ele>992.6987305</ele>
        <time>2012-05-08T10:36:55Z</time>
      </trkpt>
      <trkpt lat="43.89599" lon="7.33931">
        <ele>992.2180176</ele>
        <time>2012-05-08T10:37:10Z</time>
      </trkpt>
      <trkpt lat="43.89595" lon="7.33933">
        <ele>992.6987305</ele>
        <time>2012-05-08T10:37:16Z</time>
      </trkpt>
      <trkpt lat="43.89571" lon="7.33951">
        <ele>995.5825195</ele>
        <time>2012-05-08T10:37:29Z</time>
      </trkpt>
      <trkpt lat="43.89566" lon="7.33994">
        <ele>998.9470215</ele>
        <time>2012-05-08T10:37:47Z</time>
      </trkpt>
      <trkpt lat="43.89565" lon="7.34028">
        <ele>1000.8696289</ele>
        <time>2012-05-08T10:38:01Z</time>
      </trkpt>
      <trkpt lat="43.89551" lon="7.34039">
        <ele>1001.8310547</ele>
        <time>2012-05-08T10:38:10Z</time>
      </trkpt>
      <trkpt lat="43.89512" lon="7.34063">
        <ele>1006.1569824</ele>
        <time>2012-05-08T10:38:34Z</time>
      </trkpt>
      <trkpt lat="43.89493" lon="7.34087">
        <ele>1008.079834</ele>
        <time>2012-05-08T10:38:48Z</time>
      </trkpt>
      <trkpt lat="43.89491" lon="7.34091">
        <ele>1008.5603027</ele>
        <time>2012-05-08T10:38:50Z</time>
      </trkpt>
      <trkpt lat="43.89483" lon="7.34097">
        <ele>1009.0410156</ele>
        <time>2012-05-08T10:38:55Z</time>
      </trkpt>
      <trkpt lat="43.89479" lon="7.341">
        <ele>1009.5217285</ele>
        <time>2012-05-08T10:38:57Z</time>
      </trkpt>
      <trkpt lat="43.8944" lon="7.34123">
        <ele>1012.4055176</ele>
        <time>2012-05-08T10:39:20Z</time>
      </trkpt>
      <trkpt lat="43.89427" lon="7.34132">
        <ele>1014.328125</ele>
        <time>2012-05-08T10:39:28Z</time>
      </trkpt>
      <trkpt lat="43.89399" lon="7.34151">
        <ele>1017.692627</ele>
        <time>2012-05-08T10:39:46Z</time>
      </trkpt>
      <trkpt lat="43.89359" lon="7.34184">
        <ele>1021.0576172</ele>
        <time>2012-05-08T10:40:13Z</time>
      </trkpt>
      <trkpt lat="43.89326" lon="7.34208">
        <ele>1024.4221191</ele>
        <time>2012-05-08T10:40:34Z</time>
      </trkpt>
      <trkpt lat="43.89293" lon="7.3423">
        <ele>1026.3447266</ele>
        <time>2012-05-08T10:40:54Z</time>
      </trkpt>
      <trkpt lat="43.89288" lon="7.34234">
        <ele>1027.7866211</ele>
        <time>2012-05-08T10:40:58Z</time>
      </trkpt>
      <trkpt lat="43.89283" lon="7.3424">
        <ele>1027.7866211</ele>
        <time>2012-05-08T10:41:01Z</time>
      </trkpt>
      <trkpt lat="43.89271" lon="7.34301">
        <ele>1031.6318359</ele>
        <time>2012-05-08T10:41:27Z</time>
      </trkpt>
      <trkpt lat="43.89277" lon="7.34357">
        <ele>1034.5158691</ele>
        <time>2012-05-08T10:41:49Z</time>
      </trkpt>
      <trkpt lat="43.89275" lon="7.34403">
        <ele>1037.8806152</ele>
        <time>2012-05-08T10:42:09Z</time>
      </trkpt>
      <trkpt lat="43.89268" lon="7.34427">
        <ele>1039.3225098</ele>
        <time>2012-05-08T10:42:20Z</time>
      </trkpt>
      <trkpt lat="43.89244" lon="7.34468">
        <ele>1042.6872559</ele>
        <time>2012-05-08T10:42:42Z</time>
      </trkpt>
      <trkpt lat="43.89222" lon="7.34497">
        <ele>1045.5710449</ele>
        <time>2012-05-08T10:43:00Z</time>
      </trkpt>
      <trkpt lat="43.89194" lon="7.34535">
        <ele>1047.9743652</ele>
        <time>2012-05-08T10:43:23Z</time>
      </trkpt>
      <trkpt lat="43.89204" lon="7.34541">
        <ele>1047.9743652</ele>
        <time>2012-05-08T10:43:33Z</time>
      </trkpt>
      <trkpt lat="43.89208" lon="7.34536">
        <ele>1049.4162598</ele>
        <time>2012-05-08T10:43:36Z</time>
      </trkpt>
      <trkpt lat="43.89229" lon="7.34513">
        <ele>1052.300293</ele>
        <time>2012-05-08T10:43:51Z</time>
      </trkpt>
      <trkpt lat="43.8925" lon="7.3449">
        <ele>1055.1843262</ele>
        <time>2012-05-08T10:44:08Z</time>
      </trkpt>
      <trkpt lat="43.89273" lon="7.34464">
        <ele>1058.5488281</ele>
        <time>2012-05-08T10:44:28Z</time>
      </trkpt>
      <trkpt lat="43.89299" lon="7.34437">
        <ele>1062.8747559</ele>
        <time>2012-05-08T10:44:49Z</time>
      </trkpt>
      <trkpt lat="43.893" lon="7.34436">
        <ele>1062.8747559</ele>
        <time>2012-05-08T10:44:50Z</time>
      </trkpt>
      <trkpt lat="43.89322" lon="7.34418">
        <ele>1064.3166504</ele>
        <time>2012-05-08T10:45:08Z</time>
      </trkpt>
      <trkpt lat="43.89327" lon="7.34407">
        <ele>1065.2780762</ele>
        <time>2012-05-08T10:45:16Z</time>
      </trkpt>
      <trkpt lat="43.89328" lon="7.34402">
        <ele>1066.7199707</ele>
        <time>2012-05-08T10:45:19Z</time>
      </trkpt>
      <trkpt lat="43.89332" lon="7.34392">
        <ele>1067.6811523</ele>
        <time>2012-05-08T10:45:25Z</time>
      </trkpt>
      <trkpt lat="43.89337" lon="7.34375">
        <ele>1068.6428223</ele>
        <time>2012-05-08T10:45:35Z</time>
      </trkpt>
      <trkpt lat="43.89348" lon="7.34339">
        <ele>1072.0073242</ele>
        <time>2012-05-08T10:45:56Z</time>
      </trkpt>
      <trkpt lat="43.89363" lon="7.34311">
        <ele>1074.8913574</ele>
        <time>2012-05-08T10:46:14Z</time>
      </trkpt>
      <trkpt lat="43.89383" lon="7.34286">
        <ele>1078.2558594</ele>
        <time>2012-05-08T10:46:33Z</time>
      </trkpt>
      <trkpt lat="43.89401" lon="7.34261">
        <ele>1080.6591797</ele>
        <time>2012-05-08T10:46:50Z</time>
      </trkpt>
      <trkpt lat="43.89419" lon="7.34244">
        <ele>1083.5429688</ele>
        <time>2012-05-08T10:47:05Z</time>
      </trkpt>
      <trkpt lat="43.89424" lon="7.34244">
        <ele>1083.5429688</ele>
        <time>2012-05-08T10:47:20Z</time>
      </trkpt>
      <trkpt lat="43.89455" lon="7.34234">
        <ele>1085.9465332</ele>
        <time>2012-05-08T10:47:38Z</time>
      </trkpt>
      <trkpt lat="43.89488" lon="7.34237">
        <ele>1088.8305664</ele>
        <time>2012-05-08T10:47:56Z</time>
      </trkpt>
      <trkpt lat="43.89506" lon="7.34231">
        <ele>1091.7143555</ele>
        <time>2012-05-08T10:48:06Z</time>
      </trkpt>
      <trkpt lat="43.89534" lon="7.34212">
        <ele>1095.0788574</ele>
        <time>2012-05-08T10:48:26Z</time>
      </trkpt>
      <trkpt lat="43.89557" lon="7.34195">
        <ele>1098.4433594</ele>
        <time>2012-05-08T10:48:43Z</time>
      </trkpt>
      <trkpt lat="43.89565" lon="7.3419">
        <ele>1099.4047852</ele>
        <time>2012-05-08T10:48:49Z</time>
      </trkpt>
      <trkpt lat="43.89586" lon="7.34183">
        <ele>1102.7695313</ele>
        <time>2012-05-08T10:49:01Z</time>
      </trkpt>
      <trkpt lat="43.89592" lon="7.34192">
        <ele>1103.2502441</ele>
        <time>2012-05-08T10:49:06Z</time>
      </trkpt>
      <trkpt lat="43.89594" lon="7.3421">
        <ele>1104.2116699</ele>
        <time>2012-05-08T10:49:14Z</time>
      </trkpt>
      <trkpt lat="43.89599" lon="7.34229">
        <ele>1106.1340332</ele>
        <time>2012-05-08T10:49:24Z</time>
      </trkpt>
      <trkpt lat="43.89601" lon="7.34234">
        <ele>1107.095459</ele>
        <time>2012-05-08T10:49:27Z</time>
      </trkpt>
      <trkpt lat="43.89601" lon="7.34239">
        <ele>1107.095459</ele>
        <time>2012-05-08T10:49:30Z</time>
      </trkpt>
      <trkpt lat="43.89601" lon="7.34246">
        <ele>1108.0568848</ele>
        <time>2012-05-08T10:49:34Z</time>
      </trkpt>
      <trkpt lat="43.89606" lon="7.34275">
        <ele>1110.9406738</ele>
        <time>2012-05-08T10:49:50Z</time>
      </trkpt>
      <trkpt lat="43.89608" lon="7.3429">
        <ele>1112.3825684</ele>
        <time>2012-05-08T10:50:00Z</time>
      </trkpt>
      <trkpt lat="43.8961" lon="7.34297">
        <ele>1113.3439941</ele>
        <time>2012-05-08T10:50:04Z</time>
      </trkpt>
      <trkpt lat="43.89611" lon="7.34303">
        <ele>1113.8244629</ele>
        <time>2012-05-08T10:50:07Z</time>
      </trkpt>
      <trkpt lat="43.89615" lon="7.34312">
        <ele>1114.7858887</ele>
        <time>2012-05-08T10:50:12Z</time>
      </trkpt>
      <trkpt lat="43.89617" lon="7.3432">
        <ele>1115.2666016</ele>
        <time>2012-05-08T10:50:17Z</time>
      </trkpt>
      <trkpt lat="43.89625" lon="7.34337">
        <ele>1118.6313477</ele>
        <time>2012-05-08T10:50:32Z</time>
      </trkpt>
      <trkpt lat="43.89626" lon="7.34338">
        <ele>1118.6313477</ele>
        <time>2012-05-08T10:50:33Z</time>
      </trkpt>
      <trkpt lat="43.89632" lon="7.34345">
        <ele>1119.1120605</ele>
        <time>2012-05-08T10:50:40Z</time>
      </trkpt>
      <trkpt lat="43.89651" lon="7.3436">
        <ele>1122.4765625</ele>
        <time>2012-05-08T10:50:57Z</time>
      </trkpt>
      <trkpt lat="43.89664" lon="7.34366">
        <ele>1123.4379883</ele>
        <time>2012-05-08T10:51:05Z</time>
      </trkpt>
      <trkpt lat="43.8969" lon="7.34379">
        <ele>1126.3217773</ele>
        <time>2012-05-08T10:51:24Z</time>
      </trkpt>
      <trkpt lat="43.89715" lon="7.3439">
        <ele>1129.2055664</ele>
        <time>2012-05-08T10:51:43Z</time>
      </trkpt>
      <trkpt lat="43.8973" lon="7.34395">
        <ele>1131.128418</ele>
        <time>2012-05-08T10:51:54Z</time>
      </trkpt>
      <trkpt lat="43.89763" lon="7.34409">
        <ele>1133.0510254</ele>
        <time>2012-05-08T10:52:15Z</time>
      </trkpt>
      <trkpt lat="43.89771" lon="7.3441">
        <ele>1133.5317383</ele>
        <time>2012-05-08T10:52:20Z</time>
      </trkpt>
      <trkpt lat="43.89792" lon="7.34407">
        <ele>1136.4157715</ele>
        <time>2012-05-08T10:52:34Z</time>
      </trkpt>
      <trkpt lat="43.89822" lon="7.34406">
        <ele>1139.2995605</ele>
        <time>2012-05-08T10:52:53Z</time>
      </trkpt>
      <trkpt lat="43.89849" lon="7.34407">
        <ele>1142.1835938</ele>
        <time>2012-05-08T10:53:10Z</time>
      </trkpt>
      <trkpt lat="43.89867" lon="7.34405">
        <ele>1144.1062012</ele>
        <time>2012-05-08T10:53:22Z</time>
      </trkpt>
      <trkpt lat="43.89894" lon="7.34405">
        <ele>1146.9899902</ele>
        <time>2012-05-08T10:53:39Z</time>
      </trkpt>
      <trkpt lat="43.8992" lon="7.34406">
        <ele>1148.9128418</ele>
        <time>2012-05-08T10:53:56Z</time>
      </trkpt>
      <trkpt lat="43.89935" lon="7.34411">
        <ele>1150.8354492</ele>
        <time>2012-05-08T10:54:05Z</time>
      </trkpt>
      <trkpt lat="43.89955" lon="7.34418">
        <ele>1153.2387695</ele>
        <time>2012-05-08T10:54:19Z</time>
      </trkpt>
      <trkpt lat="43.8996" lon="7.34422">
        <ele>1154.2001953</ele>
        <time>2012-05-08T10:54:23Z</time>
      </trkpt>
      <trkpt lat="43.89969" lon="7.34424">
        <ele>1154.6806641</ele>
        <time>2012-05-08T10:54:30Z</time>
      </trkpt>
      <trkpt lat="43.89976" lon="7.34426">
        <ele>1155.161377</ele>
        <time>2012-05-08T10:54:34Z</time>
      </trkpt>
      <trkpt lat="43.89992" lon="7.34429">
        <ele>1158.0454102</ele>
        <time>2012-05-08T10:54:45Z</time>
      </trkpt>
      <trkpt lat="43.89996" lon="7.34432">
        <ele>1158.0454102</ele>
        <time>2012-05-08T10:54:48Z</time>
      </trkpt>
      <trkpt lat="43.90022" lon="7.34452">
        <ele>1162.3710938</ele>
        <time>2012-05-08T10:55:09Z</time>
      </trkpt>
      <trkpt lat="43.9003" lon="7.34455">
        <ele>1162.3710938</ele>
        <time>2012-05-08T10:55:14Z</time>
      </trkpt>
      <trkpt lat="43.90032" lon="7.34458">
        <ele>1162.8518066</ele>
        <time>2012-05-08T10:55:16Z</time>
      </trkpt>
      <trkpt lat="43.90054" lon="7.34458">
        <ele>1166.2165527</ele>
        <time>2012-05-08T10:55:32Z</time>
      </trkpt>
      <trkpt lat="43.90083" lon="7.3448">
        <ele>1168.1391602</ele>
        <time>2012-05-08T10:55:54Z</time>
      </trkpt>
      <trkpt lat="43.90122" lon="7.34502">
        <ele>1171.0231934</ele>
        <time>2012-05-08T10:56:20Z</time>
      </trkpt>
      <trkpt lat="43.90146" lon="7.34507">
        <ele>1174.3876953</ele>
        <time>2012-05-08T10:56:37Z</time>
      </trkpt>
      <trkpt lat="43.90168" lon="7.34509">
        <ele>1177.2717285</ele>
        <time>2012-05-08T10:56:54Z</time>
      </trkpt>
      <trkpt lat="43.90174" lon="7.34512">
        <ele>1177.7521973</ele>
        <time>2012-05-08T10:56:58Z</time>
      </trkpt>
      <trkpt lat="43.90197" lon="7.34526">
        <ele>1180.6364746</ele>
        <time>2012-05-08T10:57:16Z</time>
      </trkpt>
      <trkpt lat="43.90204" lon="7.34529">
        <ele>1181.5976563</ele>
        <time>2012-05-08T10:57:21Z</time>
      </trkpt>
      <trkpt lat="43.90211" lon="7.34532">
        <ele>1181.5976563</ele>
        <time>2012-05-08T10:57:26Z</time>
      </trkpt>
      <trkpt lat="43.90222" lon="7.34531">
        <ele>1183.5202637</ele>
        <time>2012-05-08T10:57:36Z</time>
      </trkpt>
      <trkpt lat="43.90238" lon="7.34526">
        <ele>1185.4428711</ele>
        <time>2012-05-08T10:57:49Z</time>
      </trkpt>
      <trkpt lat="43.90264" lon="7.3452">
        <ele>1188.3269043</ele>
        <time>2012-05-08T10:58:08Z</time>
      </trkpt>
      <trkpt lat="43.9028" lon="7.34513">
        <ele>1189.7687988</ele>
        <time>2012-05-08T10:58:20Z</time>
      </trkpt>
      <trkpt lat="43.90302" lon="7.34514">
        <ele>1192.652832</ele>
        <time>2012-05-08T10:58:37Z</time>
      </trkpt>
      <trkpt lat="43.90323" lon="7.34509">
        <ele>1195.5366211</ele>
        <time>2012-05-08T10:58:53Z</time>
      </trkpt>
      <trkpt lat="43.90325" lon="7.34508">
        <ele>1195.5366211</ele>
        <time>2012-05-08T10:58:54Z</time>
      </trkpt>
      <trkpt lat="43.90349" lon="7.34492">
        <ele>1198.9013672</ele>
        <time>2012-05-08T10:59:13Z</time>
      </trkpt>
      <trkpt lat="43.90354" lon="7.34486">
        <ele>1198.9013672</ele>
        <time>2012-05-08T10:59:18Z</time>
      </trkpt>
      <trkpt lat="43.90362" lon="7.34474">
        <ele>1200.3435059</ele>
        <time>2012-05-08T10:59:27Z</time>
      </trkpt>
      <trkpt lat="43.90365" lon="7.34467">
        <ele>1201.3046875</ele>
        <time>2012-05-08T10:59:32Z</time>
      </trkpt>
      <trkpt lat="43.90378" lon="7.34457">
        <ele>1203.2272949</ele>
        <time>2012-05-08T10:59:43Z</time>
      </trkpt>
      <trkpt lat="43.90399" lon="7.34445">
        <ele>1206.5917969</ele>
        <time>2012-05-08T11:00:01Z</time>
      </trkpt>
      <trkpt lat="43.90408" lon="7.34436">
        <ele>1207.5532227</ele>
        <time>2012-05-08T11:00:09Z</time>
      </trkpt>
      <trkpt lat="43.90413" lon="7.34419">
        <ele>1208.9951172</ele>
        <time>2012-05-08T11:00:17Z</time>
      </trkpt>
      <trkpt lat="43.90419" lon="7.34417">
        <ele>1209.9562988</ele>
        <time>2012-05-08T11:00:23Z</time>
      </trkpt>
      <trkpt lat="43.90424" lon="7.34421">
        <ele>1210.9177246</ele>
        <time>2012-05-08T11:00:27Z</time>
      </trkpt>
      <trkpt lat="43.90425" lon="7.34428">
        <ele>1210.9177246</ele>
        <time>2012-05-08T11:00:30Z</time>
      </trkpt>
      <trkpt lat="43.90423" lon="7.34434">
        <ele>1211.3984375</ele>
        <time>2012-05-08T11:00:34Z</time>
      </trkpt>
      <trkpt lat="43.90418" lon="7.34442">
        <ele>1212.3598633</ele>
        <time>2012-05-08T11:00:40Z</time>
      </trkpt>
      <trkpt lat="43.90418" lon="7.34445">
        <ele>1212.8405762</ele>
        <time>2012-05-08T11:00:42Z</time>
      </trkpt>
      <trkpt lat="43.90409" lon="7.34454">
        <ele>1214.7631836</ele>
        <time>2012-05-08T11:00:50Z</time>
      </trkpt>
      <trkpt lat="43.90405" lon="7.34456">
        <ele>1214.2824707</ele>
        <time>2012-05-08T11:00:53Z</time>
      </trkpt>
      <trkpt lat="43.90386" lon="7.3448">
        <ele>1217.6469727</ele>
        <time>2012-05-08T11:01:13Z</time>
      </trkpt>
      <trkpt lat="43.90379" lon="7.34505">
        <ele>1220.050293</ele>
        <time>2012-05-08T11:01:27Z</time>
      </trkpt>
      <trkpt lat="43.90364" lon="7.34542">
        <ele>1223.4150391</ele>
        <time>2012-05-08T11:01:48Z</time>
      </trkpt>
      <trkpt lat="43.90363" lon="7.34545">
        <ele>1223.8955078</ele>
        <time>2012-05-08T11:01:50Z</time>
      </trkpt>
      <trkpt lat="43.90357" lon="7.3457">
        <ele>1226.2988281</ele>
        <time>2012-05-08T11:02:04Z</time>
      </trkpt>
      <trkpt lat="43.90358" lon="7.34574">
        <ele>1225.8181152</ele>
        <time>2012-05-08T11:02:06Z</time>
      </trkpt>
      <trkpt lat="43.90363" lon="7.34577">
        <ele>1226.779541</ele>
        <time>2012-05-08T11:02:10Z</time>
      </trkpt>
      <trkpt lat="43.90368" lon="7.34565">
        <ele>1228.2216797</ele>
        <time>2012-05-08T11:02:18Z</time>
      </trkpt>
      <trkpt lat="43.9037" lon="7.34558">
        <ele>1228.7023926</ele>
        <time>2012-05-08T11:02:23Z</time>
      </trkpt>
      <trkpt lat="43.90385" lon="7.34533">
        <ele>1231.5861816</ele>
        <time>2012-05-08T11:02:39Z</time>
      </trkpt>
      <trkpt lat="43.90388" lon="7.34527">
        <ele>1232.0668945</ele>
        <time>2012-05-08T11:02:43Z</time>
      </trkpt>
      <trkpt lat="43.90403" lon="7.34506">
        <ele>1233.989502</ele>
        <time>2012-05-08T11:02:58Z</time>
      </trkpt>
      <trkpt lat="43.90427" lon="7.34483">
        <ele>1237.8347168</ele>
        <time>2012-05-08T11:03:18Z</time>
      </trkpt>
      <trkpt lat="43.90435" lon="7.3448">
        <ele>1237.8347168</ele>
        <time>2012-05-08T11:03:24Z</time>
      </trkpt>
      <trkpt lat="43.90442" lon="7.34476">
        <ele>1238.3154297</ele>
        <time>2012-05-08T11:03:29Z</time>
      </trkpt>
      <trkpt lat="43.90445" lon="7.34472">
        <ele>1238.7961426</ele>
        <time>2012-05-08T11:03:32Z</time>
      </trkpt>
      <trkpt lat="43.90461" lon="7.34447">
        <ele>1241.1992188</ele>
        <time>2012-05-08T11:03:50Z</time>
      </trkpt>
      <trkpt lat="43.90458" lon="7.34419">
        <ele>1242.1606445</ele>
        <time>2012-05-08T11:04:03Z</time>
      </trkpt>
      <trkpt lat="43.90465" lon="7.34422">
        <ele>1243.6025391</ele>
        <time>2012-05-08T11:04:12Z</time>
      </trkpt>
      <trkpt lat="43.90466" lon="7.34467">
        <ele>1246.0061035</ele>
        <time>2012-05-08T11:04:34Z</time>
      </trkpt>
      <trkpt lat="43.90462" lon="7.34475">
        <ele>1246.4868164</ele>
        <time>2012-05-08T11:04:38Z</time>
      </trkpt>
      <trkpt lat="43.90432" lon="7.34499">
        <ele>1248.8898926</ele>
        <time>2012-05-08T11:04:59Z</time>
      </trkpt>
      <trkpt lat="43.90406" lon="7.3454">
        <ele>1250.3320313</ele>
        <time>2012-05-08T11:05:20Z</time>
      </trkpt>
      <trkpt lat="43.90415" lon="7.34542">
        <ele>1250.8125</ele>
        <time>2012-05-08T11:05:27Z</time>
      </trkpt>
      <trkpt lat="43.90436" lon="7.34517">
        <ele>1254.6577148</ele>
        <time>2012-05-08T11:05:44Z</time>
      </trkpt>
      <trkpt lat="43.9046" lon="7.34498">
        <ele>1258.0224609</ele>
        <time>2012-05-08T11:06:02Z</time>
      </trkpt>
      <trkpt lat="43.90478" lon="7.34478">
        <ele>1260.9064941</ele>
        <time>2012-05-08T11:06:18Z</time>
      </trkpt>
      <trkpt lat="43.90483" lon="7.34451">
        <ele>1262.3483887</ele>
        <time>2012-05-08T11:06:32Z</time>
      </trkpt>
      <trkpt lat="43.90493" lon="7.34433">
        <ele>1265.2324219</ele>
        <time>2012-05-08T11:06:44Z</time>
      </trkpt>
      <trkpt lat="43.90511" lon="7.34456">
        <ele>1268.5969238</ele>
        <time>2012-05-08T11:07:00Z</time>
      </trkpt>
      <trkpt lat="43.90536" lon="7.34471">
        <ele>1271.9614258</ele>
        <time>2012-05-08T11:07:21Z</time>
      </trkpt>
      <trkpt lat="43.90555" lon="7.3448">
        <ele>1275.3259277</ele>
        <time>2012-05-08T11:07:37Z</time>
      </trkpt>
      <trkpt lat="43.90578" lon="7.34471">
        <ele>1277.2490234</ele>
        <time>2012-05-08T11:07:56Z</time>
      </trkpt>
      <trkpt lat="43.90582" lon="7.34466">
        <ele>1278.2102051</ele>
        <time>2012-05-08T11:08:00Z</time>
      </trkpt>
      <trkpt lat="43.90585" lon="7.34459">
        <ele>1278.690918</ele>
        <time>2012-05-08T11:08:04Z</time>
      </trkpt>
      <trkpt lat="43.90587" lon="7.34457">
        <ele>1278.690918</ele>
        <time>2012-05-08T11:08:06Z</time>
      </trkpt>
      <trkpt lat="43.90592" lon="7.34426">
        <ele>1282.0554199</ele>
        <time>2012-05-08T11:08:24Z</time>
      </trkpt>
      <trkpt lat="43.90595" lon="7.34421">
        <ele>1282.5361328</ele>
        <time>2012-05-08T11:08:28Z</time>
      </trkpt>
      <trkpt lat="43.906" lon="7.34418">
        <ele>1283.4973145</ele>
        <time>2012-05-08T11:08:32Z</time>
      </trkpt>
      <trkpt lat="43.90617" lon="7.3444">
        <ele>1286.8618164</ele>
        <time>2012-05-08T11:08:49Z</time>
      </trkpt>
      <trkpt lat="43.90635" lon="7.34465">
        <ele>1289.2651367</ele>
        <time>2012-05-08T11:09:08Z</time>
      </trkpt>
      <trkpt lat="43.9065" lon="7.34478">
        <ele>1291.668457</ele>
        <time>2012-05-08T11:09:21Z</time>
      </trkpt>
      <trkpt lat="43.90655" lon="7.34483">
        <ele>1292.1494141</ele>
        <time>2012-05-08T11:09:26Z</time>
      </trkpt>
      <trkpt lat="43.90677" lon="7.34469">
        <ele>1295.0332031</ele>
        <time>2012-05-08T11:09:45Z</time>
      </trkpt>
      <trkpt lat="43.9069" lon="7.34453">
        <ele>1296.9558105</ele>
        <time>2012-05-08T11:09:58Z</time>
      </trkpt>
      <trkpt lat="43.90702" lon="7.34462">
        <ele>1298.3977051</ele>
        <time>2012-05-08T11:10:07Z</time>
      </trkpt>
      <trkpt lat="43.90707" lon="7.34471">
        <ele>1298.3977051</ele>
        <time>2012-05-08T11:10:13Z</time>
      </trkpt>
      <trkpt lat="43.90716" lon="7.34487">
        <ele>1299.8398438</ele>
        <time>2012-05-08T11:10:22Z</time>
      </trkpt>
      <trkpt lat="43.90738" lon="7.345">
        <ele>1300.8010254</ele>
        <time>2012-05-08T11:10:40Z</time>
      </trkpt>
      <trkpt lat="43.90739" lon="7.34496">
        <ele>1300.8010254</ele>
        <time>2012-05-08T11:11:03Z</time>
      </trkpt>
      <trkpt lat="43.90741" lon="7.34495">
        <ele>1301.2817383</ele>
        <time>2012-05-08T11:11:33Z</time>
      </trkpt>
      <trkpt lat="43.9075" lon="7.34484">
        <ele>1301.7624512</ele>
        <time>2012-05-08T11:11:43Z</time>
      </trkpt>
      <trkpt lat="43.90761" lon="7.34483">
        <ele>1302.7236328</ele>
        <time>2012-05-08T11:11:51Z</time>
      </trkpt>
      <trkpt lat="43.90789" lon="7.34495">
        <ele>1304.6462402</ele>
        <time>2012-05-08T11:12:09Z</time>
      </trkpt>
      <trkpt lat="43.90798" lon="7.34491">
        <ele>1305.1269531</ele>
        <time>2012-05-08T11:12:15Z</time>
      </trkpt>
      <trkpt lat="43.90826" lon="7.3447">
        <ele>1308.4916992</ele>
        <time>2012-05-08T11:12:36Z</time>
      </trkpt>
      <trkpt lat="43.90841" lon="7.34448">
        <ele>1311.3757324</ele>
        <time>2012-05-08T11:12:50Z</time>
      </trkpt>
      <trkpt lat="43.90851" lon="7.34427">
        <ele>1314.2595215</ele>
        <time>2012-05-08T11:13:03Z</time>
      </trkpt>
      <trkpt lat="43.90852" lon="7.34419">
        <ele>1313.7788086</ele>
        <time>2012-05-08T11:13:07Z</time>
      </trkpt>
      <trkpt lat="43.90858" lon="7.34402">
        <ele>1316.1821289</ele>
        <time>2012-05-08T11:13:18Z</time>
      </trkpt>
      <trkpt lat="43.90861" lon="7.3436">
        <ele>1319.546875</ele>
        <time>2012-05-08T11:13:41Z</time>
      </trkpt>
      <trkpt lat="43.90866" lon="7.34339">
        <ele>1321.4692383</ele>
        <time>2012-05-08T11:13:53Z</time>
      </trkpt>
      <trkpt lat="43.90869" lon="7.34331">
        <ele>1321.4692383</ele>
        <time>2012-05-08T11:13:58Z</time>
      </trkpt>
      <trkpt lat="43.90871" lon="7.34307">
        <ele>1323.8725586</ele>
        <time>2012-05-08T11:14:11Z</time>
      </trkpt>
      <trkpt lat="43.90876" lon="7.34302">
        <ele>1324.8342285</ele>
        <time>2012-05-08T11:14:15Z</time>
      </trkpt>
      <trkpt lat="43.90889" lon="7.34298">
        <ele>1326.7568359</ele>
        <time>2012-05-08T11:14:25Z</time>
      </trkpt>
      <trkpt lat="43.90897" lon="7.34302">
        <ele>1326.7568359</ele>
        <time>2012-05-08T11:14:31Z</time>
      </trkpt>
      <trkpt lat="43.90902" lon="7.3432">
        <ele>1328.6794434</ele>
        <time>2012-05-08T11:14:41Z</time>
      </trkpt>
      <trkpt lat="43.90903" lon="7.34346">
        <ele>1329.640625</ele>
        <time>2012-05-08T11:14:54Z</time>
      </trkpt>
      <trkpt lat="43.90899" lon="7.34357">
        <ele>1330.1213379</ele>
        <time>2012-05-08T11:14:59Z</time>
      </trkpt>
      <trkpt lat="43.90899" lon="7.34361">
        <ele>1330.6020508</ele>
        <time>2012-05-08T11:15:02Z</time>
      </trkpt>
      <trkpt lat="43.90886" lon="7.34403">
        <ele>1332.0439453</ele>
        <time>2012-05-08T11:15:19Z</time>
      </trkpt>
      <trkpt lat="43.90883" lon="7.34453">
        <ele>1334.4472656</ele>
        <time>2012-05-08T11:15:40Z</time>
      </trkpt>
      <trkpt lat="43.90878" lon="7.34509">
        <ele>1337.3310547</ele>
        <time>2012-05-08T11:16:04Z</time>
      </trkpt>
      <trkpt lat="43.90879" lon="7.34552">
        <ele>1339.734375</ele>
        <time>2012-05-08T11:16:26Z</time>
      </trkpt>
      <trkpt lat="43.90881" lon="7.34563">
        <ele>1340.6958008</ele>
        <time>2012-05-08T11:16:31Z</time>
      </trkpt>
      <trkpt lat="43.90883" lon="7.34573">
        <ele>1341.1765137</ele>
        <time>2012-05-08T11:16:36Z</time>
      </trkpt>
      <trkpt lat="43.90896" lon="7.34611">
        <ele>1343.0991211</ele>
        <time>2012-05-08T11:16:56Z</time>
      </trkpt>
      <trkpt lat="43.90906" lon="7.34637">
        <ele>1344.5410156</ele>
        <time>2012-05-08T11:17:10Z</time>
      </trkpt>
      <trkpt lat="43.90907" lon="7.34641">
        <ele>1345.0217285</ele>
        <time>2012-05-08T11:17:12Z</time>
      </trkpt>
      <trkpt lat="43.90914" lon="7.34652">
        <ele>1345.9831543</ele>
        <time>2012-05-08T11:17:19Z</time>
      </trkpt>
      <trkpt lat="43.90925" lon="7.34696">
        <ele>1348.3862305</ele>
        <time>2012-05-08T11:17:40Z</time>
      </trkpt>
      <trkpt lat="43.90929" lon="7.34703">
        <ele>1348.8669434</ele>
        <time>2012-05-08T11:17:44Z</time>
      </trkpt>
      <trkpt lat="43.9093" lon="7.34707">
        <ele>1348.8669434</ele>
        <time>2012-05-08T11:17:46Z</time>
      </trkpt>
      <trkpt lat="43.90938" lon="7.34716">
        <ele>1349.8283691</ele>
        <time>2012-05-08T11:17:53Z</time>
      </trkpt>
      <trkpt lat="43.9094" lon="7.34723">
        <ele>1350.309082</ele>
        <time>2012-05-08T11:17:57Z</time>
      </trkpt>
      <trkpt lat="43.90945" lon="7.34729">
        <ele>1350.309082</ele>
        <time>2012-05-08T11:18:02Z</time>
      </trkpt>
      <trkpt lat="43.90947" lon="7.34742">
        <ele>1351.7509766</ele>
        <time>2012-05-08T11:18:08Z</time>
      </trkpt>
      <trkpt lat="43.90951" lon="7.34746">
        <ele>1352.7121582</ele>
        <time>2012-05-08T11:18:12Z</time>
      </trkpt>
      <trkpt lat="43.90953" lon="7.34749">
        <ele>1352.2314453</ele>
        <time>2012-05-08T11:18:14Z</time>
      </trkpt>
      <trkpt lat="43.90954" lon="7.34754">
        <ele>1352.7121582</ele>
        <time>2012-05-08T11:18:17Z</time>
      </trkpt>
      <trkpt lat="43.90958" lon="7.3476">
        <ele>1353.673584</ele>
        <time>2012-05-08T11:18:22Z</time>
      </trkpt>
      <trkpt lat="43.90969" lon="7.34784">
        <ele>1356.0769043</ele>
        <time>2012-05-08T11:18:38Z</time>
      </trkpt>
      <trkpt lat="43.90981" lon="7.348">
        <ele>1356.5576172</ele>
        <time>2012-05-08T11:18:51Z</time>
      </trkpt>
      <trkpt lat="43.90983" lon="7.34801">
        <ele>1357.519043</ele>
        <time>2012-05-08T11:18:53Z</time>
      </trkpt>
      <trkpt lat="43.90989" lon="7.34801">
        <ele>1357.519043</ele>
        <time>2012-05-08T11:18:58Z</time>
      </trkpt>
      <trkpt lat="43.90993" lon="7.34801">
        <ele>1357.9997559</ele>
        <time>2012-05-08T11:19:01Z</time>
      </trkpt>
      <trkpt lat="43.91002" lon="7.34803">
        <ele>1358.9609375</ele>
        <time>2012-05-08T11:19:08Z</time>
      </trkpt>
      <trkpt lat="43.91026" lon="7.34806">
        <ele>1361.8449707</ele>
        <time>2012-05-08T11:19:27Z</time>
      </trkpt>
      <trkpt lat="43.91049" lon="7.34813">
        <ele>1364.2480469</ele>
        <time>2012-05-08T11:19:45Z</time>
      </trkpt>
      <trkpt lat="43.91073" lon="7.34826">
        <ele>1367.1320801</ele>
        <time>2012-05-08T11:20:04Z</time>
      </trkpt>
      <trkpt lat="43.91098" lon="7.34845">
        <ele>1370.496582</ele>
        <time>2012-05-08T11:20:26Z</time>
      </trkpt>
      <trkpt lat="43.91104" lon="7.3485">
        <ele>1370.9772949</ele>
        <time>2012-05-08T11:20:30Z</time>
      </trkpt>
      <trkpt lat="43.91108" lon="7.34857">
        <ele>1370.9772949</ele>
        <time>2012-05-08T11:20:34Z</time>
      </trkpt>
      <trkpt lat="43.91114" lon="7.3486">
        <ele>1371.9384766</ele>
        <time>2012-05-08T11:20:38Z</time>
      </trkpt>
      <trkpt lat="43.91133" lon="7.34883">
        <ele>1372.9001465</ele>
        <time>2012-05-08T11:20:52Z</time>
      </trkpt>
      <trkpt lat="43.91164" lon="7.3492">
        <ele>1373.8613281</ele>
        <time>2012-05-08T11:21:14Z</time>
      </trkpt>
      <trkpt lat="43.91196" lon="7.34953">
        <ele>1375.3032227</ele>
        <time>2012-05-08T11:21:35Z</time>
      </trkpt>
      <trkpt lat="43.91235" lon="7.35001">
        <ele>1374.8227539</ele>
        <time>2012-05-08T11:21:55Z</time>
      </trkpt>
      <trkpt lat="43.91283" lon="7.35032">
        <ele>1373.8613281</ele>
        <time>2012-05-08T11:22:12Z</time>
      </trkpt>
      <trkpt lat="43.9133" lon="7.35046">
        <ele>1374.342041</ele>
        <time>2012-05-08T11:22:25Z</time>
      </trkpt>
      <trkpt lat="43.9134" lon="7.35052">
        <ele>1374.8227539</ele>
        <time>2012-05-08T11:22:28Z</time>
      </trkpt>
      <trkpt lat="43.9139" lon="7.35109">
        <ele>1374.342041</ele>
        <time>2012-05-08T11:22:47Z</time>
      </trkpt>
      <trkpt lat="43.91412" lon="7.35142">
        <ele>1373.3808594</ele>
        <time>2012-05-08T11:22:55Z</time>
      </trkpt>
      <trkpt lat="43.91422" lon="7.35159">
        <ele>1373.3808594</ele>
        <time>2012-05-08T11:22:59Z</time>
      </trkpt>
      <trkpt lat="43.9143" lon="7.35185">
        <ele>1372.4194336</ele>
        <time>2012-05-08T11:23:04Z</time>
      </trkpt>
      <trkpt lat="43.91438" lon="7.35212">
        <ele>1372.4194336</ele>
        <time>2012-05-08T11:23:09Z</time>
      </trkpt>
      <trkpt lat="43.91444" lon="7.35241">
        <ele>1371.9384766</ele>
        <time>2012-05-08T11:23:14Z</time>
      </trkpt>
      <trkpt lat="43.91452" lon="7.35262">
        <ele>1371.9384766</ele>
        <time>2012-05-08T11:23:23Z</time>
      </trkpt>
      <trkpt lat="43.91452" lon="7.35262">
        <ele>1373.3808594</ele>
        <time>2012-05-08T11:23:47Z</time>
      </trkpt>
      <trkpt lat="43.91452" lon="7.35262">
        <ele>1373.8613281</ele>
        <time>2012-05-08T11:48:36Z</time>
      </trkpt>
      <trkpt lat="43.91452" lon="7.35262">
        <ele>1374.342041</ele>
        <time>2012-05-08T11:48:57Z</time>
      </trkpt>
      <trkpt lat="43.91452" lon="7.35262">
        <ele>1373.8613281</ele>
        <time>2012-05-08T11:49:22Z</time>
      </trkpt>
      <trkpt lat="43.91452" lon="7.35262">
        <ele>1374.8227539</ele>
        <time>2012-05-08T11:49:24Z</time>
      </trkpt>
      <trkpt lat="43.91452" lon="7.35262">
        <ele>1375.7839355</ele>
        <time>2012-05-08T11:49:29Z</time>
      </trkpt>
      <trkpt lat="43.91452" lon="7.35262">
        <ele>1379.1484375</ele>
        <time>2012-05-08T11:49:44Z</time>
      </trkpt>
      <trkpt lat="43.91452" lon="7.35262">
        <ele>1382.5131836</ele>
        <time>2012-05-08T11:50:00Z</time>
      </trkpt>
      <trkpt lat="43.91452" lon="7.35262">
        <ele>1385.8776855</ele>
        <time>2012-05-08T11:50:14Z</time>
      </trkpt>
      <trkpt lat="43.91452" lon="7.35262">
        <ele>1389.2424316</ele>
        <time>2012-05-08T11:50:34Z</time>
      </trkpt>
      <trkpt lat="43.91452" lon="7.35262">
        <ele>1392.6071777</ele>
        <time>2012-05-08T11:50:53Z</time>
      </trkpt>
      <trkpt lat="43.91452" lon="7.35262">
        <ele>1395.9716797</ele>
        <time>2012-05-08T11:51:09Z</time>
      </trkpt>
      <trkpt lat="43.91452" lon="7.35262">
        <ele>1398.8554688</ele>
        <time>2012-05-08T11:51:25Z</time>
      </trkpt>
      <trkpt lat="43.91364" lon="7.35184">
        <ele>1402.2199707</ele>
        <time>2012-05-08T11:51:42Z</time>
      </trkpt>
      <trkpt lat="43.9135" lon="7.35172">
        <ele>1404.6235352</ele>
        <time>2012-05-08T11:52:10Z</time>
      </trkpt>
      <trkpt lat="43.91331" lon="7.3516">
        <ele>1407.0268555</ele>
        <time>2012-05-08T11:52:49Z</time>
      </trkpt>
      <trkpt lat="43.91324" lon="7.35153">
        <ele>1407.5075684</ele>
        <time>2012-05-08T11:52:57Z</time>
      </trkpt>
      <trkpt lat="43.91314" lon="7.35148">
        <ele>1408.46875</ele>
        <time>2012-05-08T11:53:02Z</time>
      </trkpt>
      <trkpt lat="43.91304" lon="7.35145">
        <ele>1408.9494629</ele>
        <time>2012-05-08T11:53:09Z</time>
      </trkpt>
      <trkpt lat="43.91303" lon="7.35149">
        <ele>1409.9106445</ele>
        <time>2012-05-08T11:53:12Z</time>
      </trkpt>
      <trkpt lat="43.91301" lon="7.35151">
        <ele>1409.9106445</ele>
        <time>2012-05-08T11:53:14Z</time>
      </trkpt>
      <trkpt lat="43.91291" lon="7.35155">
        <ele>1410.8720703</ele>
        <time>2012-05-08T11:53:22Z</time>
      </trkpt>
      <trkpt lat="43.91287" lon="7.35162">
        <ele>1412.3139648</ele>
        <time>2012-05-08T11:53:28Z</time>
      </trkpt>
      <trkpt lat="43.91283" lon="7.35167">
        <ele>1413.2753906</ele>
        <time>2012-05-08T11:53:33Z</time>
      </trkpt>
      <trkpt lat="43.91275" lon="7.35171">
        <ele>1414.7172852</ele>
        <time>2012-05-08T11:53:42Z</time>
      </trkpt>
      <trkpt lat="43.91261" lon="7.35173">
        <ele>1415.6787109</ele>
        <time>2012-05-08T11:53:52Z</time>
      </trkpt>
      <trkpt lat="43.91257" lon="7.35174">
        <ele>1416.6398926</ele>
        <time>2012-05-08T11:53:55Z</time>
      </trkpt>
      <trkpt lat="43.9125" lon="7.35172">
        <ele>1417.6010742</ele>
        <time>2012-05-08T11:54:03Z</time>
      </trkpt>
      <trkpt lat="43.91246" lon="7.35176">
        <ele>1418.5625</ele>
        <time>2012-05-08T11:54:09Z</time>
      </trkpt>
      <trkpt lat="43.91245" lon="7.35196">
        <ele>1420.9660645</ele>
        <time>2012-05-08T11:54:22Z</time>
      </trkpt>
      <trkpt lat="43.9124" lon="7.35211">
        <ele>1421.9272461</ele>
        <time>2012-05-08T11:54:35Z</time>
      </trkpt>
      <trkpt lat="43.91225" lon="7.35205">
        <ele>1423.8498535</ele>
        <time>2012-05-08T11:54:51Z</time>
      </trkpt>
      <trkpt lat="43.9121" lon="7.35189">
        <ele>1425.7724609</ele>
        <time>2012-05-08T11:55:08Z</time>
      </trkpt>
      <trkpt lat="43.91206" lon="7.35185">
        <ele>1425.7724609</ele>
        <time>2012-05-08T11:55:12Z</time>
      </trkpt>
      <trkpt lat="43.91202" lon="7.35182">
        <ele>1427.2145996</ele>
        <time>2012-05-08T11:55:16Z</time>
      </trkpt>
      <trkpt lat="43.91198" lon="7.35177">
        <ele>1427.6950684</ele>
        <time>2012-05-08T11:55:21Z</time>
      </trkpt>
      <trkpt lat="43.91182" lon="7.35167">
        <ele>1431.5402832</ele>
        <time>2012-05-08T11:55:35Z</time>
      </trkpt>
      <trkpt lat="43.91174" lon="7.35162">
        <ele>1432.0209961</ele>
        <time>2012-05-08T11:55:42Z</time>
      </trkpt>
      <trkpt lat="43.91167" lon="7.35153">
        <ele>1433.4628906</ele>
        <time>2012-05-08T11:55:50Z</time>
      </trkpt>
      <trkpt lat="43.91143" lon="7.3513">
        <ele>1435.8662109</ele>
        <time>2012-05-08T11:56:15Z</time>
      </trkpt>
      <trkpt lat="43.91128" lon="7.35115">
        <ele>1438.2697754</ele>
        <time>2012-05-08T11:56:32Z</time>
      </trkpt>
      <trkpt lat="43.91125" lon="7.35112">
        <ele>1438.2697754</ele>
        <time>2012-05-08T11:56:35Z</time>
      </trkpt>
      <trkpt lat="43.911" lon="7.35089">
        <ele>1438.2697754</ele>
        <time>2012-05-08T11:56:55Z</time>
      </trkpt>
      <trkpt lat="43.9108" lon="7.35062">
        <ele>1437.3083496</ele>
        <time>2012-05-08T11:57:09Z</time>
      </trkpt>
      <trkpt lat="43.91048" lon="7.35048">
        <ele>1437.3083496</ele>
        <time>2012-05-08T11:57:24Z</time>
      </trkpt>
      <trkpt lat="43.9103" lon="7.35017">
        <ele>1434.4243164</ele>
        <time>2012-05-08T11:57:31Z</time>
      </trkpt>
      <trkpt lat="43.91011" lon="7.35006">
        <ele>1433.9436035</ele>
        <time>2012-05-08T11:57:35Z</time>
      </trkpt>
      <trkpt lat="43.90997" lon="7.34999">
        <ele>1433.4628906</ele>
        <time>2012-05-08T11:57:38Z</time>
      </trkpt>
      <trkpt lat="43.90976" lon="7.34985">
        <ele>1431.5402832</ele>
        <time>2012-05-08T11:57:42Z</time>
      </trkpt>
      <trkpt lat="43.90966" lon="7.34978">
        <ele>1431.5402832</ele>
        <time>2012-05-08T11:57:45Z</time>
      </trkpt>
      <trkpt lat="43.9095" lon="7.3497">
        <ele>1429.6176758</ele>
        <time>2012-05-08T11:57:50Z</time>
      </trkpt>
      <trkpt lat="43.90922" lon="7.34949">
        <ele>1430.5791016</ele>
        <time>2012-05-08T11:58:01Z</time>
      </trkpt>
      <trkpt lat="43.90922" lon="7.34949">
        <ele>1433.4628906</ele>
        <time>2012-05-08T11:58:25Z</time>
      </trkpt>
      <trkpt lat="43.90922" lon="7.34949">
        <ele>1433.4628906</ele>
        <time>2012-05-08T11:58:53Z</time>
      </trkpt>
      <trkpt lat="43.90922" lon="7.34949">
        <ele>1435.8662109</ele>
        <time>2012-05-08T12:02:40Z</time>
      </trkpt>
      <trkpt lat="43.90922" lon="7.34949">
        <ele>1434.9050293</ele>
        <time>2012-05-08T12:03:25Z</time>
      </trkpt>
      <trkpt lat="43.90904" lon="7.34896">
        <ele>1435.385498</ele>
        <time>2012-05-08T12:04:28Z</time>
      </trkpt>
      <trkpt lat="43.90894" lon="7.34888">
        <ele>1433.9436035</ele>
        <time>2012-05-08T12:04:32Z</time>
      </trkpt>
      <trkpt lat="43.90888" lon="7.34883">
        <ele>1432.0209961</ele>
        <time>2012-05-08T12:04:34Z</time>
      </trkpt>
      <trkpt lat="43.90885" lon="7.34879">
        <ele>1429.6176758</ele>
        <time>2012-05-08T12:04:35Z</time>
      </trkpt>
      <trkpt lat="43.90874" lon="7.34862">
        <ele>1427.6950684</ele>
        <time>2012-05-08T12:04:38Z</time>
      </trkpt>
      <trkpt lat="43.9087" lon="7.34856">
        <ele>1425.7724609</ele>
        <time>2012-05-08T12:04:39Z</time>
      </trkpt>
      <trkpt lat="43.90862" lon="7.34843">
        <ele>1422.8886719</ele>
        <time>2012-05-08T12:04:41Z</time>
      </trkpt>
      <trkpt lat="43.90858" lon="7.34838">
        <ele>1420.4853516</ele>
        <time>2012-05-08T12:04:42Z</time>
      </trkpt>
      <trkpt lat="43.90845" lon="7.34816">
        <ele>1418.5625</ele>
        <time>2012-05-08T12:04:45Z</time>
      </trkpt>
      <trkpt lat="43.90831" lon="7.34783">
        <ele>1414.7172852</ele>
        <time>2012-05-08T12:04:49Z</time>
      </trkpt>
      <trkpt lat="43.9081" lon="7.34739">
        <ele>1412.3139648</ele>
        <time>2012-05-08T12:04:55Z</time>
      </trkpt>
      <trkpt lat="43.90802" lon="7.3473">
        <ele>1408.9494629</ele>
        <time>2012-05-08T12:05:01Z</time>
      </trkpt>
      <trkpt lat="43.90802" lon="7.3473">
        <ele>1408.9494629</ele>
        <time>2012-05-08T12:05:08Z</time>
      </trkpt>
      <trkpt lat="43.90818" lon="7.34696">
        <ele>1406.5461426</ele>
        <time>2012-05-08T12:05:12Z</time>
      </trkpt>
      <trkpt lat="43.90837" lon="7.34713">
        <ele>1406.0654297</ele>
        <time>2012-05-08T12:05:20Z</time>
      </trkpt>
      <trkpt lat="43.90841" lon="7.34718">
        <ele>1404.6235352</ele>
        <time>2012-05-08T12:05:22Z</time>
      </trkpt>
      <trkpt lat="43.90851" lon="7.34733">
        <ele>1402.2199707</ele>
        <time>2012-05-08T12:05:34Z</time>
      </trkpt>
      <trkpt lat="43.90851" lon="7.34735">
        <ele>1401.739502</ele>
        <time>2012-05-08T12:05:38Z</time>
      </trkpt>
      <trkpt lat="43.90834" lon="7.34788">
        <ele>1398.3747559</ele>
        <time>2012-05-08T12:05:45Z</time>
      </trkpt>
      <trkpt lat="43.90835" lon="7.34792">
        <ele>1398.3747559</ele>
        <time>2012-05-08T12:05:46Z</time>
      </trkpt>
      <trkpt lat="43.90878" lon="7.34753">
        <ele>1395.9716797</ele>
        <time>2012-05-08T12:05:50Z</time>
      </trkpt>
      <trkpt lat="43.90871" lon="7.34737">
        <ele>1394.0490723</ele>
        <time>2012-05-08T12:05:57Z</time>
      </trkpt>
      <trkpt lat="43.90869" lon="7.34726">
        <ele>1391.645752</ele>
        <time>2012-05-08T12:06:06Z</time>
      </trkpt>
      <trkpt lat="43.90867" lon="7.34721">
        <ele>1390.6843262</ele>
        <time>2012-05-08T12:06:09Z</time>
      </trkpt>
      <trkpt lat="43.90866" lon="7.34711">
        <ele>1389.2424316</ele>
        <time>2012-05-08T12:06:15Z</time>
      </trkpt>
      <trkpt lat="43.90863" lon="7.34692">
        <ele>1385.3969727</ele>
        <time>2012-05-08T12:06:26Z</time>
      </trkpt>
      <trkpt lat="43.90864" lon="7.34689">
        <ele>1383.4743652</ele>
        <time>2012-05-08T12:06:38Z</time>
      </trkpt>
      <trkpt lat="43.90868" lon="7.3469">
        <ele>1382.0324707</ele>
        <time>2012-05-08T12:06:42Z</time>
      </trkpt>
      <trkpt lat="43.90874" lon="7.34693">
        <ele>1379.6291504</ele>
        <time>2012-05-08T12:06:46Z</time>
      </trkpt>
      <trkpt lat="43.90876" lon="7.34696">
        <ele>1377.2260742</ele>
        <time>2012-05-08T12:06:56Z</time>
      </trkpt>
      <trkpt lat="43.9087" lon="7.34659">
        <ele>1374.342041</ele>
        <time>2012-05-08T12:07:06Z</time>
      </trkpt>
      <trkpt lat="43.90866" lon="7.34639">
        <ele>1371.4577637</ele>
        <time>2012-05-08T12:07:12Z</time>
      </trkpt>
      <trkpt lat="43.90865" lon="7.34634">
        <ele>1371.4577637</ele>
        <time>2012-05-08T12:07:13Z</time>
      </trkpt>
      <trkpt lat="43.90862" lon="7.34607">
        <ele>1368.0932617</ele>
        <time>2012-05-08T12:07:19Z</time>
      </trkpt>
      <trkpt lat="43.90862" lon="7.34601">
        <ele>1368.0932617</ele>
        <time>2012-05-08T12:07:20Z</time>
      </trkpt>
      <trkpt lat="43.90881" lon="7.34572">
        <ele>1364.2480469</ele>
        <time>2012-05-08T12:07:23Z</time>
      </trkpt>
      <trkpt lat="43.90851" lon="7.34547">
        <ele>1361.3642578</ele>
        <time>2012-05-08T12:07:28Z</time>
      </trkpt>
      <trkpt lat="43.90851" lon="7.34534">
        <ele>1359.9221191</ele>
        <time>2012-05-08T12:07:30Z</time>
      </trkpt>
      <trkpt lat="43.90851" lon="7.34529">
        <ele>1358.9609375</ele>
        <time>2012-05-08T12:07:31Z</time>
      </trkpt>
      <trkpt lat="43.90851" lon="7.34525">
        <ele>1357.9997559</ele>
        <time>2012-05-08T12:07:34Z</time>
      </trkpt>
      <trkpt lat="43.90853" lon="7.34515">
        <ele>1355.1154785</ele>
        <time>2012-05-08T12:07:37Z</time>
      </trkpt>
      <trkpt lat="43.90855" lon="7.34508">
        <ele>1353.673584</ele>
        <time>2012-05-08T12:07:39Z</time>
      </trkpt>
      <trkpt lat="43.90858" lon="7.34499">
        <ele>1353.1928711</ele>
        <time>2012-05-08T12:07:41Z</time>
      </trkpt>
      <trkpt lat="43.90861" lon="7.34495">
        <ele>1351.2702637</ele>
        <time>2012-05-08T12:07:44Z</time>
      </trkpt>
      <trkpt lat="43.90861" lon="7.34495">
        <ele>1348.8669434</ele>
        <time>2012-05-08T12:07:57Z</time>
      </trkpt>
      <trkpt lat="43.90875" lon="7.34483">
        <ele>1345.5024414</ele>
        <time>2012-05-08T12:08:03Z</time>
      </trkpt>
      <trkpt lat="43.90876" lon="7.34482">
        <ele>1345.5024414</ele>
        <time>2012-05-08T12:08:04Z</time>
      </trkpt>
      <trkpt lat="43.90879" lon="7.3448">
        <ele>1342.6186523</ele>
        <time>2012-05-08T12:08:06Z</time>
      </trkpt>
      <trkpt lat="43.90881" lon="7.34477">
        <ele>1341.1765137</ele>
        <time>2012-05-08T12:08:09Z</time>
      </trkpt>
      <trkpt lat="43.90881" lon="7.34477">
        <ele>1340.215332</ele>
        <time>2012-05-08T12:08:11Z</time>
      </trkpt>
      <trkpt lat="43.90883" lon="7.34436">
        <ele>1338.2924805</ele>
        <time>2012-05-08T12:08:14Z</time>
      </trkpt>
      <trkpt lat="43.90883" lon="7.34423">
        <ele>1337.3310547</ele>
        <time>2012-05-08T12:08:16Z</time>
      </trkpt>
      <trkpt lat="43.90892" lon="7.3441">
        <ele>1336.369873</ele>
        <time>2012-05-08T12:08:25Z</time>
      </trkpt>
      <trkpt lat="43.90892" lon="7.3441">
        <ele>1337.3310547</ele>
        <time>2012-05-08T12:08:40Z</time>
      </trkpt>
      <trkpt lat="43.90894" lon="7.34431">
        <ele>1334.4472656</ele>
        <time>2012-05-08T12:08:56Z</time>
      </trkpt>
      <trkpt lat="43.90896" lon="7.3445">
        <ele>1333.4858398</ele>
        <time>2012-05-08T12:09:16Z</time>
      </trkpt>
      <trkpt lat="43.90896" lon="7.34448">
        <ele>1332.0439453</ele>
        <time>2012-05-08T12:09:21Z</time>
      </trkpt>
      <trkpt lat="43.90894" lon="7.34425">
        <ele>1328.1987305</ele>
        <time>2012-05-08T12:09:26Z</time>
      </trkpt>
      <trkpt lat="43.90894" lon="7.34415">
        <ele>1326.276123</ele>
        <time>2012-05-08T12:09:28Z</time>
      </trkpt>
      <trkpt lat="43.90894" lon="7.34415">
        <ele>1324.3535156</ele>
        <time>2012-05-08T12:09:29Z</time>
      </trkpt>
      <trkpt lat="43.90894" lon="7.34413">
        <ele>1323.3920898</ele>
        <time>2012-05-08T12:09:31Z</time>
      </trkpt>
      <trkpt lat="43.90895" lon="7.34363">
        <ele>1320.5080566</ele>
        <time>2012-05-08T12:09:34Z</time>
      </trkpt>
      <trkpt lat="43.90898" lon="7.34346">
        <ele>1319.0661621</ele>
        <time>2012-05-08T12:09:37Z</time>
      </trkpt>
      <trkpt lat="43.909" lon="7.34326">
        <ele>1317.6240234</ele>
        <time>2012-05-08T12:09:42Z</time>
      </trkpt>
      <trkpt lat="43.90901" lon="7.3432">
        <ele>1315.7016602</ele>
        <time>2012-05-08T12:09:43Z</time>
      </trkpt>
      <trkpt lat="43.90972" lon="7.34303">
        <ele>1314.2595215</ele>
        <time>2012-05-08T12:09:46Z</time>
      </trkpt>
      <trkpt lat="43.90972" lon="7.3429">
        <ele>1310.4143066</ele>
        <time>2012-05-08T12:09:48Z</time>
      </trkpt>
      <trkpt lat="43.90971" lon="7.34285">
        <ele>1310.4143066</ele>
        <time>2012-05-08T12:09:49Z</time>
      </trkpt>
      <trkpt lat="43.90971" lon="7.34272">
        <ele>1309.453125</ele>
        <time>2012-05-08T12:09:51Z</time>
      </trkpt>
      <trkpt lat="43.90969" lon="7.34244">
        <ele>1305.607666</ele>
        <time>2012-05-08T12:09:55Z</time>
      </trkpt>
      <trkpt lat="43.90968" lon="7.34225">
        <ele>1304.1657715</ele>
        <time>2012-05-08T12:09:57Z</time>
      </trkpt>
      <trkpt lat="43.90969" lon="7.342">
        <ele>1300.8010254</ele>
        <time>2012-05-08T12:10:02Z</time>
      </trkpt>
      <trkpt lat="43.9097" lon="7.34192">
        <ele>1300.8010254</ele>
        <time>2012-05-08T12:10:03Z</time>
      </trkpt>
      <trkpt lat="43.90974" lon="7.3416">
        <ele>1297.9172363</ele>
        <time>2012-05-08T12:10:06Z</time>
      </trkpt>
      <trkpt lat="43.90974" lon="7.34151">
        <ele>1297.9172363</ele>
        <time>2012-05-08T12:10:07Z</time>
      </trkpt>
      <trkpt lat="43.90974" lon="7.3413">
        <ele>1295.513916</ele>
        <time>2012-05-08T12:10:09Z</time>
      </trkpt>
      <trkpt lat="43.90974" lon="7.34116">
        <ele>1292.630127</ele>
        <time>2012-05-08T12:10:11Z</time>
      </trkpt>
      <trkpt lat="43.90974" lon="7.341">
        <ele>1290.2265625</ele>
        <time>2012-05-08T12:10:14Z</time>
      </trkpt>
      <trkpt lat="43.90974" lon="7.341">
        <ele>1287.8232422</ele>
        <time>2012-05-08T12:10:16Z</time>
      </trkpt>
      <trkpt lat="43.90974" lon="7.34085">
        <ele>1285.9006348</ele>
        <time>2012-05-08T12:10:28Z</time>
      </trkpt>
      <trkpt lat="43.90974" lon="7.34078">
        <ele>1283.9780273</ele>
        <time>2012-05-08T12:10:30Z</time>
      </trkpt>
      <trkpt lat="43.90975" lon="7.34073">
        <ele>1280.6135254</ele>
        <time>2012-05-08T12:10:32Z</time>
      </trkpt>
      <trkpt lat="43.90975" lon="7.3407">
        <ele>1280.6135254</ele>
        <time>2012-05-08T12:10:33Z</time>
      </trkpt>
      <trkpt lat="43.90976" lon="7.34062">
        <ele>1278.690918</ele>
        <time>2012-05-08T12:10:35Z</time>
      </trkpt>
      <trkpt lat="43.90977" lon="7.34053">
        <ele>1276.2875977</ele>
        <time>2012-05-08T12:10:37Z</time>
      </trkpt>
      <trkpt lat="43.90978" lon="7.34044">
        <ele>1271.4807129</ele>
        <time>2012-05-08T12:10:39Z</time>
      </trkpt>
      <trkpt lat="43.90979" lon="7.34041">
        <ele>1271.4807129</ele>
        <time>2012-05-08T12:10:40Z</time>
      </trkpt>
      <trkpt lat="43.9098" lon="7.34034">
        <ele>1270.0388184</ele>
        <time>2012-05-08T12:10:42Z</time>
      </trkpt>
      <trkpt lat="43.90981" lon="7.34026">
        <ele>1268.1162109</ele>
        <time>2012-05-08T12:10:44Z</time>
      </trkpt>
      <trkpt lat="43.90983" lon="7.34018">
        <ele>1263.7902832</ele>
        <time>2012-05-08T12:10:46Z</time>
      </trkpt>
      <trkpt lat="43.90986" lon="7.34008">
        <ele>1263.7902832</ele>
        <time>2012-05-08T12:10:47Z</time>
      </trkpt>
      <trkpt lat="43.90987" lon="7.34004">
        <ele>1260.9064941</ele>
        <time>2012-05-08T12:10:48Z</time>
      </trkpt>
      <trkpt lat="43.90991" lon="7.33996">
        <ele>1259.4643555</ele>
        <time>2012-05-08T12:10:51Z</time>
      </trkpt>
      <trkpt lat="43.90995" lon="7.3399">
        <ele>1258.0224609</ele>
        <time>2012-05-08T12:10:53Z</time>
      </trkpt>
      <trkpt lat="43.90995" lon="7.3399">
        <ele>1254.6577148</ele>
        <time>2012-05-08T12:10:55Z</time>
      </trkpt>
      <trkpt lat="43.90997" lon="7.33987">
        <ele>1254.6577148</ele>
        <time>2012-05-08T12:10:56Z</time>
      </trkpt>
      <trkpt lat="43.90999" lon="7.33986">
        <ele>1253.6965332</ele>
        <time>2012-05-08T12:10:57Z</time>
      </trkpt>
      <trkpt lat="43.91" lon="7.33984">
        <ele>1251.7739258</ele>
        <time>2012-05-08T12:11:00Z</time>
      </trkpt>
      <trkpt lat="43.91036" lon="7.33994">
        <ele>1250.3320313</ele>
        <time>2012-05-08T12:11:03Z</time>
      </trkpt>
      <trkpt lat="43.91036" lon="7.33994">
        <ele>1249.3706055</ele>
        <time>2012-05-08T12:11:17Z</time>
      </trkpt>
      <trkpt lat="43.91036" lon="7.33994">
        <ele>1249.3706055</ele>
        <time>2012-05-08T12:11:21Z</time>
      </trkpt>
      <trkpt lat="43.91014" lon="7.33987">
        <ele>1248.4091797</ele>
        <time>2012-05-08T12:11:24Z</time>
      </trkpt>
      <trkpt lat="43.9102" lon="7.3399">
        <ele>1245.0446777</ele>
        <time>2012-05-08T12:11:27Z</time>
      </trkpt>
      <trkpt lat="43.91031" lon="7.33996">
        <ele>1240.7185059</ele>
        <time>2012-05-08T12:11:30Z</time>
      </trkpt>
      <trkpt lat="43.91034" lon="7.33997">
        <ele>1240.7185059</ele>
        <time>2012-05-08T12:11:31Z</time>
      </trkpt>
      <trkpt lat="43.91036" lon="7.33998">
        <ele>1238.7961426</ele>
        <time>2012-05-08T12:11:33Z</time>
      </trkpt>
      <trkpt lat="43.91036" lon="7.33998">
        <ele>1235.4313965</ele>
        <time>2012-05-08T12:11:38Z</time>
      </trkpt>
      <trkpt lat="43.91036" lon="7.33998">
        <ele>1233.5087891</ele>
        <time>2012-05-08T12:11:40Z</time>
      </trkpt>
      <trkpt lat="43.91036" lon="7.33998">
        <ele>1231.5861816</ele>
        <time>2012-05-08T12:11:42Z</time>
      </trkpt>
      <trkpt lat="43.91078" lon="7.34007">
        <ele>1227.2602539</ele>
        <time>2012-05-08T12:11:46Z</time>
      </trkpt>
      <trkpt lat="43.91081" lon="7.3401">
        <ele>1227.2602539</ele>
        <time>2012-05-08T12:11:47Z</time>
      </trkpt>
      <trkpt lat="43.91083" lon="7.34013">
        <ele>1225.3374023</ele>
        <time>2012-05-08T12:11:48Z</time>
      </trkpt>
      <trkpt lat="43.91036" lon="7.33998">
        <ele>1222.9343262</ele>
        <time>2012-05-08T12:11:54Z</time>
      </trkpt>
      <trkpt lat="43.91074" lon="7.34002">
        <ele>1222.4536133</ele>
        <time>2012-05-08T12:11:55Z</time>
      </trkpt>
      <trkpt lat="43.91065" lon="7.33992">
        <ele>1219.0891113</ele>
        <time>2012-05-08T12:12:00Z</time>
      </trkpt>
      <trkpt lat="43.91064" lon="7.3399">
        <ele>1219.0891113</ele>
        <time>2012-05-08T12:12:01Z</time>
      </trkpt>
      <trkpt lat="43.91063" lon="7.33989">
        <ele>1217.6469727</ele>
        <time>2012-05-08T12:12:02Z</time>
      </trkpt>
      <trkpt lat="43.91036" lon="7.33994">
        <ele>1217.1665039</ele>
        <time>2012-05-08T12:12:05Z</time>
      </trkpt>
      <trkpt lat="43.91092" lon="7.33979">
        <ele>1218.1276855</ele>
        <time>2012-05-08T12:12:08Z</time>
      </trkpt>
      <trkpt lat="43.91098" lon="7.33988">
        <ele>1218.1276855</ele>
        <time>2012-05-08T12:12:12Z</time>
      </trkpt>
      <trkpt lat="43.91116" lon="7.34">
        <ele>1216.2050781</ele>
        <time>2012-05-08T12:12:17Z</time>
      </trkpt>
      <trkpt lat="43.91121" lon="7.33996">
        <ele>1214.2824707</ele>
        <time>2012-05-08T12:12:19Z</time>
      </trkpt>
      <trkpt lat="43.91122" lon="7.33989">
        <ele>1212.8405762</ele>
        <time>2012-05-08T12:12:21Z</time>
      </trkpt>
      <trkpt lat="43.91127" lon="7.33977">
        <ele>1209.9562988</ele>
        <time>2012-05-08T12:12:24Z</time>
      </trkpt>
      <trkpt lat="43.91128" lon="7.33973">
        <ele>1208.9951172</ele>
        <time>2012-05-08T12:12:25Z</time>
      </trkpt>
      <trkpt lat="43.91131" lon="7.33968">
        <ele>1207.5532227</ele>
        <time>2012-05-08T12:12:28Z</time>
      </trkpt>
      <trkpt lat="43.91135" lon="7.33971">
        <ele>1204.6691895</ele>
        <time>2012-05-08T12:12:30Z</time>
      </trkpt>
      <trkpt lat="43.91132" lon="7.33974">
        <ele>1204.6691895</ele>
        <time>2012-05-08T12:12:31Z</time>
      </trkpt>
      <trkpt lat="43.91134" lon="7.33981">
        <ele>1203.2272949</ele>
        <time>2012-05-08T12:12:33Z</time>
      </trkpt>
      <trkpt lat="43.91135" lon="7.33987">
        <ele>1201.3046875</ele>
        <time>2012-05-08T12:12:35Z</time>
      </trkpt>
      <trkpt lat="43.91138" lon="7.33993">
        <ele>1197.4594727</ele>
        <time>2012-05-08T12:12:37Z</time>
      </trkpt>
      <trkpt lat="43.91139" lon="7.33995">
        <ele>1197.4594727</ele>
        <time>2012-05-08T12:12:38Z</time>
      </trkpt>
      <trkpt lat="43.91142" lon="7.33995">
        <ele>1196.0175781</ele>
        <time>2012-05-08T12:12:41Z</time>
      </trkpt>
      <trkpt lat="43.91147" lon="7.33991">
        <ele>1194.0947266</ele>
        <time>2012-05-08T12:12:45Z</time>
      </trkpt>
      <trkpt lat="43.91147" lon="7.33971">
        <ele>1189.2880859</ele>
        <time>2012-05-08T12:12:51Z</time>
      </trkpt>
      <trkpt lat="43.91152" lon="7.33964">
        <ele>1187.8461914</ele>
        <time>2012-05-08T12:12:54Z</time>
      </trkpt>
      <trkpt lat="43.91155" lon="7.33967">
        <ele>1186.4042969</ele>
        <time>2012-05-08T12:12:56Z</time>
      </trkpt>
      <trkpt lat="43.91156" lon="7.33968">
        <ele>1185.4428711</ele>
        <time>2012-05-08T12:12:57Z</time>
      </trkpt>
      <trkpt lat="43.9116" lon="7.3397">
        <ele>1184.0009766</ele>
        <time>2012-05-08T12:12:59Z</time>
      </trkpt>
      <trkpt lat="43.9116" lon="7.33966">
        <ele>1182.559082</ele>
        <time>2012-05-08T12:13:01Z</time>
      </trkpt>
      <trkpt lat="43.91157" lon="7.33958">
        <ele>1181.1171875</ele>
        <time>2012-05-08T12:13:04Z</time>
      </trkpt>
      <trkpt lat="43.91161" lon="7.33947">
        <ele>1178.2329102</ele>
        <time>2012-05-08T12:13:08Z</time>
      </trkpt>
      <trkpt lat="43.91171" lon="7.3394">
        <ele>1176.3103027</ele>
        <time>2012-05-08T12:13:12Z</time>
      </trkpt>
      <trkpt lat="43.91174" lon="7.33937">
        <ele>1176.3103027</ele>
        <time>2012-05-08T12:13:13Z</time>
      </trkpt>
      <trkpt lat="43.91192" lon="7.33936">
        <ele>1174.3876953</ele>
        <time>2012-05-08T12:13:17Z</time>
      </trkpt>
      <trkpt lat="43.91195" lon="7.33938">
        <ele>1172.9458008</ele>
        <time>2012-05-08T12:13:18Z</time>
      </trkpt>
      <trkpt lat="43.91202" lon="7.33932">
        <ele>1169.5812988</ele>
        <time>2012-05-08T12:13:21Z</time>
      </trkpt>
      <trkpt lat="43.91207" lon="7.33924">
        <ele>1169.5812988</ele>
        <time>2012-05-08T12:13:22Z</time>
      </trkpt>
      <trkpt lat="43.91225" lon="7.33919">
        <ele>1166.6972656</ele>
        <time>2012-05-08T12:13:26Z</time>
      </trkpt>
      <trkpt lat="43.91232" lon="7.33908">
        <ele>1162.3710938</ele>
        <time>2012-05-08T12:13:28Z</time>
      </trkpt>
      <trkpt lat="43.91235" lon="7.33906">
        <ele>1162.3710938</ele>
        <time>2012-05-08T12:13:29Z</time>
      </trkpt>
      <trkpt lat="43.9124" lon="7.33897">
        <ele>1160.4484863</ele>
        <time>2012-05-08T12:13:31Z</time>
      </trkpt>
      <trkpt lat="43.91244" lon="7.33892">
        <ele>1159.0065918</ele>
        <time>2012-05-08T12:13:33Z</time>
      </trkpt>
      <trkpt lat="43.91251" lon="7.33886">
        <ele>1156.6032715</ele>
        <time>2012-05-08T12:13:36Z</time>
      </trkpt>
      <trkpt lat="43.91257" lon="7.33888">
        <ele>1155.161377</ele>
        <time>2012-05-08T12:13:52Z</time>
      </trkpt>
      <trkpt lat="43.91261" lon="7.33885">
        <ele>1153.2387695</ele>
        <time>2012-05-08T12:13:55Z</time>
      </trkpt>
      <trkpt lat="43.91269" lon="7.33877">
        <ele>1152.2773438</ele>
        <time>2012-05-08T12:13:59Z</time>
      </trkpt>
      <trkpt lat="43.91269" lon="7.3386">
        <ele>1148.9128418</ele>
        <time>2012-05-08T12:14:11Z</time>
      </trkpt>
      <trkpt lat="43.91272" lon="7.3386">
        <ele>1148.9128418</ele>
        <time>2012-05-08T12:14:52Z</time>
      </trkpt>
      <trkpt lat="43.91277" lon="7.33853">
        <ele>1147.4707031</ele>
        <time>2012-05-08T12:14:54Z</time>
      </trkpt>
      <trkpt lat="43.91276" lon="7.33845">
        <ele>1144.5866699</ele>
        <time>2012-05-08T12:14:56Z</time>
      </trkpt>
      <trkpt lat="43.91277" lon="7.33831">
        <ele>1143.6254883</ele>
        <time>2012-05-08T12:14:59Z</time>
      </trkpt>
      <trkpt lat="43.91252" lon="7.33788">
        <ele>1144.1062012</ele>
        <time>2012-05-08T12:15:11Z</time>
      </trkpt>
      <trkpt lat="43.91241" lon="7.33779">
        <ele>1143.6254883</ele>
        <time>2012-05-08T12:15:15Z</time>
      </trkpt>
      <trkpt lat="43.91237" lon="7.33746">
        <ele>1139.7802734</ele>
        <time>2012-05-08T12:15:23Z</time>
      </trkpt>
      <trkpt lat="43.91235" lon="7.33741">
        <ele>1139.7802734</ele>
        <time>2012-05-08T12:15:24Z</time>
      </trkpt>
      <trkpt lat="43.91229" lon="7.33735">
        <ele>1137.3769531</ele>
        <time>2012-05-08T12:15:27Z</time>
      </trkpt>
      <trkpt lat="43.91227" lon="7.33734">
        <ele>1136.4157715</ele>
        <time>2012-05-08T12:15:28Z</time>
      </trkpt>
      <trkpt lat="43.91224" lon="7.33727">
        <ele>1135.4543457</ele>
        <time>2012-05-08T12:15:31Z</time>
      </trkpt>
      <trkpt lat="43.91225" lon="7.33723">
        <ele>1134.4931641</ele>
        <time>2012-05-08T12:15:32Z</time>
      </trkpt>
      <trkpt lat="43.91198" lon="7.33693">
        <ele>1129.2055664</ele>
        <time>2012-05-08T12:15:40Z</time>
      </trkpt>
      <trkpt lat="43.91197" lon="7.3369">
        <ele>1126.8024902</ele>
        <time>2012-05-08T12:15:43Z</time>
      </trkpt>
      <trkpt lat="43.91198" lon="7.33693">
        <ele>1124.8798828</ele>
        <time>2012-05-08T12:15:45Z</time>
      </trkpt>
      <trkpt lat="43.91205" lon="7.33636">
        <ele>1121.9958496</ele>
        <time>2012-05-08T12:15:47Z</time>
      </trkpt>
      <trkpt lat="43.91202" lon="7.33634">
        <ele>1121.9958496</ele>
        <time>2012-05-08T12:15:48Z</time>
      </trkpt>
      <trkpt lat="43.91203" lon="7.33635">
        <ele>1121.034668</ele>
        <time>2012-05-08T12:15:50Z</time>
      </trkpt>
      <trkpt lat="43.91209" lon="7.33639">
        <ele>1118.6313477</ele>
        <time>2012-05-08T12:15:54Z</time>
      </trkpt>
      <trkpt lat="43.91215" lon="7.33644">
        <ele>1116.7087402</ele>
        <time>2012-05-08T12:15:57Z</time>
      </trkpt>
      <trkpt lat="43.91218" lon="7.33646">
        <ele>1115.2666016</ele>
        <time>2012-05-08T12:15:59Z</time>
      </trkpt>
      <trkpt lat="43.9122" lon="7.33647">
        <ele>1114.3051758</ele>
        <time>2012-05-08T12:16:00Z</time>
      </trkpt>
      <trkpt lat="43.91228" lon="7.33653">
        <ele>1112.3825684</ele>
        <time>2012-05-08T12:16:03Z</time>
      </trkpt>
      <trkpt lat="43.91232" lon="7.33655">
        <ele>1110.4599609</ele>
        <time>2012-05-08T12:16:06Z</time>
      </trkpt>
      <trkpt lat="43.91237" lon="7.33659">
        <ele>1108.5373535</ele>
        <time>2012-05-08T12:16:09Z</time>
      </trkpt>
      <trkpt lat="43.9124" lon="7.33662">
        <ele>1107.095459</ele>
        <time>2012-05-08T12:16:11Z</time>
      </trkpt>
      <trkpt lat="43.91243" lon="7.33663">
        <ele>1105.1728516</ele>
        <time>2012-05-08T12:16:13Z</time>
      </trkpt>
      <trkpt lat="43.91247" lon="7.33666">
        <ele>1104.2116699</ele>
        <time>2012-05-08T12:16:14Z</time>
      </trkpt>
      <trkpt lat="43.91253" lon="7.3367">
        <ele>1101.8083496</ele>
        <time>2012-05-08T12:16:18Z</time>
      </trkpt>
      <trkpt lat="43.91253" lon="7.3367">
        <ele>1100.3664551</ele>
        <time>2012-05-08T12:16:20Z</time>
      </trkpt>
      <trkpt lat="43.91253" lon="7.3367">
        <ele>1098.9240723</ele>
        <time>2012-05-08T12:16:22Z</time>
      </trkpt>
      <trkpt lat="43.9127" lon="7.33702">
        <ele>1098.4433594</ele>
        <time>2012-05-08T12:16:23Z</time>
      </trkpt>
      <trkpt lat="43.91273" lon="7.33706">
        <ele>1096.5209961</ele>
        <time>2012-05-08T12:16:25Z</time>
      </trkpt>
      <trkpt lat="43.91276" lon="7.33709">
        <ele>1094.5981445</ele>
        <time>2012-05-08T12:16:29Z</time>
      </trkpt>
      <trkpt lat="43.91271" lon="7.33703">
        <ele>1093.15625</ele>
        <time>2012-05-08T12:16:34Z</time>
      </trkpt>
      <trkpt lat="43.91269" lon="7.337">
        <ele>1093.15625</ele>
        <time>2012-05-08T12:16:53Z</time>
      </trkpt>
      <trkpt lat="43.91262" lon="7.33686">
        <ele>1093.15625</ele>
        <time>2012-05-08T12:17:22Z</time>
      </trkpt>
      <trkpt lat="43.91254" lon="7.33673">
        <ele>1090.2724609</ele>
        <time>2012-05-08T12:17:27Z</time>
      </trkpt>
      <trkpt lat="43.91243" lon="7.3365">
        <ele>1087.3884277</ele>
        <time>2012-05-08T12:17:32Z</time>
      </trkpt>
      <trkpt lat="43.91237" lon="7.33638">
        <ele>1085.9465332</ele>
        <time>2012-05-08T12:17:34Z</time>
      </trkpt>
      <trkpt lat="43.91229" lon="7.3362">
        <ele>1084.0239258</ele>
        <time>2012-05-08T12:17:37Z</time>
      </trkpt>
      <trkpt lat="43.91215" lon="7.33598">
        <ele>1083.0622559</ele>
        <time>2012-05-08T12:17:41Z</time>
      </trkpt>
      <trkpt lat="43.91199" lon="7.33575">
        <ele>1081.1398926</ele>
        <time>2012-05-08T12:17:45Z</time>
      </trkpt>
      <trkpt lat="43.91175" lon="7.33551">
        <ele>1080.1784668</ele>
        <time>2012-05-08T12:17:51Z</time>
      </trkpt>
      <trkpt lat="43.91165" lon="7.33629">
        <ele>1079.217041</ele>
        <time>2012-05-08T12:17:53Z</time>
      </trkpt>
      <trkpt lat="43.91165" lon="7.33629">
        <ele>1077.7751465</ele>
        <time>2012-05-08T12:17:55Z</time>
      </trkpt>
      <trkpt lat="43.91165" lon="7.33629">
        <ele>1075.8525391</ele>
        <time>2012-05-08T12:17:57Z</time>
      </trkpt>
      <trkpt lat="43.91132" lon="7.33548">
        <ele>1072.96875</ele>
        <time>2012-05-08T12:18:00Z</time>
      </trkpt>
      <trkpt lat="43.91118" lon="7.33537">
        <ele>1071.0461426</ele>
        <time>2012-05-08T12:18:04Z</time>
      </trkpt>
      <trkpt lat="43.91108" lon="7.33529">
        <ele>1070.5654297</ele>
        <time>2012-05-08T12:18:06Z</time>
      </trkpt>
      <trkpt lat="43.91082" lon="7.33532">
        <ele>1072.96875</ele>
        <time>2012-05-08T12:18:09Z</time>
      </trkpt>
      <trkpt lat="43.91078" lon="7.33534">
        <ele>1074.4106445</ele>
        <time>2012-05-08T12:18:10Z</time>
      </trkpt>
      <trkpt lat="43.91071" lon="7.33537">
        <ele>1074.4106445</ele>
        <time>2012-05-08T12:18:12Z</time>
      </trkpt>
      <trkpt lat="43.91053" lon="7.33536">
        <ele>1074.4106445</ele>
        <time>2012-05-08T12:18:16Z</time>
      </trkpt>
      <trkpt lat="43.91042" lon="7.33529">
        <ele>1074.4106445</ele>
        <time>2012-05-08T12:18:20Z</time>
      </trkpt>
      <trkpt lat="43.91036" lon="7.33514">
        <ele>1072.0073242</ele>
        <time>2012-05-08T12:18:23Z</time>
      </trkpt>
      <trkpt lat="43.91039" lon="7.33456">
        <ele>1068.6428223</ele>
        <time>2012-05-08T12:18:33Z</time>
      </trkpt>
      <trkpt lat="43.9104" lon="7.33441">
        <ele>1068.6428223</ele>
        <time>2012-05-08T12:18:34Z</time>
      </trkpt>
      <trkpt lat="43.91034" lon="7.33412">
        <ele>1064.3166504</ele>
        <time>2012-05-08T12:18:37Z</time>
      </trkpt>
      <trkpt lat="43.91029" lon="7.33404">
        <ele>1062.8747559</ele>
        <time>2012-05-08T12:18:39Z</time>
      </trkpt>
      <trkpt lat="43.91015" lon="7.33406">
        <ele>1059.9907227</ele>
        <time>2012-05-08T12:18:44Z</time>
      </trkpt>
      <trkpt lat="43.91012" lon="7.33406">
        <ele>1059.029541</ele>
        <time>2012-05-08T12:18:55Z</time>
      </trkpt>
      <trkpt lat="43.90955" lon="7.334">
        <ele>1059.5102539</ele>
        <time>2012-05-08T12:19:08Z</time>
      </trkpt>
      <trkpt lat="43.90935" lon="7.33402">
        <ele>1059.9907227</ele>
        <time>2012-05-08T12:19:15Z</time>
      </trkpt>
      <trkpt lat="43.90887" lon="7.33414">
        <ele>1061.4328613</ele>
        <time>2012-05-08T12:19:35Z</time>
      </trkpt>
      <trkpt lat="43.90877" lon="7.33419">
        <ele>1061.4328613</ele>
        <time>2012-05-08T12:19:38Z</time>
      </trkpt>
      <trkpt lat="43.90861" lon="7.33407">
        <ele>1061.4328613</ele>
        <time>2012-05-08T12:19:45Z</time>
      </trkpt>
      <trkpt lat="43.90844" lon="7.33409">
        <ele>1062.8747559</ele>
        <time>2012-05-08T12:19:53Z</time>
      </trkpt>
      <trkpt lat="43.90836" lon="7.3341">
        <ele>1063.3554688</ele>
        <time>2012-05-08T12:19:57Z</time>
      </trkpt>
      <trkpt lat="43.90828" lon="7.33407">
        <ele>1063.8359375</ele>
        <time>2012-05-08T12:20:01Z</time>
      </trkpt>
      <trkpt lat="43.90812" lon="7.33382">
        <ele>1067.2006836</ele>
        <time>2012-05-08T12:20:12Z</time>
      </trkpt>
      <trkpt lat="43.90811" lon="7.33381">
        <ele>1067.6811523</ele>
        <time>2012-05-08T12:20:13Z</time>
      </trkpt>
      <trkpt lat="43.90802" lon="7.33365">
        <ele>1067.6811523</ele>
        <time>2012-05-08T12:20:18Z</time>
      </trkpt>
      <trkpt lat="43.90794" lon="7.33353">
        <ele>1065.2780762</ele>
        <time>2012-05-08T12:20:21Z</time>
      </trkpt>
      <trkpt lat="43.90792" lon="7.3335">
        <ele>1064.7973633</ele>
        <time>2012-05-08T12:20:22Z</time>
      </trkpt>
      <trkpt lat="43.9079" lon="7.33344">
        <ele>1063.3554688</ele>
        <time>2012-05-08T12:20:24Z</time>
      </trkpt>
      <trkpt lat="43.9077" lon="7.33341">
        <ele>1063.3554688</ele>
        <time>2012-05-08T12:20:33Z</time>
      </trkpt>
      <trkpt lat="43.90762" lon="7.33354">
        <ele>1064.3166504</ele>
        <time>2012-05-08T12:20:40Z</time>
      </trkpt>
      <trkpt lat="43.90758" lon="7.3335">
        <ele>1063.8359375</ele>
        <time>2012-05-08T12:21:04Z</time>
      </trkpt>
      <trkpt lat="43.90757" lon="7.33348">
        <ele>1063.8359375</ele>
        <time>2012-05-08T12:21:26Z</time>
      </trkpt>
      <trkpt lat="43.90754" lon="7.33312">
        <ele>1067.2006836</ele>
        <time>2012-05-08T12:21:41Z</time>
      </trkpt>
      <trkpt lat="43.90755" lon="7.3331">
        <ele>1067.2006836</ele>
        <time>2012-05-08T12:21:42Z</time>
      </trkpt>
      <trkpt lat="43.90767" lon="7.33283">
        <ele>1068.1621094</ele>
        <time>2012-05-08T12:21:54Z</time>
      </trkpt>
      <trkpt lat="43.90774" lon="7.3328">
        <ele>1068.6428223</ele>
        <time>2012-05-08T12:21:58Z</time>
      </trkpt>
      <trkpt lat="43.90821" lon="7.33246">
        <ele>1069.1235352</ele>
        <time>2012-05-08T12:22:19Z</time>
      </trkpt>
      <trkpt lat="43.90868" lon="7.33217">
        <ele>1070.5654297</ele>
        <time>2012-05-08T12:22:37Z</time>
      </trkpt>
      <trkpt lat="43.9089" lon="7.33189">
        <ele>1073.4494629</ele>
        <time>2012-05-08T12:22:50Z</time>
      </trkpt>
      <trkpt lat="43.90896" lon="7.3316">
        <ele>1074.4106445</ele>
        <time>2012-05-08T12:23:00Z</time>
      </trkpt>
      <trkpt lat="43.90901" lon="7.33154">
        <ele>1074.4106445</ele>
        <time>2012-05-08T12:23:02Z</time>
      </trkpt>
      <trkpt lat="43.90928" lon="7.33124">
        <ele>1077.7751465</ele>
        <time>2012-05-08T12:23:20Z</time>
      </trkpt>
      <trkpt lat="43.90946" lon="7.33081">
        <ele>1081.1398926</ele>
        <time>2012-05-08T12:23:39Z</time>
      </trkpt>
      <trkpt lat="43.90977" lon="7.3307">
        <ele>1084.0239258</ele>
        <time>2012-05-08T12:23:57Z</time>
      </trkpt>
      <trkpt lat="43.90996" lon="7.33071">
        <ele>1086.4272461</ele>
        <time>2012-05-08T12:24:08Z</time>
      </trkpt>
      <trkpt lat="43.9102" lon="7.33051">
        <ele>1089.791748</ele>
        <time>2012-05-08T12:24:28Z</time>
      </trkpt>
      <trkpt lat="43.91026" lon="7.33046">
        <ele>1089.791748</ele>
        <time>2012-05-08T12:24:33Z</time>
      </trkpt>
      <trkpt lat="43.91052" lon="7.33032">
        <ele>1093.15625</ele>
        <time>2012-05-08T12:24:53Z</time>
      </trkpt>
      <trkpt lat="43.9107" lon="7.33027">
        <ele>1096.0402832</ele>
        <time>2012-05-08T12:25:06Z</time>
      </trkpt>
      <trkpt lat="43.91092" lon="7.33019">
        <ele>1097.9628906</ele>
        <time>2012-05-08T12:25:22Z</time>
      </trkpt>
      <trkpt lat="43.91115" lon="7.33001">
        <ele>1101.8083496</ele>
        <time>2012-05-08T12:25:41Z</time>
      </trkpt>
      <trkpt lat="43.91128" lon="7.32975">
        <ele>1103.730957</ele>
        <time>2012-05-08T12:25:57Z</time>
      </trkpt>
      <trkpt lat="43.91144" lon="7.32947">
        <ele>1104.6921387</ele>
        <time>2012-05-08T12:26:12Z</time>
      </trkpt>
      <trkpt lat="43.9115" lon="7.32939">
        <ele>1105.1728516</ele>
        <time>2012-05-08T12:26:17Z</time>
      </trkpt>
      <trkpt lat="43.91169" lon="7.32906">
        <ele>1106.6147461</ele>
        <time>2012-05-08T12:26:32Z</time>
      </trkpt>
      <trkpt lat="43.91198" lon="7.32887">
        <ele>1106.6147461</ele>
        <time>2012-05-08T12:26:48Z</time>
      </trkpt>
      <trkpt lat="43.91243" lon="7.3286">
        <ele>1105.1728516</ele>
        <time>2012-05-08T12:27:04Z</time>
      </trkpt>
      <trkpt lat="43.91258" lon="7.32827">
        <ele>1103.730957</ele>
        <time>2012-05-08T12:27:10Z</time>
      </trkpt>
      <trkpt lat="43.91294" lon="7.3281">
        <ele>1101.8083496</ele>
        <time>2012-05-08T12:27:17Z</time>
      </trkpt>
      <trkpt lat="43.91332" lon="7.32778">
        <ele>1102.7695313</ele>
        <time>2012-05-08T12:27:29Z</time>
      </trkpt>
      <trkpt lat="43.91375" lon="7.32746">
        <ele>1105.6535645</ele>
        <time>2012-05-08T12:27:44Z</time>
      </trkpt>
      <trkpt lat="43.91389" lon="7.32736">
        <ele>1107.095459</ele>
        <time>2012-05-08T12:27:51Z</time>
      </trkpt>
      <trkpt lat="43.91427" lon="7.32714">
        <ele>1109.979248</ele>
        <time>2012-05-08T12:28:10Z</time>
      </trkpt>
      <trkpt lat="43.91456" lon="7.327">
        <ele>1111.9020996</ele>
        <time>2012-05-08T12:28:22Z</time>
      </trkpt>
      <trkpt lat="43.91467" lon="7.32657">
        <ele>1111.9020996</ele>
        <time>2012-05-08T12:28:36Z</time>
      </trkpt>
      <trkpt lat="43.91462" lon="7.3259">
        <ele>1114.3051758</ele>
        <time>2012-05-08T12:28:55Z</time>
      </trkpt>
      <trkpt lat="43.91453" lon="7.32524">
        <ele>1115.2666016</ele>
        <time>2012-05-08T12:29:13Z</time>
      </trkpt>
      <trkpt lat="43.91448" lon="7.32515">
        <ele>1114.7858887</ele>
        <time>2012-05-08T12:29:16Z</time>
      </trkpt>
      <trkpt lat="43.91446" lon="7.32467">
        <ele>1111.9020996</ele>
        <time>2012-05-08T12:29:23Z</time>
      </trkpt>
      <trkpt lat="43.91438" lon="7.32421">
        <ele>1108.0568848</ele>
        <time>2012-05-08T12:29:29Z</time>
      </trkpt>
      <trkpt lat="43.9144" lon="7.32402">
        <ele>1107.095459</ele>
        <time>2012-05-08T12:29:31Z</time>
      </trkpt>
      <trkpt lat="43.91442" lon="7.32334">
        <ele>1108.5373535</ele>
        <time>2012-05-08T12:29:43Z</time>
      </trkpt>
      <trkpt lat="43.91443" lon="7.32324">
        <ele>1110.4599609</ele>
        <time>2012-05-08T12:29:57Z</time>
      </trkpt>
      <trkpt lat="43.91443" lon="7.32324">
        <ele>1111.4213867</ele>
        <time>2012-05-08T12:30:23Z</time>
      </trkpt>
      <trkpt lat="43.91443" lon="7.32319">
        <ele>1109.979248</ele>
        <time>2012-05-08T12:31:04Z</time>
      </trkpt>
      <trkpt lat="43.91443" lon="7.32318">
        <ele>1109.979248</ele>
        <time>2012-05-08T12:31:06Z</time>
      </trkpt>
      <trkpt lat="43.91454" lon="7.32304">
        <ele>1107.5761719</ele>
        <time>2012-05-08T12:31:10Z</time>
      </trkpt>
      <trkpt lat="43.91463" lon="7.32291">
        <ele>1105.6535645</ele>
        <time>2012-05-08T12:31:13Z</time>
      </trkpt>
      <trkpt lat="43.91479" lon="7.32275">
        <ele>1101.8083496</ele>
        <time>2012-05-08T12:31:20Z</time>
      </trkpt>
      <trkpt lat="43.91488" lon="7.32267">
        <ele>1099.885498</ele>
        <time>2012-05-08T12:31:23Z</time>
      </trkpt>
      <trkpt lat="43.91488" lon="7.32267">
        <ele>1099.4047852</ele>
        <time>2012-05-08T12:31:49Z</time>
      </trkpt>
      <trkpt lat="43.9149" lon="7.32265">
        <ele>1099.4047852</ele>
        <time>2012-05-08T12:32:29Z</time>
      </trkpt>
      <trkpt lat="43.91504" lon="7.32245">
        <ele>1097.9628906</ele>
        <time>2012-05-08T12:32:45Z</time>
      </trkpt>
      <trkpt lat="43.9151" lon="7.32234">
        <ele>1096.5209961</ele>
        <time>2012-05-08T12:32:50Z</time>
      </trkpt>
      <trkpt lat="43.91522" lon="7.32214">
        <ele>1094.1176758</ele>
        <time>2012-05-08T12:32:56Z</time>
      </trkpt>
      <trkpt lat="43.91533" lon="7.32188">
        <ele>1090.7529297</ele>
        <time>2012-05-08T12:33:02Z</time>
      </trkpt>
      <trkpt lat="43.91535" lon="7.32182">
        <ele>1090.7529297</ele>
        <time>2012-05-08T12:33:03Z</time>
      </trkpt>
      <trkpt lat="43.91542" lon="7.32169">
        <ele>1090.7529297</ele>
        <time>2012-05-08T12:33:12Z</time>
      </trkpt>
      <trkpt lat="43.91542" lon="7.32169">
        <ele>1090.7529297</ele>
        <time>2012-05-08T12:33:13Z</time>
      </trkpt>
      <trkpt lat="43.91555" lon="7.32159">
        <ele>1090.2724609</ele>
        <time>2012-05-08T12:33:19Z</time>
      </trkpt>
      <trkpt lat="43.91562" lon="7.32155">
        <ele>1090.2724609</ele>
        <time>2012-05-08T12:33:24Z</time>
      </trkpt>
      <trkpt lat="43.9158" lon="7.32141">
        <ele>1088.8305664</ele>
        <time>2012-05-08T12:33:30Z</time>
      </trkpt>
      <trkpt lat="43.91604" lon="7.3212">
        <ele>1087.3884277</ele>
        <time>2012-05-08T12:33:35Z</time>
      </trkpt>
      <trkpt lat="43.91616" lon="7.32109">
        <ele>1085.4658203</ele>
        <time>2012-05-08T12:33:37Z</time>
      </trkpt>
      <trkpt lat="43.91621" lon="7.32103">
        <ele>1084.0239258</ele>
        <time>2012-05-08T12:33:38Z</time>
      </trkpt>
      <trkpt lat="43.91632" lon="7.32095">
        <ele>1084.5046387</ele>
        <time>2012-05-08T12:33:40Z</time>
      </trkpt>
      <trkpt lat="43.91642" lon="7.3209">
        <ele>1083.0622559</ele>
        <time>2012-05-08T12:33:42Z</time>
      </trkpt>
      <trkpt lat="43.91651" lon="7.32081">
        <ele>1081.6203613</ele>
        <time>2012-05-08T12:33:44Z</time>
      </trkpt>
      <trkpt lat="43.91659" lon="7.32072">
        <ele>1079.217041</ele>
        <time>2012-05-08T12:33:46Z</time>
      </trkpt>
      <trkpt lat="43.91671" lon="7.32064">
        <ele>1078.7365723</ele>
        <time>2012-05-08T12:33:49Z</time>
      </trkpt>
      <trkpt lat="43.91683" lon="7.32048">
        <ele>1077.7751465</ele>
        <time>2012-05-08T12:33:54Z</time>
      </trkpt>
      <trkpt lat="43.91706" lon="7.32039">
        <ele>1075.3718262</ele>
        <time>2012-05-08T12:34:01Z</time>
      </trkpt>
      <trkpt lat="43.91714" lon="7.32036">
        <ele>1073.4494629</ele>
        <time>2012-05-08T12:34:03Z</time>
      </trkpt>
      <trkpt lat="43.91733" lon="7.3204">
        <ele>1069.1235352</ele>
        <time>2012-05-08T12:34:09Z</time>
      </trkpt>
      <trkpt lat="43.91739" lon="7.32041">
        <ele>1069.1235352</ele>
        <time>2012-05-08T12:34:10Z</time>
      </trkpt>
      <trkpt lat="43.91743" lon="7.32041">
        <ele>1068.6428223</ele>
        <time>2012-05-08T12:34:11Z</time>
      </trkpt>
      <trkpt lat="43.91771" lon="7.3203">
        <ele>1063.8359375</ele>
        <time>2012-05-08T12:34:16Z</time>
      </trkpt>
      <trkpt lat="43.91781" lon="7.32026">
        <ele>1062.8747559</ele>
        <time>2012-05-08T12:34:18Z</time>
      </trkpt>
      <trkpt lat="43.91792" lon="7.32024">
        <ele>1059.5102539</ele>
        <time>2012-05-08T12:34:20Z</time>
      </trkpt>
      <trkpt lat="43.91797" lon="7.32021">
        <ele>1059.5102539</ele>
        <time>2012-05-08T12:34:21Z</time>
      </trkpt>
      <trkpt lat="43.91812" lon="7.32018">
        <ele>1055.1843262</ele>
        <time>2012-05-08T12:34:24Z</time>
      </trkpt>
      <trkpt lat="43.91818" lon="7.32018">
        <ele>1053.7424316</ele>
        <time>2012-05-08T12:34:26Z</time>
      </trkpt>
      <trkpt lat="43.91818" lon="7.32018">
        <ele>1053.7424316</ele>
        <time>2012-05-08T12:34:39Z</time>
      </trkpt>
      <trkpt lat="43.91818" lon="7.32018">
        <ele>1053.7424316</ele>
        <time>2012-05-08T12:34:49Z</time>
      </trkpt>
      <trkpt lat="43.91818" lon="7.32018">
        <ele>1053.2617188</ele>
        <time>2012-05-08T12:34:51Z</time>
      </trkpt>
      <trkpt lat="43.91822" lon="7.32018">
        <ele>1051.3388672</ele>
        <time>2012-05-08T12:35:02Z</time>
      </trkpt>
      <trkpt lat="43.9183" lon="7.32016">
        <ele>1050.8581543</ele>
        <time>2012-05-08T12:35:07Z</time>
      </trkpt>
      <trkpt lat="43.91836" lon="7.3201">
        <ele>1050.3776855</ele>
        <time>2012-05-08T12:35:12Z</time>
      </trkpt>
      <trkpt lat="43.91852" lon="7.32014">
        <ele>1047.4936523</ele>
        <time>2012-05-08T12:35:19Z</time>
      </trkpt>
      <trkpt lat="43.91857" lon="7.32016">
        <ele>1045.5710449</ele>
        <time>2012-05-08T12:35:21Z</time>
      </trkpt>
      <trkpt lat="43.9186" lon="7.32017">
        <ele>1045.090332</ele>
        <time>2012-05-08T12:35:22Z</time>
      </trkpt>
      <trkpt lat="43.91863" lon="7.32018">
        <ele>1044.1291504</ele>
        <time>2012-05-08T12:35:24Z</time>
      </trkpt>
      <trkpt lat="43.91868" lon="7.32019">
        <ele>1042.6872559</ele>
        <time>2012-05-08T12:35:28Z</time>
      </trkpt>
      <trkpt lat="43.91872" lon="7.3202">
        <ele>1041.2451172</ele>
        <time>2012-05-08T12:35:31Z</time>
      </trkpt>
      <trkpt lat="43.91879" lon="7.32017">
        <ele>1039.8032227</ele>
        <time>2012-05-08T12:35:35Z</time>
      </trkpt>
      <trkpt lat="43.91885" lon="7.32012">
        <ele>1035.9577637</ele>
        <time>2012-05-08T12:35:37Z</time>
      </trkpt>
      <trkpt lat="43.91888" lon="7.32009">
        <ele>1035.9577637</ele>
        <time>2012-05-08T12:35:38Z</time>
      </trkpt>
      <trkpt lat="43.91893" lon="7.3201">
        <ele>1034.5158691</ele>
        <time>2012-05-08T12:35:40Z</time>
      </trkpt>
      <trkpt lat="43.91908" lon="7.3201">
        <ele>1031.6318359</ele>
        <time>2012-05-08T12:35:47Z</time>
      </trkpt>
      <trkpt lat="43.9192" lon="7.32005">
        <ele>1028.7480469</ele>
        <time>2012-05-08T12:35:52Z</time>
      </trkpt>
      <trkpt lat="43.91927" lon="7.31986">
        <ele>1026.3447266</ele>
        <time>2012-05-08T12:35:54Z</time>
      </trkpt>
      <trkpt lat="43.91933" lon="7.31987">
        <ele>1024.902832</ele>
        <time>2012-05-08T12:35:56Z</time>
      </trkpt>
      <trkpt lat="43.91936" lon="7.31987">
        <ele>1025.3833008</ele>
        <time>2012-05-08T12:36:05Z</time>
      </trkpt>
      <trkpt lat="43.91944" lon="7.31988">
        <ele>1024.4221191</ele>
        <time>2012-05-08T12:36:08Z</time>
      </trkpt>
      <trkpt lat="43.91952" lon="7.31984">
        <ele>1022.4995117</ele>
        <time>2012-05-08T12:36:10Z</time>
      </trkpt>
      <trkpt lat="43.91957" lon="7.31979">
        <ele>1020.0961914</ele>
        <time>2012-05-08T12:36:12Z</time>
      </trkpt>
      <trkpt lat="43.91961" lon="7.31969">
        <ele>1016.7314453</ele>
        <time>2012-05-08T12:36:15Z</time>
      </trkpt>
      <trkpt lat="43.91962" lon="7.31965">
        <ele>1014.8088379</ele>
        <time>2012-05-08T12:36:16Z</time>
      </trkpt>
      <trkpt lat="43.91976" lon="7.31954">
        <ele>1014.8088379</ele>
        <time>2012-05-08T12:36:20Z</time>
      </trkpt>
      <trkpt lat="43.91982" lon="7.31953">
        <ele>1012.8862305</ele>
        <time>2012-05-08T12:36:22Z</time>
      </trkpt>
      <trkpt lat="43.91994" lon="7.31954">
        <ele>1010.963623</ele>
        <time>2012-05-08T12:36:35Z</time>
      </trkpt>
      <trkpt lat="43.92005" lon="7.3195">
        <ele>1009.0410156</ele>
        <time>2012-05-08T12:36:38Z</time>
      </trkpt>
      <trkpt lat="43.92013" lon="7.31945">
        <ele>1009.0410156</ele>
        <time>2012-05-08T12:36:40Z</time>
      </trkpt>
      <trkpt lat="43.92023" lon="7.31936">
        <ele>1007.1184082</ele>
        <time>2012-05-08T12:36:43Z</time>
      </trkpt>
      <trkpt lat="43.92036" lon="7.31903">
        <ele>1001.8310547</ele>
        <time>2012-05-08T12:36:50Z</time>
      </trkpt>
      <trkpt lat="43.92039" lon="7.31891">
        <ele>1000.3891602</ele>
        <time>2012-05-08T12:36:52Z</time>
      </trkpt>
      <trkpt lat="43.92042" lon="7.31883">
        <ele>998.9470215</ele>
        <time>2012-05-08T12:36:54Z</time>
      </trkpt>
      <trkpt lat="43.92045" lon="7.31876">
        <ele>997.505127</ele>
        <time>2012-05-08T12:37:06Z</time>
      </trkpt>
      <trkpt lat="43.92045" lon="7.31876">
        <ele>997.505127</ele>
        <time>2012-05-08T12:37:10Z</time>
      </trkpt>
      <trkpt lat="43.92055" lon="7.31838">
        <ele>995.1018066</ele>
        <time>2012-05-08T12:37:17Z</time>
      </trkpt>
      <trkpt lat="43.92055" lon="7.31816">
        <ele>993.6599121</ele>
        <time>2012-05-08T12:37:20Z</time>
      </trkpt>
      <trkpt lat="43.92055" lon="7.31797">
        <ele>991.2565918</ele>
        <time>2012-05-08T12:37:24Z</time>
      </trkpt>
      <trkpt lat="43.92055" lon="7.31786">
        <ele>988.3728027</ele>
        <time>2012-05-08T12:37:27Z</time>
      </trkpt>
      <trkpt lat="43.92055" lon="7.31773">
        <ele>987.4111328</ele>
        <time>2012-05-08T12:37:32Z</time>
      </trkpt>
      <trkpt lat="43.92072" lon="7.31775">
        <ele>988.8535156</ele>
        <time>2012-05-08T12:37:50Z</time>
      </trkpt>
      <trkpt lat="43.92074" lon="7.31774">
        <ele>989.8146973</ele>
        <time>2012-05-08T12:37:58Z</time>
      </trkpt>
      <trkpt lat="43.92079" lon="7.31769">
        <ele>989.8146973</ele>
        <time>2012-05-08T12:38:02Z</time>
      </trkpt>
      <trkpt lat="43.92119" lon="7.31738">
        <ele>991.7373047</ele>
        <time>2012-05-08T12:38:19Z</time>
      </trkpt>
      <trkpt lat="43.92143" lon="7.3172">
        <ele>991.7373047</ele>
        <time>2012-05-08T12:38:28Z</time>
      </trkpt>
      <trkpt lat="43.92155" lon="7.31712">
        <ele>990.7758789</ele>
        <time>2012-05-08T12:38:38Z</time>
      </trkpt>
      <trkpt lat="43.92159" lon="7.31708">
        <ele>992.2180176</ele>
        <time>2012-05-08T12:38:41Z</time>
      </trkpt>
      <trkpt lat="43.92162" lon="7.31701">
        <ele>993.1791992</ele>
        <time>2012-05-08T12:38:47Z</time>
      </trkpt>
      <trkpt lat="43.92169" lon="7.31687">
        <ele>993.1791992</ele>
        <time>2012-05-08T12:38:54Z</time>
      </trkpt>
      <trkpt lat="43.9217" lon="7.31681">
        <ele>993.1791992</ele>
        <time>2012-05-08T12:38:56Z</time>
      </trkpt>
      <trkpt lat="43.9217" lon="7.31674">
        <ele>992.6987305</ele>
        <time>2012-05-08T12:38:58Z</time>
      </trkpt>
      <trkpt lat="43.92175" lon="7.3165">
        <ele>992.2180176</ele>
        <time>2012-05-08T12:39:04Z</time>
      </trkpt>
      <trkpt lat="43.92181" lon="7.31639">
        <ele>991.7373047</ele>
        <time>2012-05-08T12:39:08Z</time>
      </trkpt>
      <trkpt lat="43.92188" lon="7.31606">
        <ele>990.7758789</ele>
        <time>2012-05-08T12:39:21Z</time>
      </trkpt>
      <trkpt lat="43.92195" lon="7.31581">
        <ele>990.7758789</ele>
        <time>2012-05-08T12:39:35Z</time>
      </trkpt>
      <trkpt lat="43.92199" lon="7.31547">
        <ele>992.6987305</ele>
        <time>2012-05-08T12:39:48Z</time>
      </trkpt>
      <trkpt lat="43.92199" lon="7.31543">
        <ele>994.140625</ele>
        <time>2012-05-08T12:39:50Z</time>
      </trkpt>
      <trkpt lat="43.92207" lon="7.31529">
        <ele>995.1018066</ele>
        <time>2012-05-08T12:39:57Z</time>
      </trkpt>
      <trkpt lat="43.92209" lon="7.31525">
        <ele>995.1018066</ele>
        <time>2012-05-08T12:39:59Z</time>
      </trkpt>
      <trkpt lat="43.92216" lon="7.31505">
        <ele>995.1018066</ele>
        <time>2012-05-08T12:40:06Z</time>
      </trkpt>
      <trkpt lat="43.9222" lon="7.3148">
        <ele>995.5825195</ele>
        <time>2012-05-08T12:40:14Z</time>
      </trkpt>
      <trkpt lat="43.92223" lon="7.3147">
        <ele>995.5825195</ele>
        <time>2012-05-08T12:40:18Z</time>
      </trkpt>
      <trkpt lat="43.92232" lon="7.31445">
        <ele>995.5825195</ele>
        <time>2012-05-08T12:40:24Z</time>
      </trkpt>
      <trkpt lat="43.9224" lon="7.3143">
        <ele>996.0632324</ele>
        <time>2012-05-08T12:40:35Z</time>
      </trkpt>
      <trkpt lat="43.92242" lon="7.31413">
        <ele>996.0632324</ele>
        <time>2012-05-08T12:40:51Z</time>
      </trkpt>
      <trkpt lat="43.92242" lon="7.31408">
        <ele>997.0244141</ele>
        <time>2012-05-08T12:41:01Z</time>
      </trkpt>
      <trkpt lat="43.92247" lon="7.31389">
        <ele>996.5439453</ele>
        <time>2012-05-08T12:41:15Z</time>
      </trkpt>
      <trkpt lat="43.92247" lon="7.31385">
        <ele>997.0244141</ele>
        <time>2012-05-08T12:41:21Z</time>
      </trkpt>
      <trkpt lat="43.92248" lon="7.31366">
        <ele>997.0244141</ele>
        <time>2012-05-08T12:41:28Z</time>
      </trkpt>
      <trkpt lat="43.92246" lon="7.31344">
        <ele>997.9858398</ele>
        <time>2012-05-08T12:41:35Z</time>
      </trkpt>
      <trkpt lat="43.92248" lon="7.31317">
        <ele>996.0632324</ele>
        <time>2012-05-08T12:41:45Z</time>
      </trkpt>
      <trkpt lat="43.9225" lon="7.31303">
        <ele>995.5825195</ele>
        <time>2012-05-08T12:41:50Z</time>
      </trkpt>
      <trkpt lat="43.92253" lon="7.31287">
        <ele>993.6599121</ele>
        <time>2012-05-08T12:41:53Z</time>
      </trkpt>
      <trkpt lat="43.92256" lon="7.31277">
        <ele>993.1791992</ele>
        <time>2012-05-08T12:41:55Z</time>
      </trkpt>
      <trkpt lat="43.92226" lon="7.31253">
        <ele>992.2180176</ele>
        <time>2012-05-08T12:42:01Z</time>
      </trkpt>
      <trkpt lat="43.92224" lon="7.31238">
        <ele>991.7373047</ele>
        <time>2012-05-08T12:42:04Z</time>
      </trkpt>
      <trkpt lat="43.92215" lon="7.31186">
        <ele>986.9304199</ele>
        <time>2012-05-08T12:42:13Z</time>
      </trkpt>
      <trkpt lat="43.92214" lon="7.31178">
        <ele>986.9304199</ele>
        <time>2012-05-08T12:42:14Z</time>
      </trkpt>
      <trkpt lat="43.92212" lon="7.31167">
        <ele>985.4885254</ele>
        <time>2012-05-08T12:42:16Z</time>
      </trkpt>
      <trkpt lat="43.92216" lon="7.31114">
        <ele>983.565918</ele>
        <time>2012-05-08T12:42:21Z</time>
      </trkpt>
      <trkpt lat="43.92223" lon="7.31096">
        <ele>980.201416</ele>
        <time>2012-05-08T12:42:27Z</time>
      </trkpt>
      <trkpt lat="43.92226" lon="7.31075">
        <ele>977.317627</ele>
        <time>2012-05-08T12:42:32Z</time>
      </trkpt>
      <trkpt lat="43.92227" lon="7.31069">
        <ele>975.8754883</ele>
        <time>2012-05-08T12:42:34Z</time>
      </trkpt>
      <trkpt lat="43.92226" lon="7.31058">
        <ele>972.5109863</ele>
        <time>2012-05-08T12:42:36Z</time>
      </trkpt>
      <trkpt lat="43.92226" lon="7.31053">
        <ele>972.5109863</ele>
        <time>2012-05-08T12:42:37Z</time>
      </trkpt>
      <trkpt lat="43.92226" lon="7.31044">
        <ele>972.9916992</ele>
        <time>2012-05-08T12:42:39Z</time>
      </trkpt>
      <trkpt lat="43.92222" lon="7.30974">
        <ele>972.0302734</ele>
        <time>2012-05-08T12:42:55Z</time>
      </trkpt>
      <trkpt lat="43.9222" lon="7.30952">
        <ele>971.0688477</ele>
        <time>2012-05-08T12:43:08Z</time>
      </trkpt>
      <trkpt lat="43.9222" lon="7.30952">
        <ele>971.0688477</ele>
        <time>2012-05-08T12:43:09Z</time>
      </trkpt>
      <trkpt lat="43.92299" lon="7.30936">
        <ele>972.9916992</ele>
        <time>2012-05-08T12:43:26Z</time>
      </trkpt>
      <trkpt lat="43.92302" lon="7.30934">
        <ele>973.9528809</ele>
        <time>2012-05-08T12:43:29Z</time>
      </trkpt>
      <trkpt lat="43.92305" lon="7.30945">
        <ele>973.9528809</ele>
        <time>2012-05-08T12:43:44Z</time>
      </trkpt>
      <trkpt lat="43.92307" lon="7.30954">
        <ele>972.0302734</ele>
        <time>2012-05-08T12:43:47Z</time>
      </trkpt>
      <trkpt lat="43.92302" lon="7.30964">
        <ele>972.0302734</ele>
        <time>2012-05-08T12:44:01Z</time>
      </trkpt>
      <trkpt lat="43.923" lon="7.30965">
        <ele>972.0302734</ele>
        <time>2012-05-08T12:44:04Z</time>
      </trkpt>
      <trkpt lat="43.9231" lon="7.30967">
        <ele>972.9916992</ele>
        <time>2012-05-08T12:44:11Z</time>
      </trkpt>
      <trkpt lat="43.92319" lon="7.30973">
        <ele>973.4724121</ele>
        <time>2012-05-08T12:44:21Z</time>
      </trkpt>
      <trkpt lat="43.92324" lon="7.30972">
        <ele>972.9916992</ele>
        <time>2012-05-08T12:44:24Z</time>
      </trkpt>
      <trkpt lat="43.92338" lon="7.3097">
        <ele>974.9143066</ele>
        <time>2012-05-08T12:44:32Z</time>
      </trkpt>
      <trkpt lat="43.92345" lon="7.30972">
        <ele>975.8754883</ele>
        <time>2012-05-08T12:44:39Z</time>
      </trkpt>
      <trkpt lat="43.92365" lon="7.30992">
        <ele>971.5493164</ele>
        <time>2012-05-08T12:44:54Z</time>
      </trkpt>
      <trkpt lat="43.92365" lon="7.30995">
        <ele>971.0688477</ele>
        <time>2012-05-08T12:44:55Z</time>
      </trkpt>
      <trkpt lat="43.92371" lon="7.30999">
        <ele>970.5881348</ele>
        <time>2012-05-08T12:44:58Z</time>
      </trkpt>
      <trkpt lat="43.92384" lon="7.31005">
        <ele>966.7429199</ele>
        <time>2012-05-08T12:45:06Z</time>
      </trkpt>
      <trkpt lat="43.9239" lon="7.31013">
        <ele>965.3010254</ele>
        <time>2012-05-08T12:45:10Z</time>
      </trkpt>
      <trkpt lat="43.92392" lon="7.31016">
        <ele>963.8588867</ele>
        <time>2012-05-08T12:45:12Z</time>
      </trkpt>
      <trkpt lat="43.92395" lon="7.31018">
        <ele>962.4169922</ele>
        <time>2012-05-08T12:45:15Z</time>
      </trkpt>
      <trkpt lat="43.92398" lon="7.31021">
        <ele>961.4558105</ele>
        <time>2012-05-08T12:45:17Z</time>
      </trkpt>
      <trkpt lat="43.92403" lon="7.31025">
        <ele>960.0136719</ele>
        <time>2012-05-08T12:45:19Z</time>
      </trkpt>
      <trkpt lat="43.92406" lon="7.31028">
        <ele>958.5717773</ele>
        <time>2012-05-08T12:45:21Z</time>
      </trkpt>
      <trkpt lat="43.92412" lon="7.31029">
        <ele>956.168457</ele>
        <time>2012-05-08T12:45:24Z</time>
      </trkpt>
      <trkpt lat="43.92418" lon="7.3103">
        <ele>953.7651367</ele>
        <time>2012-05-08T12:45:27Z</time>
      </trkpt>
      <trkpt lat="43.92421" lon="7.31028">
        <ele>952.322998</ele>
        <time>2012-05-08T12:45:29Z</time>
      </trkpt>
      <trkpt lat="43.92431" lon="7.31028">
        <ele>950.4006348</ele>
        <time>2012-05-08T12:45:33Z</time>
      </trkpt>
      <trkpt lat="43.92435" lon="7.31029">
        <ele>948.9584961</ele>
        <time>2012-05-08T12:45:35Z</time>
      </trkpt>
      <trkpt lat="43.92439" lon="7.31031">
        <ele>947.5166016</ele>
        <time>2012-05-08T12:45:37Z</time>
      </trkpt>
      <trkpt lat="43.92443" lon="7.31033">
        <ele>944.1520996</ele>
        <time>2012-05-08T12:45:39Z</time>
      </trkpt>
      <trkpt lat="43.9245" lon="7.31035">
        <ele>942.7102051</ele>
        <time>2012-05-08T12:45:42Z</time>
      </trkpt>
      <trkpt lat="43.92454" lon="7.31035">
        <ele>940.7873535</ele>
        <time>2012-05-08T12:45:44Z</time>
      </trkpt>
      <trkpt lat="43.92462" lon="7.31036">
        <ele>938.3840332</ele>
        <time>2012-05-08T12:45:47Z</time>
      </trkpt>
      <trkpt lat="43.9248" lon="7.31038">
        <ele>935.0195313</ele>
        <time>2012-05-08T12:45:51Z</time>
      </trkpt>
      <trkpt lat="43.92488" lon="7.31031">
        <ele>931.1743164</ele>
        <time>2012-05-08T12:45:53Z</time>
      </trkpt>
      <trkpt lat="43.92492" lon="7.3103">
        <ele>931.1743164</ele>
        <time>2012-05-08T12:45:54Z</time>
      </trkpt>
      <trkpt lat="43.925" lon="7.31029">
        <ele>930.2128906</ele>
        <time>2012-05-08T12:45:56Z</time>
      </trkpt>
      <trkpt lat="43.92507" lon="7.31029">
        <ele>928.7709961</ele>
        <time>2012-05-08T12:45:58Z</time>
      </trkpt>
      <trkpt lat="43.92517" lon="7.31028">
        <ele>926.8483887</ele>
        <time>2012-05-08T12:46:01Z</time>
      </trkpt>
      <trkpt lat="43.92525" lon="7.31027">
        <ele>924.4450684</ele>
        <time>2012-05-08T12:46:03Z</time>
      </trkpt>
      <trkpt lat="43.92538" lon="7.31026">
        <ele>923.0029297</ele>
        <time>2012-05-08T12:46:05Z</time>
      </trkpt>
      <trkpt lat="43.92547" lon="7.31025">
        <ele>920.5996094</ele>
        <time>2012-05-08T12:46:08Z</time>
      </trkpt>
      <trkpt lat="43.92554" lon="7.31024">
        <ele>919.6384277</ele>
        <time>2012-05-08T12:46:09Z</time>
      </trkpt>
      <trkpt lat="43.92561" lon="7.31023">
        <ele>918.1962891</ele>
        <time>2012-05-08T12:46:11Z</time>
      </trkpt>
      <trkpt lat="43.9257" lon="7.31022">
        <ele>915.7932129</ele>
        <time>2012-05-08T12:46:14Z</time>
      </trkpt>
      <trkpt lat="43.92578" lon="7.31021">
        <ele>910.0251465</ele>
        <time>2012-05-08T12:46:16Z</time>
      </trkpt>
      <trkpt lat="43.92584" lon="7.31021">
        <ele>909.0639648</ele>
        <time>2012-05-08T12:46:18Z</time>
      </trkpt>
      <trkpt lat="43.92594" lon="7.31019">
        <ele>908.1027832</ele>
        <time>2012-05-08T12:46:21Z</time>
      </trkpt>
      <trkpt lat="43.92611" lon="7.31017">
        <ele>905.2185059</ele>
        <time>2012-05-08T12:46:24Z</time>
      </trkpt>
      <trkpt lat="43.92623" lon="7.31016">
        <ele>903.7766113</ele>
        <time>2012-05-08T12:46:26Z</time>
      </trkpt>
      <trkpt lat="43.92637" lon="7.31014">
        <ele>898.0087891</ele>
        <time>2012-05-08T12:46:30Z</time>
      </trkpt>
      <trkpt lat="43.92639" lon="7.31014">
        <ele>898.0087891</ele>
        <time>2012-05-08T12:46:31Z</time>
      </trkpt>
      <trkpt lat="43.92649" lon="7.31012">
        <ele>895.6054688</ele>
        <time>2012-05-08T12:46:33Z</time>
      </trkpt>
      <trkpt lat="43.92656" lon="7.31012">
        <ele>893.6828613</ele>
        <time>2012-05-08T12:46:35Z</time>
      </trkpt>
      <trkpt lat="43.92659" lon="7.31011">
        <ele>892.2409668</ele>
        <time>2012-05-08T12:46:36Z</time>
      </trkpt>
      <trkpt lat="43.92665" lon="7.31011">
        <ele>890.798584</ele>
        <time>2012-05-08T12:46:38Z</time>
      </trkpt>
      <trkpt lat="43.92671" lon="7.3101">
        <ele>888.8762207</ele>
        <time>2012-05-08T12:46:40Z</time>
      </trkpt>
      <trkpt lat="43.92671" lon="7.3101">
        <ele>888.3955078</ele>
        <time>2012-05-08T12:46:51Z</time>
      </trkpt>
      <trkpt lat="43.92671" lon="7.3101">
        <ele>888.3955078</ele>
        <time>2012-05-08T12:47:18Z</time>
      </trkpt>
      <trkpt lat="43.92686" lon="7.31008">
        <ele>888.3955078</ele>
        <time>2012-05-08T12:47:22Z</time>
      </trkpt>
      <trkpt lat="43.92697" lon="7.31006">
        <ele>888.3955078</ele>
        <time>2012-05-08T12:47:25Z</time>
      </trkpt>
      <trkpt lat="43.92714" lon="7.31004">
        <ele>885.9921875</ele>
        <time>2012-05-08T12:47:29Z</time>
      </trkpt>
      <trkpt lat="43.92721" lon="7.31003">
        <ele>884.550293</ele>
        <time>2012-05-08T12:47:31Z</time>
      </trkpt>
      <trkpt lat="43.92728" lon="7.31004">
        <ele>882.6276855</ele>
        <time>2012-05-08T12:47:32Z</time>
      </trkpt>
      <trkpt lat="43.9274" lon="7.3101">
        <ele>880.7050781</ele>
        <time>2012-05-08T12:47:35Z</time>
      </trkpt>
      <trkpt lat="43.92752" lon="7.31016">
        <ele>880.2243652</ele>
        <time>2012-05-08T12:47:38Z</time>
      </trkpt>
      <trkpt lat="43.9278" lon="7.31016">
        <ele>876.8598633</ele>
        <time>2012-05-08T12:47:44Z</time>
      </trkpt>
      <trkpt lat="43.92785" lon="7.31014">
        <ele>876.8598633</ele>
        <time>2012-05-08T12:47:45Z</time>
      </trkpt>
      <trkpt lat="43.92792" lon="7.31011">
        <ele>875.8981934</ele>
        <time>2012-05-08T12:47:46Z</time>
      </trkpt>
      <trkpt lat="43.92807" lon="7.31006">
        <ele>874.4562988</ele>
        <time>2012-05-08T12:47:49Z</time>
      </trkpt>
      <trkpt lat="43.92822" lon="7.31006">
        <ele>872.0529785</ele>
        <time>2012-05-08T12:47:52Z</time>
      </trkpt>
      <trkpt lat="43.92827" lon="7.3101">
        <ele>870.611084</ele>
        <time>2012-05-08T12:47:53Z</time>
      </trkpt>
      <trkpt lat="43.92852" lon="7.31025">
        <ele>868.2077637</ele>
        <time>2012-05-08T12:47:59Z</time>
      </trkpt>
      <trkpt lat="43.92871" lon="7.31037">
        <ele>866.7658691</ele>
        <time>2012-05-08T12:48:04Z</time>
      </trkpt>
      <trkpt lat="43.92878" lon="7.31042">
        <ele>865.3239746</ele>
        <time>2012-05-08T12:48:06Z</time>
      </trkpt>
      <trkpt lat="43.92896" lon="7.31053">
        <ele>862.9206543</ele>
        <time>2012-05-08T12:48:10Z</time>
      </trkpt>
      <trkpt lat="43.9291" lon="7.31063">
        <ele>860.9980469</ele>
        <time>2012-05-08T12:48:13Z</time>
      </trkpt>
      <trkpt lat="43.92919" lon="7.3107">
        <ele>859.5559082</ele>
        <time>2012-05-08T12:48:15Z</time>
      </trkpt>
      <trkpt lat="43.92924" lon="7.31072">
        <ele>857.6333008</ele>
        <time>2012-05-08T12:48:16Z</time>
      </trkpt>
      <trkpt lat="43.92938" lon="7.3108">
        <ele>856.1911621</ele>
        <time>2012-05-08T12:48:19Z</time>
      </trkpt>
      <trkpt lat="43.92947" lon="7.31084">
        <ele>851.3847656</ele>
        <time>2012-05-08T12:48:21Z</time>
      </trkpt>
      <trkpt lat="43.9295" lon="7.31085">
        <ele>851.3847656</ele>
        <time>2012-05-08T12:48:22Z</time>
      </trkpt>
      <trkpt lat="43.92953" lon="7.31087">
        <ele>850.9040527</ele>
        <time>2012-05-08T12:48:24Z</time>
      </trkpt>
      <trkpt lat="43.92955" lon="7.31087">
        <ele>850.423584</ele>
        <time>2012-05-08T12:48:32Z</time>
      </trkpt>
      <trkpt lat="43.9297" lon="7.31094">
        <ele>848.9814453</ele>
        <time>2012-05-08T12:48:38Z</time>
      </trkpt>
      <trkpt lat="43.92978" lon="7.31097">
        <ele>847.0588379</ele>
        <time>2012-05-08T12:48:40Z</time>
      </trkpt>
      <trkpt lat="43.92978" lon="7.31097">
        <ele>846.5783691</ele>
        <time>2012-05-08T12:48:41Z</time>
      </trkpt>
      <trkpt lat="43.92978" lon="7.31097">
        <ele>845.6169434</ele>
        <time>2012-05-08T12:48:43Z</time>
      </trkpt>
      <trkpt lat="43.92978" lon="7.31097">
        <ele>844.6555176</ele>
        <time>2012-05-08T12:48:45Z</time>
      </trkpt>
      <trkpt lat="43.93004" lon="7.3111">
        <ele>843.2133789</ele>
        <time>2012-05-08T12:48:49Z</time>
      </trkpt>
      <trkpt lat="43.92978" lon="7.31097">
        <ele>843.2133789</ele>
        <time>2012-05-08T12:48:53Z</time>
      </trkpt>
      <trkpt lat="43.92978" lon="7.31097">
        <ele>843.2133789</ele>
        <time>2012-05-08T12:48:56Z</time>
      </trkpt>
      <trkpt lat="43.92978" lon="7.31097">
        <ele>842.2521973</ele>
        <time>2012-05-08T12:49:15Z</time>
      </trkpt>
      <trkpt lat="43.9301" lon="7.31119">
        <ele>841.2907715</ele>
        <time>2012-05-08T12:49:24Z</time>
      </trkpt>
      <trkpt lat="43.9304" lon="7.31103">
        <ele>838.4069824</ele>
        <time>2012-05-08T12:49:27Z</time>
      </trkpt>
      <trkpt lat="43.93044" lon="7.31099">
        <ele>837.9262695</ele>
        <time>2012-05-08T12:49:40Z</time>
      </trkpt>
      <trkpt lat="43.93044" lon="7.31099">
        <ele>837.9262695</ele>
        <time>2012-05-08T12:49:45Z</time>
      </trkpt>
      <trkpt lat="43.93051" lon="7.31098">
        <ele>837.4455566</ele>
        <time>2012-05-08T12:49:50Z</time>
      </trkpt>
      <trkpt lat="43.93052" lon="7.31149">
        <ele>835.5229492</ele>
        <time>2012-05-08T12:49:52Z</time>
      </trkpt>
      <trkpt lat="43.93068" lon="7.31145">
        <ele>833.6003418</ele>
        <time>2012-05-08T12:49:54Z</time>
      </trkpt>
      <trkpt lat="43.9307" lon="7.31144">
        <ele>832.1584473</ele>
        <time>2012-05-08T12:49:56Z</time>
      </trkpt>
      <trkpt lat="43.93075" lon="7.31112">
        <ele>830.7165527</ele>
        <time>2012-05-08T12:50:00Z</time>
      </trkpt>
      <trkpt lat="43.9309" lon="7.3112">
        <ele>827.8322754</ele>
        <time>2012-05-08T12:50:13Z</time>
      </trkpt>
      <trkpt lat="43.93098" lon="7.3112">
        <ele>825.909668</ele>
        <time>2012-05-08T12:50:15Z</time>
      </trkpt>
      <trkpt lat="43.93113" lon="7.31137">
        <ele>823.5065918</ele>
        <time>2012-05-08T12:50:18Z</time>
      </trkpt>
      <trkpt lat="43.93141" lon="7.31119">
        <ele>821.5837402</ele>
        <time>2012-05-08T12:50:29Z</time>
      </trkpt>
      <trkpt lat="43.93163" lon="7.31119">
        <ele>821.1032715</ele>
        <time>2012-05-08T12:50:40Z</time>
      </trkpt>
      <trkpt lat="43.9319" lon="7.31118">
        <ele>818.6999512</ele>
        <time>2012-05-08T12:50:48Z</time>
      </trkpt>
      <trkpt lat="43.93195" lon="7.31117">
        <ele>817.2580566</ele>
        <time>2012-05-08T12:50:50Z</time>
      </trkpt>
      <trkpt lat="43.93202" lon="7.31116">
        <ele>815.8161621</ele>
        <time>2012-05-08T12:50:52Z</time>
      </trkpt>
      <trkpt lat="43.93204" lon="7.31116">
        <ele>815.3354492</ele>
        <time>2012-05-08T12:50:53Z</time>
      </trkpt>
      <trkpt lat="43.93214" lon="7.31114">
        <ele>814.8547363</ele>
        <time>2012-05-08T12:50:58Z</time>
      </trkpt>
      <trkpt lat="43.93219" lon="7.31112">
        <ele>814.8547363</ele>
        <time>2012-05-08T12:51:01Z</time>
      </trkpt>
      <trkpt lat="43.9324" lon="7.31104">
        <ele>811.9707031</ele>
        <time>2012-05-08T12:51:16Z</time>
      </trkpt>
      <trkpt lat="43.9324" lon="7.31104">
        <ele>812.451416</ele>
        <time>2012-05-08T12:51:19Z</time>
      </trkpt>
      <trkpt lat="43.93248" lon="7.31102">
        <ele>810.5285645</ele>
        <time>2012-05-08T12:51:24Z</time>
      </trkpt>
      <trkpt lat="43.93257" lon="7.31098">
        <ele>808.1254883</ele>
        <time>2012-05-08T12:51:39Z</time>
      </trkpt>
      <trkpt lat="43.93257" lon="7.31098">
        <ele>807.6447754</ele>
        <time>2012-05-08T12:52:10Z</time>
      </trkpt>
      <trkpt lat="43.93257" lon="7.31098">
        <ele>807.1640625</ele>
        <time>2012-05-08T12:52:33Z</time>
      </trkpt>
      <trkpt lat="43.93267" lon="7.31094">
        <ele>805.2414551</ele>
        <time>2012-05-08T12:52:38Z</time>
      </trkpt>
      <trkpt lat="43.93276" lon="7.31102">
        <ele>803.7995605</ele>
        <time>2012-05-08T12:52:43Z</time>
      </trkpt>
      <trkpt lat="43.93283" lon="7.31106">
        <ele>800.9155273</ele>
        <time>2012-05-08T12:53:05Z</time>
      </trkpt>
      <trkpt lat="43.93288" lon="7.31109">
        <ele>798.9929199</ele>
        <time>2012-05-08T12:53:07Z</time>
      </trkpt>
      <trkpt lat="43.93284" lon="7.31085">
        <ele>797.5510254</ele>
        <time>2012-05-08T12:53:09Z</time>
      </trkpt>
      <trkpt lat="43.93292" lon="7.3108">
        <ele>796.1091309</ele>
        <time>2012-05-08T12:53:11Z</time>
      </trkpt>
      <trkpt lat="43.93307" lon="7.31071">
        <ele>794.1862793</ele>
        <time>2012-05-08T12:53:14Z</time>
      </trkpt>
      <trkpt lat="43.93316" lon="7.31064">
        <ele>792.2636719</ele>
        <time>2012-05-08T12:53:17Z</time>
      </trkpt>
      <trkpt lat="43.93351" lon="7.31036">
        <ele>791.3022461</ele>
        <time>2012-05-08T12:53:30Z</time>
      </trkpt>
      <trkpt lat="43.93354" lon="7.31034">
        <ele>790.8215332</ele>
        <time>2012-05-08T12:53:45Z</time>
      </trkpt>
      <trkpt lat="43.9336" lon="7.31029">
        <ele>789.8603516</ele>
        <time>2012-05-08T12:53:51Z</time>
      </trkpt>
      <trkpt lat="43.9336" lon="7.31024">
        <ele>788.418457</ele>
        <time>2012-05-08T12:53:53Z</time>
      </trkpt>
      <trkpt lat="43.93362" lon="7.31013">
        <ele>786.9763184</ele>
        <time>2012-05-08T12:53:55Z</time>
      </trkpt>
      <trkpt lat="43.93365" lon="7.30996">
        <ele>783.1311035</ele>
        <time>2012-05-08T12:53:57Z</time>
      </trkpt>
      <trkpt lat="43.93367" lon="7.30988">
        <ele>783.1311035</ele>
        <time>2012-05-08T12:53:58Z</time>
      </trkpt>
      <trkpt lat="43.93377" lon="7.30961">
        <ele>781.2087402</ele>
        <time>2012-05-08T12:54:00Z</time>
      </trkpt>
      <trkpt lat="43.93383" lon="7.30948">
        <ele>779.7663574</ele>
        <time>2012-05-08T12:54:02Z</time>
      </trkpt>
      <trkpt lat="43.93447" lon="7.30991">
        <ele>776.8825684</ele>
        <time>2012-05-08T12:54:05Z</time>
      </trkpt>
      <trkpt lat="43.9346" lon="7.30983">
        <ele>776.8825684</ele>
        <time>2012-05-08T12:54:07Z</time>
      </trkpt>
      <trkpt lat="43.93479" lon="7.30972">
        <ele>775.4404297</ele>
        <time>2012-05-08T12:54:12Z</time>
      </trkpt>
      <trkpt lat="43.93483" lon="7.30956">
        <ele>775.4404297</ele>
        <time>2012-05-08T12:54:17Z</time>
      </trkpt>
      <trkpt lat="43.93496" lon="7.30939">
        <ele>774.479248</ele>
        <time>2012-05-08T12:54:23Z</time>
      </trkpt>
      <trkpt lat="43.93496" lon="7.30926">
        <ele>774.479248</ele>
        <time>2012-05-08T12:54:27Z</time>
      </trkpt>
      <trkpt lat="43.93498" lon="7.30893">
        <ele>775.4404297</ele>
        <time>2012-05-08T12:54:37Z</time>
      </trkpt>
      <trkpt lat="43.93517" lon="7.30895">
        <ele>773.5180664</ele>
        <time>2012-05-08T12:54:44Z</time>
      </trkpt>
      <trkpt lat="43.93527" lon="7.30912">
        <ele>772.0759277</ele>
        <time>2012-05-08T12:54:48Z</time>
      </trkpt>
      <trkpt lat="43.93545" lon="7.3091">
        <ele>769.6728516</ele>
        <time>2012-05-08T12:54:53Z</time>
      </trkpt>
      <trkpt lat="43.93553" lon="7.30909">
        <ele>769.1921387</ele>
        <time>2012-05-08T12:54:56Z</time>
      </trkpt>
      <trkpt lat="43.93568" lon="7.30911">
        <ele>768.2307129</ele>
        <time>2012-05-08T12:55:00Z</time>
      </trkpt>
      <trkpt lat="43.93574" lon="7.30911">
        <ele>767.75</ele>
        <time>2012-05-08T12:55:02Z</time>
      </trkpt>
      <trkpt lat="43.93592" lon="7.30902">
        <ele>768.2307129</ele>
        <time>2012-05-08T12:55:09Z</time>
      </trkpt>
      <trkpt lat="43.93598" lon="7.30893">
        <ele>769.1921387</ele>
        <time>2012-05-08T12:55:13Z</time>
      </trkpt>
      <trkpt lat="43.93607" lon="7.30886">
        <ele>768.7114258</ele>
        <time>2012-05-08T12:55:17Z</time>
      </trkpt>
      <trkpt lat="43.93619" lon="7.30887">
        <ele>768.2307129</ele>
        <time>2012-05-08T12:55:21Z</time>
      </trkpt>
      <trkpt lat="43.93637" lon="7.30863">
        <ele>768.2307129</ele>
        <time>2012-05-08T12:55:31Z</time>
      </trkpt>
      <trkpt lat="43.93652" lon="7.30847">
        <ele>768.7114258</ele>
        <time>2012-05-08T12:55:40Z</time>
      </trkpt>
      <trkpt lat="43.93673" lon="7.3083">
        <ele>768.7114258</ele>
        <time>2012-05-08T12:55:48Z</time>
      </trkpt>
      <trkpt lat="43.93685" lon="7.30793">
        <ele>768.2307129</ele>
        <time>2012-05-08T12:55:59Z</time>
      </trkpt>
      <trkpt lat="43.93688" lon="7.30783">
        <ele>767.75</ele>
        <time>2012-05-08T12:56:02Z</time>
      </trkpt>
      <trkpt lat="43.93691" lon="7.30769">
        <ele>767.2695313</ele>
        <time>2012-05-08T12:56:06Z</time>
      </trkpt>
      <trkpt lat="43.93691" lon="7.30749">
        <ele>764.8662109</ele>
        <time>2012-05-08T12:56:10Z</time>
      </trkpt>
      <trkpt lat="43.9369" lon="7.30736">
        <ele>763.904541</ele>
        <time>2012-05-08T12:56:14Z</time>
      </trkpt>
      <trkpt lat="43.93692" lon="7.30712">
        <ele>761.020752</ele>
        <time>2012-05-08T12:56:19Z</time>
      </trkpt>
      <trkpt lat="43.93693" lon="7.30703">
        <ele>760.0593262</ele>
        <time>2012-05-08T12:56:21Z</time>
      </trkpt>
      <trkpt lat="43.93695" lon="7.30691">
        <ele>757.1755371</ele>
        <time>2012-05-08T12:56:24Z</time>
      </trkpt>
      <trkpt lat="43.93694" lon="7.30682">
        <ele>755.2529297</ele>
        <time>2012-05-08T12:56:26Z</time>
      </trkpt>
      <trkpt lat="43.93694" lon="7.30678">
        <ele>754.291748</ele>
        <time>2012-05-08T12:56:27Z</time>
      </trkpt>
      <trkpt lat="43.93694" lon="7.30671">
        <ele>752.3688965</ele>
        <time>2012-05-08T12:56:29Z</time>
      </trkpt>
      <trkpt lat="43.93699" lon="7.30651">
        <ele>750.927002</ele>
        <time>2012-05-08T12:56:32Z</time>
      </trkpt>
      <trkpt lat="43.93707" lon="7.3064">
        <ele>749.4851074</ele>
        <time>2012-05-08T12:56:35Z</time>
      </trkpt>
      <trkpt lat="43.93729" lon="7.30615">
        <ele>747.081543</ele>
        <time>2012-05-08T12:56:42Z</time>
      </trkpt>
      <trkpt lat="43.93736" lon="7.30608">
        <ele>744.1977539</ele>
        <time>2012-05-08T12:56:47Z</time>
      </trkpt>
      <trkpt lat="43.93736" lon="7.30608">
        <ele>742.2751465</ele>
        <time>2012-05-08T12:57:03Z</time>
      </trkpt>
      <trkpt lat="43.93736" lon="7.30608">
        <ele>741.7944336</ele>
        <time>2012-05-08T12:57:04Z</time>
      </trkpt>
      <trkpt lat="43.93736" lon="7.30608">
        <ele>741.3137207</ele>
        <time>2012-05-08T12:57:07Z</time>
      </trkpt>
      <trkpt lat="43.9375" lon="7.30598">
        <ele>739.3911133</ele>
        <time>2012-05-08T12:57:10Z</time>
      </trkpt>
      <trkpt lat="43.93753" lon="7.30597">
        <ele>737.9492188</ele>
        <time>2012-05-08T12:57:11Z</time>
      </trkpt>
      <trkpt lat="43.93759" lon="7.30592">
        <ele>736.0266113</ele>
        <time>2012-05-08T12:57:15Z</time>
      </trkpt>
      <trkpt lat="43.93763" lon="7.3059">
        <ele>735.0654297</ele>
        <time>2012-05-08T12:57:17Z</time>
      </trkpt>
      <trkpt lat="43.9377" lon="7.30555">
        <ele>731.7004395</ele>
        <time>2012-05-08T12:57:22Z</time>
      </trkpt>
      <trkpt lat="43.93775" lon="7.30551">
        <ele>730.2585449</ele>
        <time>2012-05-08T12:57:24Z</time>
      </trkpt>
      <trkpt lat="43.93777" lon="7.30548">
        <ele>729.2971191</ele>
        <time>2012-05-08T12:57:26Z</time>
      </trkpt>
      <trkpt lat="43.93775" lon="7.30543">
        <ele>728.3359375</ele>
        <time>2012-05-08T12:57:28Z</time>
      </trkpt>
      <trkpt lat="43.93774" lon="7.30535">
        <ele>726.894043</ele>
        <time>2012-05-08T12:57:31Z</time>
      </trkpt>
      <trkpt lat="43.93776" lon="7.3053">
        <ele>724.4907227</ele>
        <time>2012-05-08T12:57:34Z</time>
      </trkpt>
      <trkpt lat="43.93774" lon="7.30526">
        <ele>722.5681152</ele>
        <time>2012-05-08T12:57:37Z</time>
      </trkpt>
      <trkpt lat="43.93772" lon="7.3051">
        <ele>720.1647949</ele>
        <time>2012-05-08T12:57:42Z</time>
      </trkpt>
      <trkpt lat="43.93776" lon="7.30505">
        <ele>718.7229004</ele>
        <time>2012-05-08T12:57:44Z</time>
      </trkpt>
      <trkpt lat="43.93781" lon="7.305">
        <ele>715.3581543</ele>
        <time>2012-05-08T12:57:46Z</time>
      </trkpt>
      <trkpt lat="43.93782" lon="7.30496">
        <ele>715.8388672</ele>
        <time>2012-05-08T12:57:47Z</time>
      </trkpt>
      <trkpt lat="43.93788" lon="7.30486">
        <ele>713.4355469</ele>
        <time>2012-05-08T12:57:49Z</time>
      </trkpt>
      <trkpt lat="43.93793" lon="7.30473">
        <ele>711.5129395</ele>
        <time>2012-05-08T12:57:51Z</time>
      </trkpt>
      <trkpt lat="43.93794" lon="7.30469">
        <ele>709.1096191</ele>
        <time>2012-05-08T12:57:52Z</time>
      </trkpt>
      <trkpt lat="43.93796" lon="7.30462">
        <ele>707.6677246</ele>
        <time>2012-05-08T12:57:54Z</time>
      </trkpt>
      <trkpt lat="43.93799" lon="7.30452">
        <ele>706.2255859</ele>
        <time>2012-05-08T12:57:56Z</time>
      </trkpt>
      <trkpt lat="43.93802" lon="7.30442">
        <ele>704.3032227</ele>
        <time>2012-05-08T12:57:58Z</time>
      </trkpt>
      <trkpt lat="43.93806" lon="7.30431">
        <ele>700.9384766</ele>
        <time>2012-05-08T12:58:00Z</time>
      </trkpt>
      <trkpt lat="43.93804" lon="7.30425">
        <ele>700.9384766</ele>
        <time>2012-05-08T12:58:01Z</time>
      </trkpt>
      <trkpt lat="43.93803" lon="7.30415">
        <ele>699.4963379</ele>
        <time>2012-05-08T12:58:03Z</time>
      </trkpt>
      <trkpt lat="43.93801" lon="7.30406">
        <ele>697.5737305</ele>
        <time>2012-05-08T12:58:05Z</time>
      </trkpt>
      <trkpt lat="43.93798" lon="7.30397">
        <ele>694.2092285</ele>
        <time>2012-05-08T12:58:07Z</time>
      </trkpt>
      <trkpt lat="43.93798" lon="7.30392">
        <ele>694.2092285</ele>
        <time>2012-05-08T12:58:08Z</time>
      </trkpt>
      <trkpt lat="43.93788" lon="7.30388">
        <ele>692.767334</ele>
        <time>2012-05-08T12:58:10Z</time>
      </trkpt>
      <trkpt lat="43.93783" lon="7.30379">
        <ele>690.8444824</ele>
        <time>2012-05-08T12:58:12Z</time>
      </trkpt>
      <trkpt lat="43.93778" lon="7.30366">
        <ele>686.0380859</ele>
        <time>2012-05-08T12:58:14Z</time>
      </trkpt>
      <trkpt lat="43.93776" lon="7.30361">
        <ele>686.0380859</ele>
        <time>2012-05-08T12:58:15Z</time>
      </trkpt>
      <trkpt lat="43.93774" lon="7.30347">
        <ele>684.1154785</ele>
        <time>2012-05-08T12:58:17Z</time>
      </trkpt>
      <trkpt lat="43.93771" lon="7.30342">
        <ele>682.192627</ele>
        <time>2012-05-08T12:58:19Z</time>
      </trkpt>
      <trkpt lat="43.93765" lon="7.30336">
        <ele>679.3085938</ele>
        <time>2012-05-08T12:58:22Z</time>
      </trkpt>
      <trkpt lat="43.93752" lon="7.30324">
        <ele>676.9055176</ele>
        <time>2012-05-08T12:58:27Z</time>
      </trkpt>
      <trkpt lat="43.93748" lon="7.30314">
        <ele>673.5410156</ele>
        <time>2012-05-08T12:58:30Z</time>
      </trkpt>
      <trkpt lat="43.93748" lon="7.30309">
        <ele>673.5410156</ele>
        <time>2012-05-08T12:58:31Z</time>
      </trkpt>
      <trkpt lat="43.9375" lon="7.30298">
        <ele>671.1376953</ele>
        <time>2012-05-08T12:58:32Z</time>
      </trkpt>
      <trkpt lat="43.93752" lon="7.30284">
        <ele>670.1762695</ele>
        <time>2012-05-08T12:58:34Z</time>
      </trkpt>
      <trkpt lat="43.93751" lon="7.30266">
        <ele>669.2150879</ele>
        <time>2012-05-08T12:58:37Z</time>
      </trkpt>
      <trkpt lat="43.93749" lon="7.30248">
        <ele>667.2922363</ele>
        <time>2012-05-08T12:58:40Z</time>
      </trkpt>
      <trkpt lat="43.93747" lon="7.3023">
        <ele>665.8503418</ele>
        <time>2012-05-08T12:58:42Z</time>
      </trkpt>
      <trkpt lat="43.93744" lon="7.30204">
        <ele>662.005127</ele>
        <time>2012-05-08T12:58:45Z</time>
      </trkpt>
      <trkpt lat="43.93742" lon="7.30196">
        <ele>661.5244141</ele>
        <time>2012-05-08T12:58:46Z</time>
      </trkpt>
      <trkpt lat="43.9375" lon="7.30151">
        <ele>659.1210938</ele>
        <time>2012-05-08T12:58:51Z</time>
      </trkpt>
      <trkpt lat="43.93744" lon="7.30108">
        <ele>654.795166</ele>
        <time>2012-05-08T12:58:58Z</time>
      </trkpt>
      <trkpt lat="43.93716" lon="7.30074">
        <ele>653.3532715</ele>
        <time>2012-05-08T12:59:08Z</time>
      </trkpt>
      <trkpt lat="43.93716" lon="7.30074">
        <ele>652.8725586</ele>
        <time>2012-05-08T12:59:22Z</time>
      </trkpt>
      <trkpt lat="43.93714" lon="7.30072">
        <ele>652.3918457</ele>
        <time>2012-05-08T12:59:37Z</time>
      </trkpt>
      <trkpt lat="43.93705" lon="7.30058">
        <ele>648.5463867</ele>
        <time>2012-05-08T12:59:42Z</time>
      </trkpt>
      <trkpt lat="43.93704" lon="7.30056">
        <ele>648.5463867</ele>
        <time>2012-05-08T12:59:43Z</time>
      </trkpt>
      <trkpt lat="43.93715" lon="7.30038">
        <ele>646.1433105</ele>
        <time>2012-05-08T12:59:45Z</time>
      </trkpt>
      <trkpt lat="43.93728" lon="7.29962">
        <ele>643.7399902</ele>
        <time>2012-05-08T12:59:56Z</time>
      </trkpt>
      <trkpt lat="43.93739" lon="7.29943">
        <ele>641.8173828</ele>
        <time>2012-05-08T12:59:59Z</time>
      </trkpt>
      <trkpt lat="43.93747" lon="7.29922">
        <ele>640.3754883</ele>
        <time>2012-05-08T13:00:01Z</time>
      </trkpt>
      <trkpt lat="43.93748" lon="7.29915">
        <ele>639.4140625</ele>
        <time>2012-05-08T13:00:02Z</time>
      </trkpt>
      <trkpt lat="43.93749" lon="7.29874">
        <ele>637.972168</ele>
        <time>2012-05-08T13:00:06Z</time>
      </trkpt>
      <trkpt lat="43.93747" lon="7.29868">
        <ele>637.0107422</ele>
        <time>2012-05-08T13:00:07Z</time>
      </trkpt>
      <trkpt lat="43.93742" lon="7.29846">
        <ele>636.5302734</ele>
        <time>2012-05-08T13:00:12Z</time>
      </trkpt>
      <trkpt lat="43.93742" lon="7.29836">
        <ele>635.0881348</ele>
        <time>2012-05-08T13:00:15Z</time>
      </trkpt>
      <trkpt lat="43.93742" lon="7.2983">
        <ele>632.6848145</ele>
        <time>2012-05-08T13:00:18Z</time>
      </trkpt>
      <trkpt lat="43.93748" lon="7.29812">
        <ele>630.2814941</ele>
        <time>2012-05-08T13:00:22Z</time>
      </trkpt>
      <trkpt lat="43.93757" lon="7.29807">
        <ele>627.8781738</ele>
        <time>2012-05-08T13:00:24Z</time>
      </trkpt>
      <trkpt lat="43.93769" lon="7.29795">
        <ele>624.9943848</ele>
        <time>2012-05-08T13:00:27Z</time>
      </trkpt>
      <trkpt lat="43.93775" lon="7.2979">
        <ele>623.0717773</ele>
        <time>2012-05-08T13:00:29Z</time>
      </trkpt>
      <trkpt lat="43.93778" lon="7.298">
        <ele>621.1491699</ele>
        <time>2012-05-08T13:00:31Z</time>
      </trkpt>
      <trkpt lat="43.93788" lon="7.29779">
        <ele>617.3037109</ele>
        <time>2012-05-08T13:00:35Z</time>
      </trkpt>
      <trkpt lat="43.93798" lon="7.29772">
        <ele>614.9003906</ele>
        <time>2012-05-08T13:00:38Z</time>
      </trkpt>
      <trkpt lat="43.93807" lon="7.29767">
        <ele>613.4584961</ele>
        <time>2012-05-08T13:00:40Z</time>
      </trkpt>
      <trkpt lat="43.93813" lon="7.29762">
        <ele>609.6132813</ele>
        <time>2012-05-08T13:00:42Z</time>
      </trkpt>
      <trkpt lat="43.93816" lon="7.29758">
        <ele>609.6132813</ele>
        <time>2012-05-08T13:00:43Z</time>
      </trkpt>
      <trkpt lat="43.93824" lon="7.29749">
        <ele>607.2099609</ele>
        <time>2012-05-08T13:00:45Z</time>
      </trkpt>
      <trkpt lat="43.93828" lon="7.29741">
        <ele>605.2873535</ele>
        <time>2012-05-08T13:00:47Z</time>
      </trkpt>
      <trkpt lat="43.93833" lon="7.29731">
        <ele>602.4030762</ele>
        <time>2012-05-08T13:00:50Z</time>
      </trkpt>
      <trkpt lat="43.93833" lon="7.29727">
        <ele>601.9226074</ele>
        <time>2012-05-08T13:00:51Z</time>
      </trkpt>
      <trkpt lat="43.93836" lon="7.29715">
        <ele>600.4807129</ele>
        <time>2012-05-08T13:00:54Z</time>
      </trkpt>
      <trkpt lat="43.93839" lon="7.29707">
        <ele>598.0773926</ele>
        <time>2012-05-08T13:00:57Z</time>
      </trkpt>
      <trkpt lat="43.93844" lon="7.29691">
        <ele>596.1547852</ele>
        <time>2012-05-08T13:00:59Z</time>
      </trkpt>
      <trkpt lat="43.93851" lon="7.2968">
        <ele>594.7126465</ele>
        <time>2012-05-08T13:01:01Z</time>
      </trkpt>
      <trkpt lat="43.93854" lon="7.29677">
        <ele>593.270752</ele>
        <time>2012-05-08T13:01:02Z</time>
      </trkpt>
      <trkpt lat="43.93861" lon="7.29668">
        <ele>592.3095703</ele>
        <time>2012-05-08T13:01:04Z</time>
      </trkpt>
      <trkpt lat="43.93872" lon="7.29654">
        <ele>588.4643555</ele>
        <time>2012-05-08T13:01:10Z</time>
      </trkpt>
      <trkpt lat="43.93896" lon="7.29635">
        <ele>584.1381836</ele>
        <time>2012-05-08T13:01:19Z</time>
      </trkpt>
      <trkpt lat="43.93901" lon="7.29631">
        <ele>583.1767578</ele>
        <time>2012-05-08T13:01:22Z</time>
      </trkpt>
      <trkpt lat="43.93915" lon="7.29614">
        <ele>579.8122559</ele>
        <time>2012-05-08T13:01:26Z</time>
      </trkpt>
      <trkpt lat="43.93916" lon="7.29612">
        <ele>579.8122559</ele>
        <time>2012-05-08T13:01:27Z</time>
      </trkpt>
      <trkpt lat="43.93922" lon="7.29599">
        <ele>575.967041</ele>
        <time>2012-05-08T13:01:34Z</time>
      </trkpt>
      <trkpt lat="43.93925" lon="7.29587">
        <ele>574.5251465</ele>
        <time>2012-05-08T13:01:38Z</time>
      </trkpt>
      <trkpt lat="43.93943" lon="7.29592">
        <ele>572.6025391</ele>
        <time>2012-05-08T13:01:41Z</time>
      </trkpt>
      <trkpt lat="43.93944" lon="7.29589">
        <ele>571.1604004</ele>
        <time>2012-05-08T13:01:42Z</time>
      </trkpt>
      <trkpt lat="43.93954" lon="7.29579">
        <ele>570.1989746</ele>
        <time>2012-05-08T13:01:45Z</time>
      </trkpt>
      <trkpt lat="43.93955" lon="7.29575">
        <ele>568.2763672</ele>
        <time>2012-05-08T13:01:46Z</time>
      </trkpt>
      <trkpt lat="43.93954" lon="7.29567">
        <ele>566.8344727</ele>
        <time>2012-05-08T13:01:48Z</time>
      </trkpt>
      <trkpt lat="43.93956" lon="7.2955">
        <ele>563.9504395</ele>
        <time>2012-05-08T13:01:53Z</time>
      </trkpt>
      <trkpt lat="43.93954" lon="7.29543">
        <ele>562.9892578</ele>
        <time>2012-05-08T13:01:55Z</time>
      </trkpt>
      <trkpt lat="43.93952" lon="7.29541">
        <ele>562.0280762</ele>
        <time>2012-05-08T13:01:56Z</time>
      </trkpt>
      <trkpt lat="43.93946" lon="7.29538">
        <ele>560.5859375</ele>
        <time>2012-05-08T13:02:00Z</time>
      </trkpt>
      <trkpt lat="43.93936" lon="7.29531">
        <ele>558.6633301</ele>
        <time>2012-05-08T13:02:04Z</time>
      </trkpt>
      <trkpt lat="43.93925" lon="7.29524">
        <ele>556.2600098</ele>
        <time>2012-05-08T13:02:08Z</time>
      </trkpt>
      <trkpt lat="43.93896" lon="7.29506">
        <ele>553.3759766</ele>
        <time>2012-05-08T13:02:11Z</time>
      </trkpt>
      <trkpt lat="43.93897" lon="7.29491">
        <ele>551.934082</ele>
        <time>2012-05-08T13:02:13Z</time>
      </trkpt>
      <trkpt lat="43.939" lon="7.2948">
        <ele>550.9726563</ele>
        <time>2012-05-08T13:02:15Z</time>
      </trkpt>
      <trkpt lat="43.93901" lon="7.29448">
        <ele>549.0500488</ele>
        <time>2012-05-08T13:02:20Z</time>
      </trkpt>
      <trkpt lat="43.93902" lon="7.29438">
        <ele>548.5693359</ele>
        <time>2012-05-08T13:02:22Z</time>
      </trkpt>
      <trkpt lat="43.93909" lon="7.29413">
        <ele>546.6468506</ele>
        <time>2012-05-08T13:02:29Z</time>
      </trkpt>
      <trkpt lat="43.93909" lon="7.29413">
        <ele>546.6468506</ele>
        <time>2012-05-08T13:02:43Z</time>
      </trkpt>
      <trkpt lat="43.93913" lon="7.29401">
        <ele>545.204834</ele>
        <time>2012-05-08T13:02:48Z</time>
      </trkpt>
      <trkpt lat="43.93917" lon="7.29387">
        <ele>543.2821045</ele>
        <time>2012-05-08T13:02:55Z</time>
      </trkpt>
      <trkpt lat="43.93928" lon="7.29349">
        <ele>543.2821045</ele>
        <time>2012-05-08T13:03:07Z</time>
      </trkpt>
      <trkpt lat="43.9393" lon="7.29342">
        <ele>544.2436523</ele>
        <time>2012-05-08T13:03:21Z</time>
      </trkpt>
      <trkpt lat="43.93932" lon="7.29335">
        <ele>544.7242432</ele>
        <time>2012-05-08T13:03:56Z</time>
      </trkpt>
      <trkpt lat="43.93946" lon="7.29305">
        <ele>543.2821045</ele>
        <time>2012-05-08T13:04:06Z</time>
      </trkpt>
      <trkpt lat="43.93957" lon="7.29278">
        <ele>541.3594971</ele>
        <time>2012-05-08T13:04:15Z</time>
      </trkpt>
      <trkpt lat="43.93957" lon="7.29278">
        <ele>540.8789063</ele>
        <time>2012-05-08T13:04:19Z</time>
      </trkpt>
      <trkpt lat="43.93962" lon="7.29271">
        <ele>540.8789063</ele>
        <time>2012-05-08T13:04:27Z</time>
      </trkpt>
      <trkpt lat="43.93977" lon="7.29256">
        <ele>538.9562988</ele>
        <time>2012-05-08T13:04:34Z</time>
      </trkpt>
      <trkpt lat="43.93993" lon="7.29238">
        <ele>538.475708</ele>
        <time>2012-05-08T13:04:40Z</time>
      </trkpt>
      <trkpt lat="43.93991" lon="7.2922">
        <ele>540.8789063</ele>
        <time>2012-05-08T13:04:51Z</time>
      </trkpt>
      <trkpt lat="43.93991" lon="7.2922">
        <ele>542.8015137</ele>
        <time>2012-05-08T13:04:59Z</time>
      </trkpt>
      <trkpt lat="43.93991" lon="7.2922">
        <ele>544.2436523</ele>
        <time>2012-05-08T13:05:12Z</time>
      </trkpt>
      <trkpt lat="43.93991" lon="7.2922">
        <ele>545.6855469</ele>
        <time>2012-05-08T13:05:18Z</time>
      </trkpt>
      <trkpt lat="43.93991" lon="7.2922">
        <ele>547.1274414</ele>
        <time>2012-05-08T13:05:34Z</time>
      </trkpt>
      <trkpt lat="43.94015" lon="7.2921">
        <ele>545.6855469</ele>
        <time>2012-05-08T13:05:54Z</time>
      </trkpt>
      <trkpt lat="43.94017" lon="7.2921">
        <ele>546.1662598</ele>
        <time>2012-05-08T13:06:00Z</time>
      </trkpt>
      <trkpt lat="43.94027" lon="7.29202">
        <ele>546.1662598</ele>
        <time>2012-05-08T13:06:04Z</time>
      </trkpt>
      <trkpt lat="43.9403" lon="7.29201">
        <ele>546.6468506</ele>
        <time>2012-05-08T13:06:07Z</time>
      </trkpt>
      <trkpt lat="43.94046" lon="7.29207">
        <ele>545.204834</ele>
        <time>2012-05-08T13:06:14Z</time>
      </trkpt>
      <trkpt lat="43.9405" lon="7.29206">
        <ele>544.7242432</ele>
        <time>2012-05-08T13:06:16Z</time>
      </trkpt>
      <trkpt lat="43.94057" lon="7.29204">
        <ele>542.3209229</ele>
        <time>2012-05-08T13:06:19Z</time>
      </trkpt>
      <trkpt lat="43.94064" lon="7.29205">
        <ele>540.8789063</ele>
        <time>2012-05-08T13:06:21Z</time>
      </trkpt>
      <trkpt lat="43.9408" lon="7.29209">
        <ele>539.4368896</ele>
        <time>2012-05-08T13:06:25Z</time>
      </trkpt>
      <trkpt lat="43.94087" lon="7.29204">
        <ele>537.5142822</ele>
        <time>2012-05-08T13:06:28Z</time>
      </trkpt>
      <trkpt lat="43.94097" lon="7.29202">
        <ele>537.9949951</ele>
        <time>2012-05-08T13:06:35Z</time>
      </trkpt>
      <trkpt lat="43.94106" lon="7.29194">
        <ele>541.84021</ele>
        <time>2012-05-08T13:06:54Z</time>
      </trkpt>
      <trkpt lat="43.94107" lon="7.29192">
        <ele>541.84021</ele>
        <time>2012-05-08T13:07:12Z</time>
      </trkpt>
      <trkpt lat="43.94105" lon="7.29185">
        <ele>539.9176025</ele>
        <time>2012-05-08T13:07:33Z</time>
      </trkpt>
      <trkpt lat="43.94102" lon="7.29173">
        <ele>539.4368896</ele>
        <time>2012-05-08T13:07:36Z</time>
      </trkpt>
      <trkpt lat="43.94103" lon="7.29164">
        <ele>539.9176025</ele>
        <time>2012-05-08T13:07:40Z</time>
      </trkpt>
      <trkpt lat="43.94104" lon="7.2916">
        <ele>539.4368896</ele>
        <time>2012-05-08T13:07:42Z</time>
      </trkpt>
      <trkpt lat="43.94103" lon="7.2915">
        <ele>539.9176025</ele>
        <time>2012-05-08T13:07:46Z</time>
      </trkpt>
      <trkpt lat="43.94096" lon="7.29126">
        <ele>540.3983154</ele>
        <time>2012-05-08T13:07:54Z</time>
      </trkpt>
      <trkpt lat="43.94099" lon="7.29113">
        <ele>540.3983154</ele>
        <time>2012-05-08T13:07:57Z</time>
      </trkpt>
      <trkpt lat="43.94099" lon="7.29107">
        <ele>540.8789063</ele>
        <time>2012-05-08T13:07:59Z</time>
      </trkpt>
      <trkpt lat="43.94109" lon="7.29084">
        <ele>538.9562988</ele>
        <time>2012-05-08T13:08:06Z</time>
      </trkpt>
      <trkpt lat="43.94111" lon="7.29077">
        <ele>537.9949951</ele>
        <time>2012-05-08T13:08:09Z</time>
      </trkpt>
      <trkpt lat="43.94113" lon="7.29066">
        <ele>536.0723877</ele>
        <time>2012-05-08T13:08:13Z</time>
      </trkpt>
      <trkpt lat="43.94123" lon="7.29057">
        <ele>533.1883545</ele>
        <time>2012-05-08T13:08:17Z</time>
      </trkpt>
      <trkpt lat="43.94127" lon="7.29035">
        <ele>530.3044434</ele>
        <time>2012-05-08T13:08:23Z</time>
      </trkpt>
      <trkpt lat="43.9413" lon="7.29019">
        <ele>529.3431396</ele>
        <time>2012-05-08T13:08:26Z</time>
      </trkpt>
      <trkpt lat="43.94136" lon="7.29007">
        <ele>529.8237305</ele>
        <time>2012-05-08T13:08:30Z</time>
      </trkpt>
      <trkpt lat="43.94138" lon="7.29001">
        <ele>530.3044434</ele>
        <time>2012-05-08T13:08:32Z</time>
      </trkpt>
      <trkpt lat="43.94143" lon="7.2899">
        <ele>532.7077637</ele>
        <time>2012-05-08T13:08:42Z</time>
      </trkpt>
      <trkpt lat="43.94143" lon="7.28987">
        <ele>533.6689453</ele>
        <time>2012-05-08T13:08:48Z</time>
      </trkpt>
      <trkpt lat="43.94147" lon="7.28982">
        <ele>534.1496582</ele>
        <time>2012-05-08T13:08:51Z</time>
      </trkpt>
      <trkpt lat="43.94151" lon="7.28973">
        <ele>533.1883545</ele>
        <time>2012-05-08T13:08:56Z</time>
      </trkpt>
      <trkpt lat="43.9416" lon="7.28972">
        <ele>534.6303711</ele>
        <time>2012-05-08T13:09:06Z</time>
      </trkpt>
      <trkpt lat="43.94162" lon="7.28975">
        <ele>535.1109619</ele>
        <time>2012-05-08T13:09:09Z</time>
      </trkpt>
      <trkpt lat="43.94168" lon="7.28968">
        <ele>536.5531006</ele>
        <time>2012-05-08T13:09:18Z</time>
      </trkpt>
      <trkpt lat="43.94174" lon="7.28951">
        <ele>537.5142822</ele>
        <time>2012-05-08T13:09:35Z</time>
      </trkpt>
      <trkpt lat="43.94174" lon="7.28951">
        <ele>537.9949951</ele>
        <time>2012-05-08T13:09:36Z</time>
      </trkpt>
      <trkpt lat="43.94197" lon="7.28943">
        <ele>535.1109619</ele>
        <time>2012-05-08T13:09:45Z</time>
      </trkpt>
      <trkpt lat="43.94202" lon="7.28935">
        <ele>535.5915527</ele>
        <time>2012-05-08T13:09:49Z</time>
      </trkpt>
      <trkpt lat="43.94204" lon="7.28929">
        <ele>534.6303711</ele>
        <time>2012-05-08T13:09:53Z</time>
      </trkpt>
      <trkpt lat="43.94208" lon="7.2893">
        <ele>534.1496582</ele>
        <time>2012-05-08T13:09:55Z</time>
      </trkpt>
      <trkpt lat="43.94209" lon="7.28926">
        <ele>532.7077637</ele>
        <time>2012-05-08T13:09:58Z</time>
      </trkpt>
      <trkpt lat="43.94203" lon="7.28916">
        <ele>530.7851563</ele>
        <time>2012-05-08T13:10:11Z</time>
      </trkpt>
      <trkpt lat="43.94198" lon="7.28912">
        <ele>530.3044434</ele>
        <time>2012-05-08T13:10:14Z</time>
      </trkpt>
      <trkpt lat="43.94195" lon="7.28908">
        <ele>527.4204102</ele>
        <time>2012-05-08T13:10:22Z</time>
      </trkpt>
      <trkpt lat="43.94194" lon="7.28903">
        <ele>525.9783936</ele>
        <time>2012-05-08T13:10:30Z</time>
      </trkpt>
      <trkpt lat="43.94188" lon="7.28897">
        <ele>524.0557861</ele>
        <time>2012-05-08T13:10:36Z</time>
      </trkpt>
      <trkpt lat="43.94192" lon="7.28893">
        <ele>522.1331787</ele>
        <time>2012-05-08T13:10:46Z</time>
      </trkpt>
      <trkpt lat="43.94192" lon="7.28892">
        <ele>521.6525879</ele>
        <time>2012-05-08T13:10:53Z</time>
      </trkpt>
      <trkpt lat="43.94187" lon="7.28888">
        <ele>520.6912842</ele>
        <time>2012-05-08T13:10:57Z</time>
      </trkpt>
      <trkpt lat="43.94185" lon="7.28887">
        <ele>519.2492676</ele>
        <time>2012-05-08T13:10:59Z</time>
      </trkpt>
      <trkpt lat="43.94182" lon="7.28884">
        <ele>517.3266602</ele>
        <time>2012-05-08T13:11:06Z</time>
      </trkpt>
      <trkpt lat="43.94181" lon="7.28884">
        <ele>517.3266602</ele>
        <time>2012-05-08T13:11:08Z</time>
      </trkpt>
      <trkpt lat="43.94173" lon="7.28881">
        <ele>514.442627</ele>
        <time>2012-05-08T13:11:12Z</time>
      </trkpt>
      <trkpt lat="43.94171" lon="7.28879">
        <ele>514.442627</ele>
        <time>2012-05-08T13:11:13Z</time>
      </trkpt>
      <trkpt lat="43.94168" lon="7.28875">
        <ele>513.4814453</ele>
        <time>2012-05-08T13:11:14Z</time>
      </trkpt>
      <trkpt lat="43.9417" lon="7.28872">
        <ele>511.5587158</ele>
        <time>2012-05-08T13:11:17Z</time>
      </trkpt>
      <trkpt lat="43.94175" lon="7.28873">
        <ele>510.1166992</ele>
        <time>2012-05-08T13:11:19Z</time>
      </trkpt>
      <trkpt lat="43.94177" lon="7.2887">
        <ele>509.1553955</ele>
        <time>2012-05-08T13:11:22Z</time>
      </trkpt>
      <trkpt lat="43.94167" lon="7.28858">
        <ele>506.2714844</ele>
        <time>2012-05-08T13:11:28Z</time>
      </trkpt>
      <trkpt lat="43.94165" lon="7.28852">
        <ele>505.3101807</ele>
        <time>2012-05-08T13:11:30Z</time>
      </trkpt>
      <trkpt lat="43.94157" lon="7.28845">
        <ele>502.9067383</ele>
        <time>2012-05-08T13:11:35Z</time>
      </trkpt>
      <trkpt lat="43.94151" lon="7.28844">
        <ele>500.9841309</ele>
        <time>2012-05-08T13:11:38Z</time>
      </trkpt>
      <trkpt lat="43.94145" lon="7.28839">
        <ele>498.1003418</ele>
        <time>2012-05-08T13:11:42Z</time>
      </trkpt>
      <trkpt lat="43.94144" lon="7.28838">
        <ele>498.1003418</ele>
        <time>2012-05-08T13:11:43Z</time>
      </trkpt>
      <trkpt lat="43.9414" lon="7.28838">
        <ele>496.6583252</ele>
        <time>2012-05-08T13:11:45Z</time>
      </trkpt>
      <trkpt lat="43.94133" lon="7.28834">
        <ele>493.2935791</ele>
        <time>2012-05-08T13:11:50Z</time>
      </trkpt>
      <trkpt lat="43.94131" lon="7.28832">
        <ele>491.8516846</ele>
        <time>2012-05-08T13:11:51Z</time>
      </trkpt>
      <trkpt lat="43.94123" lon="7.28819">
        <ele>490.40979</ele>
        <time>2012-05-08T13:11:54Z</time>
      </trkpt>
      <trkpt lat="43.94118" lon="7.28813">
        <ele>488.9677734</ele>
        <time>2012-05-08T13:11:56Z</time>
      </trkpt>
      <trkpt lat="43.94108" lon="7.28801">
        <ele>485.6030273</ele>
        <time>2012-05-08T13:12:02Z</time>
      </trkpt>
      <trkpt lat="43.94103" lon="7.28795">
        <ele>484.6418457</ele>
        <time>2012-05-08T13:12:04Z</time>
      </trkpt>
      <trkpt lat="43.941" lon="7.28779">
        <ele>482.2385254</ele>
        <time>2012-05-08T13:12:09Z</time>
      </trkpt>
      <trkpt lat="43.94099" lon="7.28777">
        <ele>479.3544922</ele>
        <time>2012-05-08T13:12:12Z</time>
      </trkpt>
      <trkpt lat="43.9411" lon="7.28771">
        <ele>478.3931885</ele>
        <time>2012-05-08T13:12:17Z</time>
      </trkpt>
      <trkpt lat="43.94113" lon="7.28771">
        <ele>475.9898682</ele>
        <time>2012-05-08T13:12:19Z</time>
      </trkpt>
      <trkpt lat="43.94119" lon="7.2877">
        <ele>474.5479736</ele>
        <time>2012-05-08T13:12:23Z</time>
      </trkpt>
      <trkpt lat="43.94128" lon="7.28774">
        <ele>472.1446533</ele>
        <time>2012-05-08T13:12:27Z</time>
      </trkpt>
      <trkpt lat="43.94133" lon="7.28779">
        <ele>470.7026367</ele>
        <time>2012-05-08T13:12:29Z</time>
      </trkpt>
      <trkpt lat="43.94143" lon="7.28782">
        <ele>467.3381348</ele>
        <time>2012-05-08T13:12:34Z</time>
      </trkpt>
      <trkpt lat="43.94146" lon="7.28778">
        <ele>466.376709</ele>
        <time>2012-05-08T13:12:36Z</time>
      </trkpt>
      <trkpt lat="43.94151" lon="7.28776">
        <ele>464.9348145</ele>
        <time>2012-05-08T13:12:38Z</time>
      </trkpt>
      <trkpt lat="43.94156" lon="7.28775">
        <ele>462.0507813</ele>
        <time>2012-05-08T13:12:40Z</time>
      </trkpt>
      <trkpt lat="43.94154" lon="7.28773">
        <ele>461.0894775</ele>
        <time>2012-05-08T13:12:43Z</time>
      </trkpt>
      <trkpt lat="43.94144" lon="7.28763">
        <ele>455.8022461</ele>
        <time>2012-05-08T13:12:47Z</time>
      </trkpt>
      <trkpt lat="43.94141" lon="7.2876">
        <ele>455.8022461</ele>
        <time>2012-05-08T13:12:48Z</time>
      </trkpt>
      <trkpt lat="43.94136" lon="7.28754">
        <ele>454.3602295</ele>
        <time>2012-05-08T13:12:50Z</time>
      </trkpt>
      <trkpt lat="43.94127" lon="7.2875">
        <ele>452.4376221</ele>
        <time>2012-05-08T13:12:52Z</time>
      </trkpt>
      <trkpt lat="43.94122" lon="7.28744">
        <ele>450.9956055</ele>
        <time>2012-05-08T13:12:54Z</time>
      </trkpt>
      <trkpt lat="43.94116" lon="7.28737">
        <ele>448.5924072</ele>
        <time>2012-05-08T13:12:57Z</time>
      </trkpt>
      <trkpt lat="43.94112" lon="7.28734">
        <ele>446.6696777</ele>
        <time>2012-05-08T13:13:01Z</time>
      </trkpt>
      <trkpt lat="43.94109" lon="7.28722">
        <ele>445.708374</ele>
        <time>2012-05-08T13:13:04Z</time>
      </trkpt>
      <trkpt lat="43.94111" lon="7.2872">
        <ele>443.7857666</ele>
        <time>2012-05-08T13:13:11Z</time>
      </trkpt>
      <trkpt lat="43.94114" lon="7.28717">
        <ele>441.8631592</ele>
        <time>2012-05-08T13:13:20Z</time>
      </trkpt>
      <trkpt lat="43.94106" lon="7.28706">
        <ele>439.4597168</ele>
        <time>2012-05-08T13:13:27Z</time>
      </trkpt>
      <trkpt lat="43.94101" lon="7.28706">
        <ele>437.5371094</ele>
        <time>2012-05-08T13:13:31Z</time>
      </trkpt>
      <trkpt lat="43.94096" lon="7.28705">
        <ele>435.614502</ele>
        <time>2012-05-08T13:13:34Z</time>
      </trkpt>
      <trkpt lat="43.94088" lon="7.28704">
        <ele>434.1726074</ele>
        <time>2012-05-08T13:13:36Z</time>
      </trkpt>
      <trkpt lat="43.94083" lon="7.28701">
        <ele>432.25</ele>
        <time>2012-05-08T13:13:38Z</time>
      </trkpt>
      <trkpt lat="43.94088" lon="7.2869">
        <ele>430.3272705</ele>
        <time>2012-05-08T13:13:41Z</time>
      </trkpt>
      <trkpt lat="43.94089" lon="7.2869">
        <ele>429.8465576</ele>
        <time>2012-05-08T13:13:42Z</time>
      </trkpt>
      <trkpt lat="43.94091" lon="7.28687">
        <ele>427.9239502</ele>
        <time>2012-05-08T13:13:46Z</time>
      </trkpt>
      <trkpt lat="43.94083" lon="7.28683">
        <ele>426.0013428</ele>
        <time>2012-05-08T13:13:50Z</time>
      </trkpt>
      <trkpt lat="43.94079" lon="7.28679">
        <ele>425.0401611</ele>
        <time>2012-05-08T13:13:52Z</time>
      </trkpt>
      <trkpt lat="43.94082" lon="7.28671">
        <ele>423.1174316</ele>
        <time>2012-05-08T13:13:55Z</time>
      </trkpt>
      <trkpt lat="43.94086" lon="7.28669">
        <ele>422.1560059</ele>
        <time>2012-05-08T13:13:57Z</time>
      </trkpt>
      <trkpt lat="43.94091" lon="7.28669">
        <ele>420.7141113</ele>
        <time>2012-05-08T13:13:59Z</time>
      </trkpt>
      <trkpt lat="43.94095" lon="7.28664">
        <ele>418.310791</ele>
        <time>2012-05-08T13:14:02Z</time>
      </trkpt>
      <trkpt lat="43.94094" lon="7.28662">
        <ele>417.3496094</ele>
        <time>2012-05-08T13:14:03Z</time>
      </trkpt>
      <trkpt lat="43.9409" lon="7.28649">
        <ele>413.9848633</ele>
        <time>2012-05-08T13:14:08Z</time>
      </trkpt>
      <trkpt lat="43.94089" lon="7.28647">
        <ele>413.9848633</ele>
        <time>2012-05-08T13:14:09Z</time>
      </trkpt>
      <trkpt lat="43.94088" lon="7.28645">
        <ele>413.0235596</ele>
        <time>2012-05-08T13:14:10Z</time>
      </trkpt>
      <trkpt lat="43.94093" lon="7.28632">
        <ele>411.1009521</ele>
        <time>2012-05-08T13:14:15Z</time>
      </trkpt>
      <trkpt lat="43.94095" lon="7.28627">
        <ele>409.1783447</ele>
        <time>2012-05-08T13:14:17Z</time>
      </trkpt>
      <trkpt lat="43.94097" lon="7.28613">
        <ele>406.2943115</ele>
        <time>2012-05-08T13:14:22Z</time>
      </trkpt>
      <trkpt lat="43.94098" lon="7.28607">
        <ele>403.8911133</ele>
        <time>2012-05-08T13:14:25Z</time>
      </trkpt>
      <trkpt lat="43.94098" lon="7.28603">
        <ele>402.4490967</ele>
        <time>2012-05-08T13:17:30Z</time>
      </trkpt>
      <trkpt lat="43.94098" lon="7.28582">
        <ele>398.1231689</ele>
        <time>2012-05-08T13:17:35Z</time>
      </trkpt>
      <trkpt lat="43.94097" lon="7.28577">
        <ele>397.6424561</ele>
        <time>2012-05-08T13:17:36Z</time>
      </trkpt>
      <trkpt lat="43.94096" lon="7.28558">
        <ele>396.2005615</ele>
        <time>2012-05-08T13:17:39Z</time>
      </trkpt>
      <trkpt lat="43.94095" lon="7.28542">
        <ele>392.8359375</ele>
        <time>2012-05-08T13:17:41Z</time>
      </trkpt>
      <trkpt lat="43.94095" lon="7.28535">
        <ele>392.8359375</ele>
        <time>2012-05-08T13:17:42Z</time>
      </trkpt>
      <trkpt lat="43.94094" lon="7.28519">
        <ele>389.9519043</ele>
        <time>2012-05-08T13:17:44Z</time>
      </trkpt>
      <trkpt lat="43.94094" lon="7.28503">
        <ele>387.548584</ele>
        <time>2012-05-08T13:17:46Z</time>
      </trkpt>
      <trkpt lat="43.94093" lon="7.28487">
        <ele>383.7032471</ele>
        <time>2012-05-08T13:17:48Z</time>
      </trkpt>
      <trkpt lat="43.94092" lon="7.28469">
        <ele>381.7806396</ele>
        <time>2012-05-08T13:17:50Z</time>
      </trkpt>
      <trkpt lat="43.94091" lon="7.28442">
        <ele>379.8580322</ele>
        <time>2012-05-08T13:17:53Z</time>
      </trkpt>
      <trkpt lat="43.94093" lon="7.28429">
        <ele>377.454834</ele>
        <time>2012-05-08T13:17:55Z</time>
      </trkpt>
      <trkpt lat="43.94096" lon="7.28421">
        <ele>375.0515137</ele>
        <time>2012-05-08T13:17:57Z</time>
      </trkpt>
      <trkpt lat="43.94094" lon="7.28413">
        <ele>373.1289063</ele>
        <time>2012-05-08T13:18:00Z</time>
      </trkpt>
      <trkpt lat="43.94089" lon="7.28409">
        <ele>368.8029785</ele>
        <time>2012-05-08T13:18:04Z</time>
      </trkpt>
      <trkpt lat="43.94086" lon="7.28409">
        <ele>368.8029785</ele>
        <time>2012-05-08T13:18:05Z</time>
      </trkpt>
      <trkpt lat="43.94083" lon="7.28404">
        <ele>367.3609619</ele>
        <time>2012-05-08T13:18:07Z</time>
      </trkpt>
      <trkpt lat="43.94087" lon="7.28399">
        <ele>366.880249</ele>
        <time>2012-05-08T13:18:09Z</time>
      </trkpt>
      <trkpt lat="43.94094" lon="7.28391">
        <ele>364.4769287</ele>
        <time>2012-05-08T13:18:12Z</time>
      </trkpt>
      <trkpt lat="43.941" lon="7.28384">
        <ele>363.0350342</ele>
        <time>2012-05-08T13:18:14Z</time>
      </trkpt>
      <trkpt lat="43.94106" lon="7.28378">
        <ele>361.1124268</ele>
        <time>2012-05-08T13:18:16Z</time>
      </trkpt>
      <trkpt lat="43.94115" lon="7.28372">
        <ele>358.7089844</ele>
        <time>2012-05-08T13:18:19Z</time>
      </trkpt>
      <trkpt lat="43.94124" lon="7.28364">
        <ele>356.786377</ele>
        <time>2012-05-08T13:18:23Z</time>
      </trkpt>
      <trkpt lat="43.94124" lon="7.28357">
        <ele>354.3831787</ele>
        <time>2012-05-08T13:18:26Z</time>
      </trkpt>
      <trkpt lat="43.94178" lon="7.28325">
        <ele>355.3444824</ele>
        <time>2012-05-08T13:18:40Z</time>
      </trkpt>
      <trkpt lat="43.94239" lon="7.28279">
        <ele>355.8251953</ele>
        <time>2012-05-08T13:19:02Z</time>
      </trkpt>
      <trkpt lat="43.94244" lon="7.28276">
        <ele>356.3057861</ele>
        <time>2012-05-08T13:19:06Z</time>
      </trkpt>
      <trkpt lat="43.94245" lon="7.28276">
        <ele>355.3444824</ele>
        <time>2012-05-08T13:19:23Z</time>
      </trkpt>
      <trkpt lat="43.94242" lon="7.28277">
        <ele>355.3444824</ele>
        <time>2012-05-08T13:19:37Z</time>
      </trkpt>
      <trkpt lat="43.94242" lon="7.28277">
        <ele>355.3444824</ele>
        <time>2012-05-08T13:19:50Z</time>
      </trkpt>
      <trkpt lat="43.94242" lon="7.28277">
        <ele>354.8637695</ele>
        <time>2012-05-08T13:20:16Z</time>
      </trkpt>
      <trkpt lat="43.94242" lon="7.28277">
        <ele>354.8637695</ele>
        <time>2012-05-08T13:20:45Z</time>
      </trkpt>
      <trkpt lat="43.94242" lon="7.28277">
        <ele>355.3444824</ele>
        <time>2012-05-08T13:21:35Z</time>
      </trkpt>
    </trkseg>
  </trk>
</gpx>